Wetterdaten: Donnerstag, 13.10.2016
Datum Zeit Temp. A. Temp. A. max Feuchte A. Luftdruck Regen Wind Richtung Richtung Sonnenschein ET UV Solar Taupunkt Windböen
13.10.2016 00:00 1,6 °C 1,6 °C 95 % 1016,5 hPa 0,0 mm 4,1 km/h (1 Bft) NO 51 ° 0 min 0,000 mm 0,0 UV-I 0 W/m² 0,9 °C 6,4 km/h (2 Bft)
13.10.2016 00:01 1,6 °C 1,6 °C 95 % 1016,5 hPa 0,0 mm 3,4 km/h (1 Bft) O-NO 76 ° 0 min 0,000 mm 0,0 UV-I 0 W/m² 0,9 °C 4,8 km/h (1 Bft)
13.10.2016 00:02 1,6 °C 1,6 °C 95 % 1016,4 hPa 0,0 mm 1,8 km/h (1 Bft) O-NO 76 ° 0 min 0,000 mm 0,0 UV-I 0 W/m² 0,9 °C 3,2 km/h (1 Bft)
13.10.2016 00:03 1,6 °C 1,6 °C 95 % 1016,4 hPa 0,0 mm 1,6 km/h (1 Bft) O-NO 76 ° 0 min 0,000 mm 0,0 UV-I 0 W/m² 0,9 °C 1,6 km/h (1 Bft)
13.10.2016 00:04 1,6 °C 1,6 °C 95 % 1016,5 hPa 0,0 mm 3,2 km/h (1 Bft) O-SO 112 ° 0 min 0,000 mm 0,0 UV-I 0 W/m² 0,9 °C 4,8 km/h (1 Bft)
13.10.2016 00:05 1,6 °C 1,6 °C 95 % 1016,4 hPa 0,0 mm 3,2 km/h (1 Bft) O-SO 112 ° 0 min 0,000 mm 0,0 UV-I 0 W/m² 0,9 °C 4,8 km/h (1 Bft)
13.10.2016 00:06 1,6 °C 1,6 °C 95 % 1016,4 hPa 0,0 mm 3,2 km/h (1 Bft) O-NO 67 ° 0 min 0,000 mm 0,0 UV-I 0 W/m² 0,9 °C 4,8 km/h (1 Bft)
13.10.2016 00:07 1,6 °C 1,6 °C 95 % 1016,4 hPa 0,0 mm 6,4 km/h (2 Bft) O-NO 67 ° 0 min 0,000 mm 0,0 UV-I 0 W/m² 0,9 °C 8,0 km/h (2 Bft)
13.10.2016 00:08 1,6 °C 1,6 °C 95 % 1016,4 hPa 0,0 mm 3,2 km/h (1 Bft) NO 45 ° 0 min 0,000 mm 0,0 UV-I 0 W/m² 0,9 °C 6,4 km/h (2 Bft)
13.10.2016 00:09 1,5 °C 1,6 °C 95 % 1016,4 hPa 0,0 mm 3,2 km/h (1 Bft) NO 45 ° 0 min 0,000 mm 0,0 UV-I 0 W/m² 0,8 °C 3,2 km/h (1 Bft)
13.10.2016 00:10 1,5 °C 1,5 °C 95 % 1016,4 hPa 0,0 mm 3,2 km/h (1 Bft) NO 45 ° 0 min 0,000 mm 0,0 UV-I 0 W/m² 0,8 °C 4,8 km/h (1 Bft)
13.10.2016 00:11 1,5 °C 1,5 °C 95 % 1016,4 hPa 0,0 mm 0,0 km/h (0 Bft) NO 45 ° 0 min 0,000 mm 0,0 UV-I 0 W/m² 0,8 °C 1,6 km/h (1 Bft)
13.10.2016 00:12 1,5 °C 1,5 °C 95 % 1016,4 hPa 0,0 mm 0,0 km/h (0 Bft) NO 45 ° 0 min 0,000 mm 0,0 UV-I 0 W/m² 0,8 °C 1,6 km/h (1 Bft)
13.10.2016 00:13 1,5 °C 1,5 °C 95 % 1016,4 hPa 0,0 mm 1,6 km/h (1 Bft) NO 45 ° 0 min 0,000 mm 0,0 UV-I 0 W/m² 0,8 °C 3,2 km/h (1 Bft)
13.10.2016 00:14 1,5 °C 1,5 °C 95 % 1016,4 hPa 0,0 mm 3,2 km/h (1 Bft) NO 45 ° 0 min 0,000 mm 0,0 UV-I 0 W/m² 0,8 °C 4,8 km/h (1 Bft)
13.10.2016 00:15 1,5 °C 1,5 °C 95 % 1016,4 hPa 0,0 mm 3,2 km/h (1 Bft) NO 45 ° 0 min 0,000 mm 0,0 UV-I 0 W/m² 0,8 °C 3,2 km/h (1 Bft)
13.10.2016 00:16 1,4 °C 1,5 °C 95 % 1016,4 hPa 0,0 mm 3,2 km/h (1 Bft) NO 45 ° 0 min 0,000 mm 0,0 UV-I 0 W/m² 0,7 °C 4,8 km/h (1 Bft)
13.10.2016 00:17 1,4 °C 1,4 °C 95 % 1016,4 hPa 0,0 mm 1,6 km/h (1 Bft) NO 45 ° 0 min 0,000 mm 0,0 UV-I 0 W/m² 0,7 °C 4,8 km/h (1 Bft)
13.10.2016 00:18 1,4 °C 1,4 °C 95 % 1016,4 hPa 0,0 mm 3,2 km/h (1 Bft) NO 45 ° 0 min 0,000 mm 0,0 UV-I 0 W/m² 0,7 °C 4,8 km/h (1 Bft)
13.10.2016 00:19 1,4 °C 1,4 °C 95 % 1016,4 hPa 0,0 mm 1,6 km/h (1 Bft) NO 45 ° 0 min 0,000 mm 0,0 UV-I 0 W/m² 0,7 °C 3,2 km/h (1 Bft)
13.10.2016 00:20 1,4 °C 1,4 °C 95 % 1016,4 hPa 0,0 mm 0,0 km/h (0 Bft) NO 45 ° 0 min 0,000 mm 0,0 UV-I 0 W/m² 0,7 °C 1,6 km/h (1 Bft)
13.10.2016 00:21 1,4 °C 1,4 °C 95 % 1016,4 hPa 0,0 mm 1,6 km/h (1 Bft) NO 45 ° 0 min 0,000 mm 0,0 UV-I 0 W/m² 0,7 °C 3,2 km/h (1 Bft)
13.10.2016 00:22 1,4 °C 1,4 °C 95 % 1016,4 hPa 0,0 mm 3,2 km/h (1 Bft) O-NO 67 ° 0 min 0,000 mm 0,0 UV-I 0 W/m² 0,7 °C 4,8 km/h (1 Bft)
13.10.2016 00:23 1,4 °C 1,4 °C 95 % 1016,4 hPa 0,0 mm 1,6 km/h (1 Bft) O-NO 67 ° 0 min 0,000 mm 0,0 UV-I 0 W/m² 0,7 °C 3,2 km/h (1 Bft)
13.10.2016 00:24 1,4 °C 1,4 °C 95 % 1016,4 hPa 0,0 mm 1,6 km/h (1 Bft) O-NO 67 ° 0 min 0,000 mm 0,0 UV-I 0 W/m² 0,7 °C 1,6 km/h (1 Bft)
13.10.2016 00:25 1,4 °C 1,4 °C 95 % 1016,4 hPa 0,0 mm 0,0 km/h (0 Bft) O-NO 67 ° 0 min 0,000 mm 0,0 UV-I 0 W/m² 0,7 °C 1,6 km/h (1 Bft)
13.10.2016 00:26 1,5 °C 1,5 °C 96 % 1016,4 hPa 0,0 mm 1,6 km/h (1 Bft) O-NO 67 ° 0 min 0,000 mm 0,0 UV-I 0 W/m² 0,9 °C 3,2 km/h (1 Bft)
13.10.2016 00:27 1,5 °C 1,5 °C 95 % 1016,4 hPa 0,0 mm 3,2 km/h (1 Bft) O-NO 67 ° 0 min 0,000 mm 0,0 UV-I 0 W/m² 0,8 °C 3,2 km/h (1 Bft)
13.10.2016 00:28 1,6 °C 1,6 °C 95 % 1016,4 hPa 0,0 mm 3,2 km/h (1 Bft) O-NO 67 ° 0 min 0,000 mm 0,0 UV-I 0 W/m² 0,9 °C 4,8 km/h (1 Bft)
13.10.2016 00:29 1,6 °C 1,6 °C 96 % 1016,4 hPa 0,0 mm 3,2 km/h (1 Bft) O-NO 67 ° 0 min 0,000 mm 0,0 UV-I 0 W/m² 1,0 °C 4,8 km/h (1 Bft)
13.10.2016 00:30 1,6 °C 1,6 °C 96 % 1016,3 hPa 0,0 mm 4,8 km/h (1 Bft) O-NO 67 ° 0 min 0,000 mm 0,0 UV-I 0 W/m² 1,0 °C 6,4 km/h (2 Bft)
13.10.2016 00:31 1,6 °C 1,6 °C 96 % 1016,3 hPa 0,0 mm 3,2 km/h (1 Bft) O-NO 67 ° 0 min 0,000 mm 0,0 UV-I 0 W/m² 1,0 °C 4,8 km/h (1 Bft)
13.10.2016 00:33 1,6 °C 1,6 °C 96 % 1016,3 hPa 0,0 mm 2,3 km/h (1 Bft) O-NO 63 ° 0 min 0,000 mm 0,0 UV-I 0 W/m² 1,0 °C 3,2 km/h (1 Bft)
13.10.2016 00:34 1,5 °C 1,6 °C 96 % 1016,3 hPa 0,0 mm 3,1 km/h (1 Bft) O-NO 63 ° 0 min 0,000 mm 0,0 UV-I 0 W/m² 0,9 °C 4,8 km/h (1 Bft)
13.10.2016 00:35 1,5 °C 1,6 °C 96 % 1016,3 hPa 0,0 mm 3,2 km/h (1 Bft) O-NO 63 ° 0 min 0,000 mm 0,0 UV-I 0 W/m² 0,9 °C 4,8 km/h (1 Bft)
13.10.2016 00:36 1,5 °C 1,6 °C 96 % 1016,3 hPa 0,0 mm 2,6 km/h (1 Bft) O-NO 63 ° 0 min 0,000 mm 0,0 UV-I 0 W/m² 0,9 °C 4,8 km/h (1 Bft)
13.10.2016 00:37 1,6 °C 1,6 °C 96 % 1016,3 hPa 0,0 mm 2,2 km/h (1 Bft) O-NO 63 ° 0 min 0,000 mm 0,0 UV-I 0 W/m² 1,0 °C 3,2 km/h (1 Bft)
13.10.2016 00:38 1,6 °C 1,6 °C 96 % 1016,3 hPa 0,0 mm 0,9 km/h (0 Bft) O-NO 63 ° 0 min 0,000 mm 0,0 UV-I 0 W/m² 1,0 °C 4,8 km/h (1 Bft)
13.10.2016 00:39 1,6 °C 1,6 °C 96 % 1016,3 hPa 0,0 mm 3,5 km/h (1 Bft) O-NO 63 ° 0 min 0,000 mm 0,0 UV-I 0 W/m² 1,0 °C 4,8 km/h (1 Bft)
13.10.2016 00:40 1,6 °C 1,6 °C 96 % 1016,3 hPa 0,0 mm 1,7 km/h (1 Bft) O-NO 63 ° 0 min 0,000 mm 0,0 UV-I 0 W/m² 1,0 °C 3,2 km/h (1 Bft)
13.10.2016 00:41 1,6 °C 1,6 °C 96 % 1016,3 hPa 0,0 mm 2,1 km/h (1 Bft) O-NO 63 ° 0 min 0,000 mm 0,0 UV-I 0 W/m² 1,0 °C 3,2 km/h (1 Bft)
13.10.2016 00:42 1,6 °C 1,6 °C 96 % 1016,3 hPa 0,0 mm 2,4 km/h (1 Bft) O-NO 63 ° 0 min 0,000 mm 0,0 UV-I 0 W/m² 1,0 °C 3,2 km/h (1 Bft)
13.10.2016 00:43 1,5 °C 1,6 °C 96 % 1016,3 hPa 0,0 mm 2,4 km/h (1 Bft) O-NO 63 ° 0 min 0,000 mm 0,0 UV-I 0 W/m² 0,9 °C 3,2 km/h (1 Bft)
13.10.2016 00:44 1,6 °C 1,6 °C 96 % 1016,3 hPa 0,0 mm 2,7 km/h (1 Bft) O-NO 63 ° 0 min 0,000 mm 0,0 UV-I 0 W/m² 1,0 °C 3,2 km/h (1 Bft)
13.10.2016 00:45 1,5 °C 1,6 °C 96 % 1016,2 hPa 0,0 mm 1,6 km/h (1 Bft) O-NO 63 ° 0 min 0,000 mm 0,0 UV-I 0 W/m² 0,9 °C 3,2 km/h (1 Bft)
13.10.2016 00:46 1,5 °C 1,6 °C 96 % 1016,2 hPa 0,0 mm 1,5 km/h (1 Bft) O-NO 63 ° 0 min 0,000 mm 0,0 UV-I 0 W/m² 0,9 °C 1,6 km/h (1 Bft)
13.10.2016 00:47 1,5 °C 1,5 °C 96 % 1016,1 hPa 0,0 mm 3,2 km/h (1 Bft) O-NO 62 ° 0 min 0,000 mm 0,0 UV-I 0 W/m² 0,9 °C 4,8 km/h (1 Bft)
13.10.2016 00:48 1,5 °C 1,5 °C 96 % 1016,1 hPa 0,0 mm 2,5 km/h (1 Bft) NO 54 ° 0 min 0,000 mm 0,0 UV-I 0 W/m² 0,9 °C 4,8 km/h (1 Bft)
13.10.2016 00:49 1,5 °C 1,5 °C 96 % 1016,1 hPa 0,0 mm 4,4 km/h (1 Bft) O-NO 63 ° 0 min 0,000 mm 0,0 UV-I 0 W/m² 0,9 °C 6,4 km/h (2 Bft)
13.10.2016 00:50 1,5 °C 1,5 °C 96 % 1016,1 hPa 0,0 mm 2,0 km/h (1 Bft) O-NO 63 ° 0 min 0,000 mm 0,0 UV-I 0 W/m² 0,9 °C 3,2 km/h (1 Bft)
13.10.2016 00:51 1,5 °C 1,6 °C 96 % 1016,1 hPa 0,0 mm 1,5 km/h (1 Bft) O-NO 63 ° 0 min 0,000 mm 0,0 UV-I 0 W/m² 0,9 °C 3,2 km/h (1 Bft)
13.10.2016 00:52 1,5 °C 1,5 °C 96 % 1016,2 hPa 0,0 mm 1,5 km/h (1 Bft) O-NO 63 ° 0 min 0,000 mm 0,0 UV-I 0 W/m² 0,9 °C 3,2 km/h (1 Bft)
13.10.2016 00:53 1,5 °C 1,5 °C 96 % 1016,2 hPa 0,0 mm 1,1 km/h (1 Bft) O-NO 63 ° 0 min 0,000 mm 0,0 UV-I 0 W/m² 0,9 °C 1,6 km/h (1 Bft)
13.10.2016 00:54 1,6 °C 1,6 °C 96 % 1016,1 hPa 0,0 mm 1,2 km/h (1 Bft) O-NO 63 ° 0 min 0,000 mm 0,0 UV-I 0 W/m² 1,0 °C 3,2 km/h (1 Bft)
13.10.2016 00:55 1,5 °C 1,6 °C 96 % 1016,1 hPa 0,0 mm 1,9 km/h (1 Bft) O-NO 63 ° 0 min 0,000 mm 0,0 UV-I 0 W/m² 0,9 °C 3,2 km/h (1 Bft)
13.10.2016 00:56 1,5 °C 1,5 °C 96 % 1016,1 hPa 0,0 mm 2,1 km/h (1 Bft) O-NO 63 ° 0 min 0,000 mm 0,0 UV-I 0 W/m² 0,9 °C 3,2 km/h (1 Bft)
13.10.2016 00:57 1,5 °C 1,5 °C 96 % 1016,1 hPa 0,0 mm 2,2 km/h (1 Bft) O-NO 63 ° 0 min 0,000 mm 0,0 UV-I 0 W/m² 0,9 °C 3,2 km/h (1 Bft)
13.10.2016 00:58 1,5 °C 1,5 °C 96 % 1016,1 hPa 0,0 mm 1,3 km/h (1 Bft) O-NO 63 ° 0 min 0,000 mm 0,0 UV-I 0 W/m² 0,9 °C 3,2 km/h (1 Bft)
13.10.2016 00:59 1,5 °C 1,5 °C 96 % 1016,1 hPa 0,0 mm 2,3 km/h (1 Bft) O-NO 63 ° 0 min 0,000 mm 0,0 UV-I 0 W/m² 0,9 °C 3,2 km/h (1 Bft)
13.10.2016 01:00 1,5 °C 1,5 °C 96 % 1016,1 hPa 0,0 mm 2,7 km/h (1 Bft) O-NO 63 ° 0 min 0,000 mm 0,0 UV-I 0 W/m² 0,9 °C 3,2 km/h (1 Bft)
13.10.2016 01:01 1,5 °C 1,5 °C 96 % 1016,1 hPa 0,0 mm 1,3 km/h (1 Bft) O-NO 63 ° 0 min 0,000 mm 0,0 UV-I 0 W/m² 0,9 °C 3,2 km/h (1 Bft)
13.10.2016 01:02 1,6 °C 1,6 °C 96 % 1016,1 hPa 0,0 mm 0,7 km/h (0 Bft) O-NO 63 ° 0 min 0,000 mm 0,0 UV-I 0 W/m² 1,0 °C 1,6 km/h (1 Bft)
13.10.2016 01:03 1,5 °C 1,6 °C 96 % 1016,1 hPa 0,0 mm 1,4 km/h (1 Bft) O-NO 63 ° 0 min 0,000 mm 0,0 UV-I 0 W/m² 0,9 °C 3,2 km/h (1 Bft)
13.10.2016 01:04 1,6 °C 1,6 °C 96 % 1016,1 hPa 0,0 mm 0,9 km/h (0 Bft) O-NO 63 ° 0 min 0,000 mm 0,0 UV-I 0 W/m² 1,0 °C 1,6 km/h (1 Bft)
13.10.2016 01:05 1,5 °C 1,6 °C 96 % 1016,1 hPa 0,0 mm 0,6 km/h (0 Bft) O-NO 63 ° 0 min 0,000 mm 0,0 UV-I 0 W/m² 0,9 °C 1,6 km/h (1 Bft)
13.10.2016 01:06 1,6 °C 1,6 °C 96 % 1016,1 hPa 0,0 mm 0,5 km/h (0 Bft) O-NO 63 ° 0 min 0,000 mm 0,0 UV-I 0 W/m² 1,0 °C 1,6 km/h (1 Bft)
13.10.2016 01:07 1,5 °C 1,6 °C 96 % 1016,1 hPa 0,0 mm 0,7 km/h (0 Bft) O-NO 63 ° 0 min 0,000 mm 0,0 UV-I 0 W/m² 0,9 °C 1,6 km/h (1 Bft)
13.10.2016 01:08 1,5 °C 1,6 °C 96 % 1016,1 hPa 0,0 mm 0,2 km/h (0 Bft) O-NO 63 ° 0 min 0,000 mm 0,0 UV-I 0 W/m² 0,9 °C 1,6 km/h (1 Bft)
13.10.2016 01:09 1,6 °C 1,6 °C 96 % 1016,1 hPa 0,0 mm 0,1 km/h (0 Bft) O-NO 63 ° 0 min 0,000 mm 0,0 UV-I 0 W/m² 1,0 °C 1,6 km/h (1 Bft)
13.10.2016 01:10 1,5 °C 1,6 °C 96 % 1016,1 hPa 0,0 mm 0,0 km/h (0 Bft) O-NO 63 ° 0 min 0,000 mm 0,0 UV-I 0 W/m² 0,9 °C 0,0 km/h (0 Bft)
13.10.2016 01:11 1,6 °C 1,6 °C 96 % 1016,1 hPa 0,0 mm 0,3 km/h (0 Bft) O-NO 63 ° 0 min 0,000 mm 0,0 UV-I 0 W/m² 1,0 °C 1,6 km/h (1 Bft)
13.10.2016 01:12 1,6 °C 1,6 °C 96 % 1016,1 hPa 0,0 mm 2,0 km/h (1 Bft) O-NO 63 ° 0 min 0,000 mm 0,0 UV-I 0 W/m² 1,0 °C 3,2 km/h (1 Bft)
13.10.2016 01:13 1,6 °C 1,6 °C 96 % 1016,1 hPa 0,0 mm 0,9 km/h (0 Bft) O-NO 63 ° 0 min 0,000 mm 0,0 UV-I 0 W/m² 1,0 °C 3,2 km/h (1 Bft)
13.10.2016 01:14 1,6 °C 1,6 °C 96 % 1016,2 hPa 0,0 mm 1,9 km/h (1 Bft) O-NO 63 ° 0 min 0,000 mm 0,0 UV-I 0 W/m² 1,0 °C 3,2 km/h (1 Bft)
13.10.2016 01:15 1,6 °C 1,6 °C 96 % 1016,1 hPa 0,0 mm 1,5 km/h (1 Bft) O-NO 63 ° 0 min 0,000 mm 0,0 UV-I 0 W/m² 1,0 °C 3,2 km/h (1 Bft)
13.10.2016 01:16 1,6 °C 1,6 °C 96 % 1016,2 hPa 0,0 mm 1,4 km/h (1 Bft) O-NO 63 ° 0 min 0,000 mm 0,0 UV-I 0 W/m² 1,0 °C 3,2 km/h (1 Bft)
13.10.2016 01:17 1,6 °C 1,6 °C 96 % 1016,1 hPa 0,0 mm 2,1 km/h (1 Bft) O-NO 63 ° 0 min 0,000 mm 0,0 UV-I 0 W/m² 1,0 °C 3,2 km/h (1 Bft)
13.10.2016 01:18 1,6 °C 1,6 °C 96 % 1016,1 hPa 0,0 mm 1,9 km/h (1 Bft) NO 56 ° 0 min 0,000 mm 0,0 UV-I 0 W/m² 1,0 °C 4,8 km/h (1 Bft)
13.10.2016 01:19 1,6 °C 1,6 °C 96 % 1016,1 hPa 0,0 mm 2,5 km/h (1 Bft) NO 56 ° 0 min 0,000 mm 0,0 UV-I 0 W/m² 1,0 °C 4,8 km/h (1 Bft)
13.10.2016 01:20 1,6 °C 1,6 °C 96 % 1016,1 hPa 0,0 mm 1,4 km/h (1 Bft) NO 56 ° 0 min 0,000 mm 0,0 UV-I 0 W/m² 1,0 °C 3,2 km/h (1 Bft)
13.10.2016 01:21 1,6 °C 1,6 °C 96 % 1016,1 hPa 0,0 mm 2,7 km/h (1 Bft) NO 56 ° 0 min 0,000 mm 0,0 UV-I 0 W/m² 1,0 °C 4,8 km/h (1 Bft)
13.10.2016 01:22 1,6 °C 1,6 °C 96 % 1016,1 hPa 0,0 mm 1,3 km/h (1 Bft) NO 56 ° 0 min 0,000 mm 0,0 UV-I 0 W/m² 1,0 °C 3,2 km/h (1 Bft)
13.10.2016 01:23 1,6 °C 1,6 °C 96 % 1016,1 hPa 0,0 mm 0,9 km/h (0 Bft) NO 56 ° 0 min 0,000 mm 0,0 UV-I 0 W/m² 1,0 °C 1,6 km/h (1 Bft)
13.10.2016 01:24 1,6 °C 1,6 °C 96 % 1016,1 hPa 0,0 mm 1,1 km/h (1 Bft) NO 56 ° 0 min 0,000 mm 0,0 UV-I 0 W/m² 1,0 °C 1,6 km/h (1 Bft)
13.10.2016 01:25 1,6 °C 1,6 °C 96 % 1016,1 hPa 0,0 mm 0,1 km/h (0 Bft) NO 56 ° 0 min 0,000 mm 0,0 UV-I 0 W/m² 1,0 °C 1,6 km/h (1 Bft)
13.10.2016 01:26 1,5 °C 1,6 °C 96 % 1016,1 hPa 0,0 mm 1,8 km/h (1 Bft) NO 56 ° 0 min 0,000 mm 0,0 UV-I 0 W/m² 0,9 °C 3,2 km/h (1 Bft)
13.10.2016 01:27 1,5 °C 1,6 °C 96 % 1016,1 hPa 0,0 mm 2,0 km/h (1 Bft) NO 56 ° 0 min 0,000 mm 0,0 UV-I 0 W/m² 0,9 °C 3,2 km/h (1 Bft)
13.10.2016 01:28 1,5 °C 1,6 °C 96 % 1016,1 hPa 0,0 mm 1,1 km/h (1 Bft) NO 56 ° 0 min 0,000 mm 0,0 UV-I 0 W/m² 0,9 °C 1,6 km/h (1 Bft)
13.10.2016 01:29 1,5 °C 1,5 °C 96 % 1016,1 hPa 0,0 mm 0,0 km/h (0 Bft) NO 56 ° 0 min 0,000 mm 0,0 UV-I 0 W/m² 0,9 °C 0,0 km/h (0 Bft)
13.10.2016 01:30 1,5 °C 1,5 °C 96 % 1016,1 hPa 0,0 mm 0,2 km/h (0 Bft) NO 56 ° 0 min 0,000 mm 0,0 UV-I 0 W/m² 0,9 °C 1,6 km/h (1 Bft)
13.10.2016 01:31 1,5 °C 1,5 °C 96 % 1016,1 hPa 0,0 mm 0,0 km/h (0 Bft) NO 56 ° 0 min 0,000 mm 0,0 UV-I 0 W/m² 0,9 °C 0,0 km/h (0 Bft)
13.10.2016 01:32 1,6 °C 1,6 °C 96 % 1016,1 hPa 0,0 mm 0,0 km/h (0 Bft) NO 56 ° 0 min 0,000 mm 0,0 UV-I 0 W/m² 1,0 °C 0,0 km/h (0 Bft)
13.10.2016 01:33 1,6 °C 1,6 °C 96 % 1016,2 hPa 0,0 mm 0,0 km/h (0 Bft) NO 56 ° 0 min 0,000 mm 0,0 UV-I 0 W/m² 1,0 °C 0,0 km/h (0 Bft)
13.10.2016 01:34 1,6 °C 1,6 °C 96 % 1016,2 hPa 0,0 mm 0,4 km/h (0 Bft) NO 56 ° 0 min 0,000 mm 0,0 UV-I 0 W/m² 1,0 °C 1,6 km/h (1 Bft)
13.10.2016 01:35 1,5 °C 1,6 °C 96 % 1016,2 hPa 0,0 mm 1,0 km/h (0 Bft) NO 56 ° 0 min 0,000 mm 0,0 UV-I 0 W/m² 0,9 °C 1,6 km/h (1 Bft)
13.10.2016 01:36 1,5 °C 1,6 °C 96 % 1016,2 hPa 0,0 mm 0,3 km/h (0 Bft) NO 56 ° 0 min 0,000 mm 0,0 UV-I 0 W/m² 0,9 °C 1,6 km/h (1 Bft)
13.10.2016 01:37 1,6 °C 1,6 °C 96 % 1016,1 hPa 0,0 mm 0,0 km/h (0 Bft) NO 56 ° 0 min 0,000 mm 0,0 UV-I 0 W/m² 1,0 °C 0,0 km/h (0 Bft)
13.10.2016 01:38 1,6 °C 1,6 °C 96 % 1016,2 hPa 0,0 mm 0,0 km/h (0 Bft) NO 56 ° 0 min 0,000 mm 0,0 UV-I 0 W/m² 1,0 °C 0,0 km/h (0 Bft)
13.10.2016 01:39 1,6 °C 1,6 °C 96 % 1016,2 hPa 0,0 mm 0,7 km/h (0 Bft) NO 56 ° 0 min 0,000 mm 0,0 UV-I 0 W/m² 1,0 °C 1,6 km/h (1 Bft)
13.10.2016 01:40 1,6 °C 1,6 °C 96 % 1016,2 hPa 0,0 mm 0,1 km/h (0 Bft) NO 56 ° 0 min 0,000 mm 0,0 UV-I 0 W/m² 1,0 °C 1,6 km/h (1 Bft)
13.10.2016 01:41 1,6 °C 1,6 °C 96 % 1016,2 hPa 0,0 mm 0,0 km/h (0 Bft) NO 56 ° 0 min 0,000 mm 0,0 UV-I 0 W/m² 1,0 °C 0,0 km/h (0 Bft)
13.10.2016 01:42 1,6 °C 1,6 °C 96 % 1016,2 hPa 0,0 mm 0,1 km/h (0 Bft) NO 56 ° 0 min 0,000 mm 0,0 UV-I 0 W/m² 1,0 °C 1,6 km/h (1 Bft)
13.10.2016 01:43 1,6 °C 1,6 °C 96 % 1016,1 hPa 0,0 mm 1,0 km/h (0 Bft) NO 56 ° 0 min 0,000 mm 0,0 UV-I 0 W/m² 1,0 °C 3,2 km/h (1 Bft)
13.10.2016 01:44 1,7 °C 1,7 °C 96 % 1016,1 hPa 0,0 mm 1,2 km/h (1 Bft) NO 56 ° 0 min 0,000 mm 0,0 UV-I 0 W/m² 1,1 °C 1,6 km/h (1 Bft)
13.10.2016 01:45 1,7 °C 1,7 °C 96 % 1016,1 hPa 0,0 mm 1,1 km/h (1 Bft) NO 56 ° 0 min 0,000 mm 0,0 UV-I 0 W/m² 1,1 °C 3,2 km/h (1 Bft)
13.10.2016 01:46 1,7 °C 1,7 °C 96 % 1016,1 hPa 0,0 mm 0,2 km/h (0 Bft) NO 56 ° 0 min 0,000 mm 0,0 UV-I 0 W/m² 1,1 °C 1,6 km/h (1 Bft)
13.10.2016 01:47 1,7 °C 1,7 °C 96 % 1016,1 hPa 0,0 mm 0,5 km/h (0 Bft) NO 56 ° 0 min 0,000 mm 0,0 UV-I 0 W/m² 1,1 °C 3,2 km/h (1 Bft)
13.10.2016 01:48 1,7 °C 1,7 °C 96 % 1016,1 hPa 0,0 mm 1,0 km/h (0 Bft) NO 56 ° 0 min 0,000 mm 0,0 UV-I 0 W/m² 1,1 °C 1,6 km/h (1 Bft)
13.10.2016 01:49 1,7 °C 1,7 °C 96 % 1016,1 hPa 0,0 mm 2,3 km/h (1 Bft) NO 56 ° 0 min 0,000 mm 0,0 UV-I 0 W/m² 1,1 °C 3,2 km/h (1 Bft)
13.10.2016 01:50 1,7 °C 1,7 °C 96 % 1016,2 hPa 0,0 mm 1,1 km/h (1 Bft) NO 56 ° 0 min 0,000 mm 0,0 UV-I 0 W/m² 1,1 °C 1,6 km/h (1 Bft)
13.10.2016 01:51 1,7 °C 1,7 °C 96 % 1016,2 hPa 0,0 mm 1,7 km/h (1 Bft) NO 56 ° 0 min 0,000 mm 0,0 UV-I 0 W/m² 1,1 °C 3,2 km/h (1 Bft)
13.10.2016 01:52 1,7 °C 1,7 °C 96 % 1016,2 hPa 0,0 mm 1,7 km/h (1 Bft) NO 56 ° 0 min 0,000 mm 0,0 UV-I 0 W/m² 1,1 °C 3,2 km/h (1 Bft)
13.10.2016 01:53 1,7 °C 1,7 °C 96 % 1016,2 hPa 0,0 mm 1,4 km/h (1 Bft) O-NO 57 ° 0 min 0,000 mm 0,0 UV-I 0 W/m² 1,1 °C 1,6 km/h (1 Bft)
13.10.2016 01:54 1,7 °C 1,7 °C 96 % 1016,2 hPa 0,0 mm 1,7 km/h (1 Bft) O-NO 57 ° 0 min 0,000 mm 0,0 UV-I 0 W/m² 1,1 °C 3,2 km/h (1 Bft)
13.10.2016 01:55 1,7 °C 1,7 °C 96 % 1016,2 hPa 0,0 mm 0,3 km/h (0 Bft) O-NO 57 ° 0 min 0,000 mm 0,0 UV-I 0 W/m² 1,1 °C 1,6 km/h (1 Bft)
13.10.2016 01:56 1,7 °C 1,7 °C 96 % 1016,2 hPa 0,0 mm 0,0 km/h (0 Bft) O-NO 57 ° 0 min 0,000 mm 0,0 UV-I 0 W/m² 1,1 °C 0,0 km/h (0 Bft)
13.10.2016 01:57 1,7 °C 1,7 °C 96 % 1016,2 hPa 0,0 mm 0,0 km/h (0 Bft) O-NO 57 ° 0 min 0,000 mm 0,0 UV-I 0 W/m² 1,1 °C 0,0 km/h (0 Bft)
13.10.2016 01:58 1,7 °C 1,7 °C 96 % 1016,2 hPa 0,0 mm 0,0 km/h (0 Bft) O-NO 57 ° 0 min 0,000 mm 0,0 UV-I 0 W/m² 1,1 °C 0,0 km/h (0 Bft)
13.10.2016 01:59 1,7 °C 1,7 °C 96 % 1016,2 hPa 0,0 mm 0,0 km/h (0 Bft) O-NO 57 ° 0 min 0,000 mm 0,0 UV-I 0 W/m² 1,1 °C 0,0 km/h (0 Bft)
13.10.2016 02:00 1,7 °C 1,7 °C 96 % 1016,2 hPa 0,0 mm 0,0 km/h (0 Bft) O-NO 57 ° 0 min 0,000 mm 0,0 UV-I 0 W/m² 1,1 °C 0,0 km/h (0 Bft)
13.10.2016 02:01 1,7 °C 1,7 °C 96 % 1016,2 hPa 0,0 mm 0,1 km/h (0 Bft) O-NO 57 ° 0 min 0,000 mm 0,0 UV-I 0 W/m² 1,1 °C 1,6 km/h (1 Bft)
13.10.2016 02:02 1,7 °C 1,7 °C 96 % 1016,2 hPa 0,0 mm 1,8 km/h (1 Bft) O-NO 57 ° 0 min 0,000 mm 0,0 UV-I 0 W/m² 1,1 °C 3,2 km/h (1 Bft)
13.10.2016 02:03 1,7 °C 1,7 °C 96 % 1016,2 hPa 0,0 mm 2,4 km/h (1 Bft) O-NO 57 ° 0 min 0,000 mm 0,0 UV-I 0 W/m² 1,1 °C 3,2 km/h (1 Bft)
13.10.2016 02:04 1,7 °C 1,7 °C 96 % 1016,2 hPa 0,0 mm 2,8 km/h (1 Bft) O-NO 58 ° 0 min 0,000 mm 0,0 UV-I 0 W/m² 1,1 °C 3,2 km/h (1 Bft)
13.10.2016 02:05 1,7 °C 1,7 °C 96 % 1016,2 hPa 0,0 mm 2,5 km/h (1 Bft) O-NO 58 ° 0 min 0,000 mm 0,0 UV-I 0 W/m² 1,1 °C 3,2 km/h (1 Bft)
13.10.2016 02:06 1,7 °C 1,7 °C 96 % 1016,2 hPa 0,0 mm 1,9 km/h (1 Bft) O-NO 58 ° 0 min 0,000 mm 0,0 UV-I 0 W/m² 1,1 °C 3,2 km/h (1 Bft)
13.10.2016 02:07 1,7 °C 1,7 °C 96 % 1016,1 hPa 0,0 mm 0,3 km/h (0 Bft) O-NO 58 ° 0 min 0,000 mm 0,0 UV-I 0 W/m² 1,1 °C 1,6 km/h (1 Bft)
13.10.2016 02:08 1,7 °C 1,7 °C 96 % 1016,2 hPa 0,0 mm 0,4 km/h (0 Bft) O-NO 58 ° 0 min 0,000 mm 0,0 UV-I 0 W/m² 1,1 °C 1,6 km/h (1 Bft)
13.10.2016 02:09 1,7 °C 1,7 °C 96 % 1016,2 hPa 0,0 mm 0,5 km/h (0 Bft) O-NO 58 ° 0 min 0,000 mm 0,0 UV-I 0 W/m² 1,1 °C 3,2 km/h (1 Bft)
13.10.2016 02:10 1,7 °C 1,7 °C 96 % 1016,2 hPa 0,0 mm 1,8 km/h (1 Bft) O-NO 58 ° 0 min 0,000 mm 0,0 UV-I 0 W/m² 1,1 °C 3,2 km/h (1 Bft)
13.10.2016 02:11 1,7 °C 1,7 °C 96 % 1016,2 hPa 0,0 mm 1,6 km/h (1 Bft) O-NO 67 ° 0 min 0,000 mm 0,0 UV-I 0 W/m² 1,1 °C 1,6 km/h (1 Bft)
13.10.2016 02:12 1,7 °C 1,7 °C 96 % 1016,1 hPa 0,0 mm 1,6 km/h (1 Bft) O-NO 67 ° 0 min 0,000 mm 0,0 UV-I 0 W/m² 1,1 °C 3,2 km/h (1 Bft)
13.10.2016 02:13 1,7 °C 1,7 °C 96 % 1016,2 hPa 0,0 mm 1,6 km/h (1 Bft) O-NO 67 ° 0 min 0,000 mm 0,0 UV-I 0 W/m² 1,1 °C 1,6 km/h (1 Bft)
13.10.2016 02:14 1,7 °C 1,7 °C 96 % 1016,2 hPa 0,0 mm 0,0 km/h (0 Bft) N 0 ° 0 min 0,000 mm 0,0 UV-I 0 W/m² 1,1 °C 0,0 km/h (0 Bft)
13.10.2016 02:15 1,7 °C 1,7 °C 96 % 1016,2 hPa 0,0 mm 0,0 km/h (0 Bft) N 0 ° 0 min 0,000 mm 0,0 UV-I 0 W/m² 1,1 °C 0,0 km/h (0 Bft)
13.10.2016 02:16 1,6 °C 1,7 °C 96 % 1016,2 hPa 0,0 mm 0,0 km/h (0 Bft) O-NO 67 ° 0 min 0,000 mm 0,0 UV-I 0 W/m² 1,0 °C 1,6 km/h (1 Bft)
13.10.2016 02:17 1,7 °C 1,7 °C 96 % 1016,2 hPa 0,0 mm 1,6 km/h (1 Bft) O-NO 67 ° 0 min 0,000 mm 0,0 UV-I 0 W/m² 1,1 °C 1,6 km/h (1 Bft)
13.10.2016 02:18 1,7 °C 1,7 °C 96 % 1016,2 hPa 0,0 mm 0,0 km/h (0 Bft) O-NO 67 ° 0 min 0,000 mm 0,0 UV-I 0 W/m² 1,1 °C 1,6 km/h (1 Bft)
13.10.2016 02:19 1,7 °C 1,7 °C 96 % 1016,2 hPa 0,0 mm 0,0 km/h (0 Bft) N 0 ° 0 min 0,000 mm 0,0 UV-I 0 W/m² 1,1 °C 0,0 km/h (0 Bft)
13.10.2016 02:20 1,7 °C 1,7 °C 96 % 1016,2 hPa 0,0 mm 0,0 km/h (0 Bft) O-NO 67 ° 0 min 0,000 mm 0,0 UV-I 0 W/m² 1,1 °C 1,6 km/h (1 Bft)
13.10.2016 02:21 1,7 °C 1,7 °C 96 % 1016,2 hPa 0,0 mm 0,0 km/h (0 Bft) O-NO 67 ° 0 min 0,000 mm 0,0 UV-I 0 W/m² 1,1 °C 1,6 km/h (1 Bft)
13.10.2016 02:22 1,7 °C 1,7 °C 96 % 1016,2 hPa 0,0 mm 0,0 km/h (0 Bft) O-NO 67 ° 0 min 0,000 mm 0,0 UV-I 0 W/m² 1,1 °C 3,2 km/h (1 Bft)
13.10.2016 02:23 1,6 °C 1,7 °C 96 % 1016,2 hPa 0,0 mm 1,6 km/h (1 Bft) O-NO 67 ° 0 min 0,000 mm 0,0 UV-I 0 W/m² 1,0 °C 3,2 km/h (1 Bft)
13.10.2016 02:24 1,6 °C 1,6 °C 96 % 1016,2 hPa 0,0 mm 1,6 km/h (1 Bft) O-NO 67 ° 0 min 0,000 mm 0,0 UV-I 0 W/m² 1,0 °C 3,2 km/h (1 Bft)
13.10.2016 02:25 1,6 °C 1,6 °C 96 % 1016,2 hPa 0,0 mm 1,6 km/h (1 Bft) O-NO 67 ° 0 min 0,000 mm 0,0 UV-I 0 W/m² 1,0 °C 4,8 km/h (1 Bft)
13.10.2016 02:26 1,5 °C 1,5 °C 96 % 1016,2 hPa 0,0 mm 1,6 km/h (1 Bft) O 90 ° 0 min 0,000 mm 0,0 UV-I 0 W/m² 0,9 °C 3,2 km/h (1 Bft)
13.10.2016 02:27 1,4 °C 1,5 °C 96 % 1016,2 hPa 0,0 mm 3,2 km/h (1 Bft) O 90 ° 0 min 0,000 mm 0,0 UV-I 0 W/m² 0,8 °C 4,8 km/h (1 Bft)
13.10.2016 02:28 1,4 °C 1,4 °C 96 % 1016,2 hPa 0,0 mm 1,6 km/h (1 Bft) O-SO 112 ° 0 min 0,000 mm 0,0 UV-I 0 W/m² 0,8 °C 3,2 km/h (1 Bft)
13.10.2016 02:29 1,4 °C 1,4 °C 96 % 1016,3 hPa 0,0 mm 3,2 km/h (1 Bft) O-SO 112 ° 0 min 0,000 mm 0,0 UV-I 0 W/m² 0,8 °C 4,8 km/h (1 Bft)
13.10.2016 02:30 1,3 °C 1,4 °C 96 % 1016,2 hPa 0,0 mm 3,2 km/h (1 Bft) SO 135 ° 0 min 0,000 mm 0,0 UV-I 0 W/m² 0,7 °C 3,2 km/h (1 Bft)
13.10.2016 02:31 1,3 °C 1,4 °C 96 % 1016,3 hPa 0,0 mm 1,6 km/h (1 Bft) SO 135 ° 0 min 0,000 mm 0,0 UV-I 0 W/m² 0,7 °C 3,2 km/h (1 Bft)
13.10.2016 02:32 1,3 °C 1,3 °C 96 % 1016,2 hPa 0,0 mm 1,6 km/h (1 Bft) SO 135 ° 0 min 0,000 mm 0,0 UV-I 0 W/m² 0,7 °C 1,6 km/h (1 Bft)
13.10.2016 02:33 1,3 °C 1,3 °C 96 % 1016,3 hPa 0,0 mm 1,6 km/h (1 Bft) SO 135 ° 0 min 0,000 mm 0,0 UV-I 0 W/m² 0,7 °C 1,6 km/h (1 Bft)
13.10.2016 02:34 1,3 °C 1,3 °C 96 % 1016,3 hPa 0,0 mm 0,0 km/h (0 Bft) SO 135 ° 0 min 0,000 mm 0,0 UV-I 0 W/m² 0,7 °C 1,6 km/h (1 Bft)
13.10.2016 02:35 1,3 °C 1,4 °C 96 % 1016,3 hPa 0,0 mm 0,0 km/h (0 Bft) SO 135 ° 0 min 0,000 mm 0,0 UV-I 0 W/m² 0,7 °C 1,6 km/h (1 Bft)
13.10.2016 02:36 1,3 °C 1,4 °C 96 % 1016,3 hPa 0,0 mm 0,0 km/h (0 Bft) N 0 ° 0 min 0,000 mm 0,0 UV-I 0 W/m² 0,7 °C 0,0 km/h (0 Bft)
13.10.2016 02:37 1,4 °C 1,4 °C 96 % 1016,3 hPa 0,0 mm 0,0 km/h (0 Bft) SO 135 ° 0 min 0,000 mm 0,0 UV-I 0 W/m² 0,8 °C 1,6 km/h (1 Bft)
13.10.2016 02:38 1,4 °C 1,4 °C 96 % 1016,2 hPa 0,0 mm 0,0 km/h (0 Bft) N 0 ° 0 min 0,000 mm 0,0 UV-I 0 W/m² 0,8 °C 0,0 km/h (0 Bft)
13.10.2016 02:39 1,4 °C 1,4 °C 96 % 1016,3 hPa 0,0 mm 1,6 km/h (1 Bft) SO 135 ° 0 min 0,000 mm 0,0 UV-I 0 W/m² 0,8 °C 1,6 km/h (1 Bft)
13.10.2016 02:40 1,3 °C 1,4 °C 96 % 1016,3 hPa 0,0 mm 1,6 km/h (1 Bft) SO 135 ° 0 min 0,000 mm 0,0 UV-I 0 W/m² 0,7 °C 1,6 km/h (1 Bft)
13.10.2016 02:41 1,4 °C 1,4 °C 96 % 1016,2 hPa 0,0 mm 1,6 km/h (1 Bft) SO 135 ° 0 min 0,000 mm 0,0 UV-I 0 W/m² 0,8 °C 4,8 km/h (1 Bft)
13.10.2016 02:42 1,4 °C 1,4 °C 96 % 1016,2 hPa 0,0 mm 1,6 km/h (1 Bft) O 90 ° 0 min 0,000 mm 0,0 UV-I 0 W/m² 0,8 °C 3,2 km/h (1 Bft)
13.10.2016 02:43 1,3 °C 1,4 °C 96 % 1016,2 hPa 0,0 mm 0,0 km/h (0 Bft) O 90 ° 0 min 0,000 mm 0,0 UV-I 0 W/m² 0,7 °C 1,6 km/h (1 Bft)
13.10.2016 02:44 1,3 °C 1,3 °C 96 % 1016,2 hPa 0,0 mm 0,0 km/h (0 Bft) O 90 ° 0 min 0,000 mm 0,0 UV-I 0 W/m² 0,7 °C 1,6 km/h (1 Bft)
13.10.2016 02:45 1,3 °C 1,3 °C 96 % 1016,2 hPa 0,0 mm 1,6 km/h (1 Bft) O 90 ° 0 min 0,000 mm 0,0 UV-I 0 W/m² 0,7 °C 3,2 km/h (1 Bft)
13.10.2016 02:47 1,3 °C 1,4 °C 96 % 1016,2 hPa 0,0 mm 1,6 km/h (1 Bft) O 101 ° 0 min 0,000 mm 0,0 UV-I 0 W/m² 0,7 °C 1,6 km/h (1 Bft)
13.10.2016 02:48 1,3 °C 1,4 °C 96 % 1016,2 hPa 0,0 mm 1,4 km/h (1 Bft) O 101 ° 0 min 0,000 mm 0,0 UV-I 0 W/m² 0,7 °C 3,2 km/h (1 Bft)
13.10.2016 02:49 1,3 °C 1,3 °C 96 % 1016,2 hPa 0,0 mm 1,3 km/h (1 Bft) O 101 ° 0 min 0,000 mm 0,0 UV-I 0 W/m² 0,7 °C 1,6 km/h (1 Bft)
13.10.2016 02:50 1,3 °C 1,3 °C 96 % 1016,1 hPa 0,0 mm 1,9 km/h (1 Bft) O-SO 102 ° 0 min 0,000 mm 0,0 UV-I 0 W/m² 0,7 °C 3,2 km/h (1 Bft)
13.10.2016 02:51 1,3 °C 1,3 °C 96 % 1016,2 hPa 0,0 mm 2,3 km/h (1 Bft) O-SO 102 ° 0 min 0,000 mm 0,0 UV-I 0 W/m² 0,7 °C 3,2 km/h (1 Bft)
13.10.2016 02:52 1,3 °C 1,3 °C 96 % 1016,2 hPa 0,0 mm 2,3 km/h (1 Bft) O-SO 102 ° 0 min 0,000 mm 0,0 UV-I 0 W/m² 0,7 °C 3,2 km/h (1 Bft)
13.10.2016 02:53 1,2 °C 1,3 °C 96 % 1016,1 hPa 0,0 mm 1,6 km/h (1 Bft) O 101 ° 0 min 0,000 mm 0,0 UV-I 0 W/m² 0,6 °C 3,2 km/h (1 Bft)
13.10.2016 02:54 1,2 °C 1,3 °C 96 % 1016,2 hPa 0,0 mm 2,3 km/h (1 Bft) O-SO 102 ° 0 min 0,000 mm 0,0 UV-I 0 W/m² 0,6 °C 3,2 km/h (1 Bft)
13.10.2016 02:55 1,2 °C 1,3 °C 96 % 1016,1 hPa 0,0 mm 1,8 km/h (1 Bft) O-SO 102 ° 0 min 0,000 mm 0,0 UV-I 0 W/m² 0,6 °C 3,2 km/h (1 Bft)
13.10.2016 02:56 1,2 °C 1,2 °C 96 % 1016,2 hPa 0,0 mm 1,6 km/h (1 Bft) O-SO 112 ° 0 min 0,000 mm 0,0 UV-I 0 W/m² 0,6 °C 3,2 km/h (1 Bft)
13.10.2016 02:57 1,2 °C 1,2 °C 96 % 1016,1 hPa 0,0 mm 1,6 km/h (1 Bft) O-SO 112 ° 0 min 0,000 mm 0,0 UV-I 0 W/m² 0,6 °C 3,2 km/h (1 Bft)
13.10.2016 02:58 1,2 °C 1,2 °C 96 % 1016,1 hPa 0,0 mm 1,3 km/h (1 Bft) O-SO 102 ° 0 min 0,000 mm 0,0 UV-I 0 W/m² 0,6 °C 1,6 km/h (1 Bft)
13.10.2016 02:59 1,2 °C 1,2 °C 96 % 1016,2 hPa 0,0 mm 1,5 km/h (1 Bft) O-SO 102 ° 0 min 0,000 mm 0,0 UV-I 0 W/m² 0,6 °C 3,2 km/h (1 Bft)
13.10.2016 03:00 1,2 °C 1,2 °C 96 % 1016,1 hPa 0,0 mm 1,3 km/h (1 Bft) O-SO 102 ° 0 min 0,000 mm 0,0 UV-I 0 W/m² 0,6 °C 3,2 km/h (1 Bft)
13.10.2016 03:02 1,2 °C 1,2 °C 96 % 1016,1 hPa 0,0 mm 1,7 km/h (1 Bft) O-SO 102 ° 0 min 0,000 mm 0,0 UV-I 0 W/m² 0,6 °C 3,2 km/h (1 Bft)
13.10.2016 03:03 1,1 °C 1,2 °C 96 % 1016,1 hPa 0,0 mm 1,6 km/h (1 Bft) O-SO 102 ° 0 min 0,000 mm 0,0 UV-I 0 W/m² 0,5 °C 1,6 km/h (1 Bft)
13.10.2016 03:04 1,1 °C 1,2 °C 96 % 1016,1 hPa 0,0 mm 0,0 km/h (0 Bft) O-SO 102 ° 0 min 0,000 mm 0,0 UV-I 0 W/m² 0,5 °C 1,6 km/h (1 Bft)
13.10.2016 03:05 1,1 °C 1,2 °C 96 % 1016,0 hPa 0,0 mm 0,3 km/h (0 Bft) O-SO 102 ° 0 min 0,000 mm 0,0 UV-I 0 W/m² 0,5 °C 1,6 km/h (1 Bft)
13.10.2016 03:06 1,0 °C 1,1 °C 96 % 1016,0 hPa 0,0 mm 0,3 km/h (0 Bft) O-SO 102 ° 0 min 0,000 mm 0,0 UV-I 0 W/m² 0,4 °C 1,6 km/h (1 Bft)
13.10.2016 03:07 0,9 °C 1,0 °C 96 % 1016,0 hPa 0,0 mm 1,1 km/h (1 Bft) O-SO 102 ° 0 min 0,000 mm 0,0 UV-I 0 W/m² 0,3 °C 1,6 km/h (1 Bft)
13.10.2016 03:08 0,9 °C 0,9 °C 96 % 1016,0 hPa 0,0 mm 2,4 km/h (1 Bft) O-SO 109 ° 0 min 0,000 mm 0,0 UV-I 0 W/m² 0,3 °C 3,2 km/h (1 Bft)
13.10.2016 03:09 0,8 °C 0,9 °C 96 % 1016,0 hPa 0,0 mm 1,1 km/h (1 Bft) O-SO 109 ° 0 min 0,000 mm 0,0 UV-I 0 W/m² 0,2 °C 3,2 km/h (1 Bft)
13.10.2016 03:10 0,7 °C 0,8 °C 96 % 1016,0 hPa 0,0 mm 1,0 km/h (0 Bft) O-SO 109 ° 0 min 0,000 mm 0,0 UV-I 0 W/m² 0,1 °C 1,6 km/h (1 Bft)
13.10.2016 03:11 0,7 °C 0,7 °C 96 % 1016,0 hPa 0,0 mm 0,0 km/h (0 Bft) O-SO 109 ° 0 min 0,000 mm 0,0 UV-I 0 W/m² 0,1 °C 0,0 km/h (0 Bft)
13.10.2016 03:12 0,6 °C 0,7 °C 96 % 1015,9 hPa 0,0 mm 0,0 km/h (0 Bft) O-SO 109 ° 0 min 0,000 mm 0,0 UV-I 0 W/m² 0,0 °C 0,0 km/h (0 Bft)
13.10.2016 03:13 0,6 °C 0,6 °C 96 % 1015,9 hPa 0,0 mm 0,1 km/h (0 Bft) O-SO 109 ° 0 min 0,000 mm 0,0 UV-I 0 W/m² 0,0 °C 1,6 km/h (1 Bft)
13.10.2016 03:14 0,5 °C 0,6 °C 96 % 1015,9 hPa 0,0 mm 0,5 km/h (0 Bft) O-SO 109 ° 0 min 0,000 mm 0,0 UV-I 0 W/m² -0,1 °C 1,6 km/h (1 Bft)
13.10.2016 03:15 0,4 °C 0,5 °C 96 % 1015,9 hPa 0,0 mm 0,0 km/h (0 Bft) O-SO 109 ° 0 min 0,000 mm 0,0 UV-I 0 W/m² -0,2 °C 0,0 km/h (0 Bft)
13.10.2016 03:16 0,3 °C 0,4 °C 96 % 1015,9 hPa 0,0 mm 0,0 km/h (0 Bft) O-SO 109 ° 0 min 0,000 mm 0,0 UV-I 0 W/m² -0,3 °C 0,0 km/h (0 Bft)
13.10.2016 03:17 0,3 °C 0,3 °C 96 % 1015,9 hPa 0,0 mm 0,1 km/h (0 Bft) O-SO 109 ° 0 min 0,000 mm 0,0 UV-I 0 W/m² -0,3 °C 1,6 km/h (1 Bft)
13.10.2016 03:18 0,3 °C 0,3 °C 96 % 1015,9 hPa 0,0 mm 0,8 km/h (0 Bft) O-SO 109 ° 0 min 0,000 mm 0,0 UV-I 0 W/m² -0,3 °C 1,6 km/h (1 Bft)
13.10.2016 03:19 0,2 °C 0,3 °C 96 % 1015,9 hPa 0,0 mm 1,3 km/h (1 Bft) O-SO 109 ° 0 min 0,000 mm 0,0 UV-I 0 W/m² -0,4 °C 3,2 km/h (1 Bft)
13.10.2016 03:20 0,2 °C 0,2 °C 96 % 1015,9 hPa 0,0 mm 2,0 km/h (1 Bft) O-SO 109 ° 0 min 0,000 mm 0,0 UV-I 0 W/m² -0,4 °C 3,2 km/h (1 Bft)
13.10.2016 03:21 0,2 °C 0,2 °C 96 % 1015,9 hPa 0,0 mm 2,5 km/h (1 Bft) O-SO 109 ° 0 min 0,000 mm 0,0 UV-I 0 W/m² -0,4 °C 3,2 km/h (1 Bft)
13.10.2016 03:22 0,2 °C 0,2 °C 96 % 1015,9 hPa 0,0 mm 2,2 km/h (1 Bft) O-SO 109 ° 0 min 0,000 mm 0,0 UV-I 0 W/m² -0,4 °C 3,2 km/h (1 Bft)
13.10.2016 03:23 0,2 °C 0,2 °C 96 % 1015,9 hPa 0,0 mm 1,2 km/h (1 Bft) O-SO 109 ° 0 min 0,000 mm 0,0 UV-I 0 W/m² -0,4 °C 1,6 km/h (1 Bft)
13.10.2016 03:24 0,2 °C 0,2 °C 96 % 1015,9 hPa 0,0 mm 1,5 km/h (1 Bft) O-SO 109 ° 0 min 0,000 mm 0,0 UV-I 0 W/m² -0,4 °C 1,6 km/h (1 Bft)
13.10.2016 03:25 0,2 °C 0,2 °C 96 % 1015,9 hPa 0,0 mm 1,8 km/h (1 Bft) O-SO 109 ° 0 min 0,000 mm 0,0 UV-I 0 W/m² -0,4 °C 3,2 km/h (1 Bft)
13.10.2016 03:26 0,2 °C 0,2 °C 96 % 1015,9 hPa 0,0 mm 0,2 km/h (0 Bft) O-SO 109 ° 0 min 0,000 mm 0,0 UV-I 0 W/m² -0,4 °C 1,6 km/h (1 Bft)
13.10.2016 03:27 0,2 °C 0,2 °C 96 % 1015,9 hPa 0,0 mm 0,4 km/h (0 Bft) O-SO 109 ° 0 min 0,000 mm 0,0 UV-I 0 W/m² -0,4 °C 1,6 km/h (1 Bft)
13.10.2016 03:28 0,2 °C 0,2 °C 96 % 1015,8 hPa 0,0 mm 0,0 km/h (0 Bft) O-SO 109 ° 0 min 0,000 mm 0,0 UV-I 0 W/m² -0,4 °C 0,0 km/h (0 Bft)
13.10.2016 03:29 0,1 °C 0,2 °C 96 % 1015,8 hPa 0,0 mm 0,0 km/h (0 Bft) O-SO 109 ° 0 min 0,000 mm 0,0 UV-I 0 W/m² -0,5 °C 0,0 km/h (0 Bft)
13.10.2016 03:30 0,1 °C 0,1 °C 96 % 1015,8 hPa 0,0 mm 0,8 km/h (0 Bft) O-SO 109 ° 0 min 0,000 mm 0,0 UV-I 0 W/m² -0,5 °C 1,6 km/h (1 Bft)
13.10.2016 03:31 0,1 °C 0,1 °C 96 % 1015,8 hPa 0,0 mm 1,9 km/h (1 Bft) O-SO 109 ° 0 min 0,000 mm 0,0 UV-I 0 W/m² -0,5 °C 3,2 km/h (1 Bft)
13.10.2016 03:32 0,1 °C 0,1 °C 96 % 1015,8 hPa 0,0 mm 1,0 km/h (0 Bft) O-SO 109 ° 0 min 0,000 mm 0,0 UV-I 0 W/m² -0,5 °C 1,6 km/h (1 Bft)
13.10.2016 03:33 0,1 °C 0,1 °C 96 % 1015,8 hPa 0,0 mm 1,8 km/h (1 Bft) O-SO 109 ° 0 min 0,000 mm 0,0 UV-I 0 W/m² -0,5 °C 3,2 km/h (1 Bft)
13.10.2016 03:34 0,1 °C 0,1 °C 96 % 1015,8 hPa 0,0 mm 1,4 km/h (1 Bft) O-SO 109 ° 0 min 0,000 mm 0,0 UV-I 0 W/m² -0,5 °C 3,2 km/h (1 Bft)
13.10.2016 03:35 0,1 °C 0,1 °C 96 % 1015,8 hPa 0,0 mm 1,6 km/h (1 Bft) O-SO 109 ° 0 min 0,000 mm 0,0 UV-I 0 W/m² -0,5 °C 1,6 km/h (1 Bft)
13.10.2016 03:36 0,1 °C 0,1 °C 96 % 1015,8 hPa 0,0 mm 0,9 km/h (0 Bft) O-SO 109 ° 0 min 0,000 mm 0,0 UV-I 0 W/m² -0,5 °C 1,6 km/h (1 Bft)
13.10.2016 03:37 0,1 °C 0,1 °C 96 % 1015,8 hPa 0,0 mm 0,6 km/h (0 Bft) O-SO 109 ° 0 min 0,000 mm 0,0 UV-I 0 W/m² -0,5 °C 1,6 km/h (1 Bft)
13.10.2016 03:38 0,1 °C 0,1 °C 96 % 1015,8 hPa 0,0 mm 0,0 km/h (0 Bft) O-SO 109 ° 0 min 0,000 mm 0,0 UV-I 0 W/m² -0,5 °C 0,0 km/h (0 Bft)
13.10.2016 03:39 0,2 °C 0,2 °C 96 % 1015,8 hPa 0,0 mm 0,0 km/h (0 Bft) O-SO 109 ° 0 min 0,000 mm 0,0 UV-I 0 W/m² -0,4 °C 0,0 km/h (0 Bft)
13.10.2016 03:40 0,2 °C 0,2 °C 96 % 1015,8 hPa 0,0 mm 1,2 km/h (1 Bft) O-SO 109 ° 0 min 0,000 mm 0,0 UV-I 0 W/m² -0,4 °C 1,6 km/h (1 Bft)
13.10.2016 03:41 0,2 °C 0,2 °C 96 % 1015,8 hPa 0,0 mm 1,1 km/h (1 Bft) O-SO 109 ° 0 min 0,000 mm 0,0 UV-I 0 W/m² -0,4 °C 1,6 km/h (1 Bft)
13.10.2016 03:42 0,2 °C 0,2 °C 96 % 1015,8 hPa 0,0 mm 1,7 km/h (1 Bft) O-SO 109 ° 0 min 0,000 mm 0,0 UV-I 0 W/m² -0,4 °C 3,2 km/h (1 Bft)
13.10.2016 03:43 0,2 °C 0,2 °C 96 % 1015,8 hPa 0,0 mm 2,4 km/h (1 Bft) O-SO 109 ° 0 min 0,000 mm 0,0 UV-I 0 W/m² -0,4 °C 3,2 km/h (1 Bft)
13.10.2016 03:44 0,2 °C 0,2 °C 96 % 1015,8 hPa 0,0 mm 2,3 km/h (1 Bft) O-SO 109 ° 0 min 0,000 mm 0,0 UV-I 0 W/m² -0,4 °C 3,2 km/h (1 Bft)
13.10.2016 03:45 0,2 °C 0,2 °C 96 % 1015,8 hPa 0,0 mm 1,0 km/h (0 Bft) O-SO 109 ° 0 min 0,000 mm 0,0 UV-I 0 W/m² -0,4 °C 3,2 km/h (1 Bft)
13.10.2016 03:46 0,2 °C 0,2 °C 96 % 1015,8 hPa 0,0 mm 2,1 km/h (1 Bft) O-SO 109 ° 0 min 0,000 mm 0,0 UV-I 0 W/m² -0,4 °C 3,2 km/h (1 Bft)
13.10.2016 03:47 0,2 °C 0,3 °C 96 % 1015,8 hPa 0,0 mm 1,3 km/h (1 Bft) O-SO 109 ° 0 min 0,000 mm 0,0 UV-I 0 W/m² -0,4 °C 1,6 km/h (1 Bft)
13.10.2016 03:48 0,2 °C 0,2 °C 96 % 1015,8 hPa 0,0 mm 1,7 km/h (1 Bft) O-SO 109 ° 0 min 0,000 mm 0,0 UV-I 0 W/m² -0,4 °C 3,2 km/h (1 Bft)
13.10.2016 03:49 0,2 °C 0,2 °C 96 % 1015,8 hPa 0,0 mm 1,6 km/h (1 Bft) O-SO 109 ° 0 min 0,000 mm 0,0 UV-I 0 W/m² -0,4 °C 1,6 km/h (1 Bft)
13.10.2016 03:50 0,2 °C 0,3 °C 96 % 1015,8 hPa 0,0 mm 0,9 km/h (0 Bft) O-SO 109 ° 0 min 0,000 mm 0,0 UV-I 0 W/m² -0,4 °C 1,6 km/h (1 Bft)
13.10.2016 03:51 0,2 °C 0,2 °C 96 % 1015,8 hPa 0,0 mm 1,6 km/h (1 Bft) O-SO 109 ° 0 min 0,000 mm 0,0 UV-I 0 W/m² -0,4 °C 3,2 km/h (1 Bft)
13.10.2016 03:52 0,2 °C 0,3 °C 96 % 1015,8 hPa 0,0 mm 0,7 km/h (0 Bft) O-SO 109 ° 0 min 0,000 mm 0,0 UV-I 0 W/m² -0,4 °C 1,6 km/h (1 Bft)
13.10.2016 03:53 0,3 °C 0,3 °C 96 % 1015,8 hPa 0,0 mm 0,9 km/h (0 Bft) O-SO 109 ° 0 min 0,000 mm 0,0 UV-I 0 W/m² -0,3 °C 1,6 km/h (1 Bft)
13.10.2016 03:54 0,3 °C 0,3 °C 96 % 1015,8 hPa 0,0 mm 1,3 km/h (1 Bft) O-SO 109 ° 0 min 0,000 mm 0,0 UV-I 0 W/m² -0,3 °C 1,6 km/h (1 Bft)
13.10.2016 03:55 0,3 °C 0,3 °C 96 % 1015,8 hPa 0,0 mm 2,1 km/h (1 Bft) O-SO 109 ° 0 min 0,000 mm 0,0 UV-I 0 W/m² -0,3 °C 3,2 km/h (1 Bft)
13.10.2016 03:56 0,3 °C 0,3 °C 96 % 1015,8 hPa 0,0 mm 1,6 km/h (1 Bft) O-SO 109 ° 0 min 0,000 mm 0,0 UV-I 0 W/m² -0,3 °C 1,6 km/h (1 Bft)
13.10.2016 03:57 0,3 °C 0,3 °C 96 % 1015,8 hPa 0,0 mm 0,1 km/h (0 Bft) O-SO 109 ° 0 min 0,000 mm 0,0 UV-I 0 W/m² -0,3 °C 1,6 km/h (1 Bft)
13.10.2016 03:58 0,3 °C 0,3 °C 96 % 1015,8 hPa 0,0 mm 0,0 km/h (0 Bft) O-SO 109 ° 0 min 0,000 mm 0,0 UV-I 0 W/m² -0,3 °C 0,0 km/h (0 Bft)
13.10.2016 03:59 0,3 °C 0,3 °C 96 % 1015,7 hPa 0,0 mm 0,0 km/h (0 Bft) O-SO 109 ° 0 min 0,000 mm 0,0 UV-I 0 W/m² -0,3 °C 0,0 km/h (0 Bft)
13.10.2016 04:00 0,3 °C 0,4 °C 96 % 1015,7 hPa 0,0 mm 0,0 km/h (0 Bft) O-SO 109 ° 0 min 0,000 mm 0,0 UV-I 0 W/m² -0,3 °C 0,0 km/h (0 Bft)
13.10.2016 04:01 0,3 °C 0,4 °C 96 % 1015,8 hPa 0,0 mm 0,1 km/h (0 Bft) O-SO 109 ° 0 min 0,000 mm 0,0 UV-I 0 W/m² -0,3 °C 1,6 km/h (1 Bft)
13.10.2016 04:02 0,4 °C 0,4 °C 96 % 1015,7 hPa 0,0 mm 1,6 km/h (1 Bft) O-SO 109 ° 0 min 0,000 mm 0,0 UV-I 0 W/m² -0,2 °C 3,2 km/h (1 Bft)
13.10.2016 04:04 0,4 °C 0,4 °C 96 % 1015,8 hPa 0,0 mm 2,6 km/h (1 Bft) O-SO 109 ° 0 min 0,000 mm 0,0 UV-I 0 W/m² -0,2 °C 3,2 km/h (1 Bft)
13.10.2016 04:05 0,4 °C 0,4 °C 96 % 1015,8 hPa 0,0 mm 0,0 km/h (0 Bft) O-SO 109 ° 0 min 0,000 mm 0,0 UV-I 0 W/m² -0,2 °C 0,0 km/h (0 Bft)
13.10.2016 04:06 0,4 °C 0,4 °C 96 % 1015,7 hPa 0,0 mm 0,0 km/h (0 Bft) O-SO 109 ° 0 min 0,000 mm 0,0 UV-I 0 W/m² -0,2 °C 0,0 km/h (0 Bft)
13.10.2016 04:07 0,5 °C 0,5 °C 96 % 1015,7 hPa 0,0 mm 0,0 km/h (0 Bft) O-SO 109 ° 0 min 0,000 mm 0,0 UV-I 0 W/m² -0,1 °C 0,0 km/h (0 Bft)
13.10.2016 04:08 0,5 °C 0,5 °C 96 % 1015,7 hPa 0,0 mm 0,4 km/h (0 Bft) O-SO 109 ° 0 min 0,000 mm 0,0 UV-I 0 W/m² -0,1 °C 1,6 km/h (1 Bft)
13.10.2016 04:09 0,6 °C 0,6 °C 96 % 1015,7 hPa 0,0 mm 1,1 km/h (1 Bft) O-SO 109 ° 0 min 0,000 mm 0,0 UV-I 0 W/m² 0,0 °C 1,6 km/h (1 Bft)
13.10.2016 04:10 0,6 °C 0,6 °C 96 % 1015,7 hPa 0,0 mm 0,0 km/h (0 Bft) O-SO 109 ° 0 min 0,000 mm 0,0 UV-I 0 W/m² 0,0 °C 0,0 km/h (0 Bft)
13.10.2016 04:11 0,6 °C 0,6 °C 96 % 1015,7 hPa 0,0 mm 0,0 km/h (0 Bft) O-SO 109 ° 0 min 0,000 mm 0,0 UV-I 0 W/m² 0,0 °C 0,0 km/h (0 Bft)
13.10.2016 04:12 0,6 °C 0,6 °C 96 % 1015,7 hPa 0,0 mm 0,0 km/h (0 Bft) O-SO 109 ° 0 min 0,000 mm 0,0 UV-I 0 W/m² 0,0 °C 0,0 km/h (0 Bft)
13.10.2016 04:13 0,6 °C 0,6 °C 96 % 1015,6 hPa 0,0 mm 0,0 km/h (0 Bft) O-SO 109 ° 0 min 0,000 mm 0,0 UV-I 0 W/m² 0,0 °C 0,0 km/h (0 Bft)
13.10.2016 04:14 0,6 °C 0,6 °C 96 % 1015,6 hPa 0,0 mm 0,6 km/h (0 Bft) O-SO 109 ° 0 min 0,000 mm 0,0 UV-I 0 W/m² 0,0 °C 1,6 km/h (1 Bft)
13.10.2016 04:15 0,6 °C 0,6 °C 96 % 1015,6 hPa 0,0 mm 0,3 km/h (0 Bft) O-SO 109 ° 0 min 0,000 mm 0,0 UV-I 0 W/m² 0,0 °C 1,6 km/h (1 Bft)
13.10.2016 04:16 0,6 °C 0,6 °C 96 % 1015,6 hPa 0,0 mm 0,8 km/h (0 Bft) O-SO 109 ° 0 min 0,000 mm 0,0 UV-I 0 W/m² 0,0 °C 1,6 km/h (1 Bft)
13.10.2016 04:17 0,7 °C 0,7 °C 96 % 1015,6 hPa 0,0 mm 2,1 km/h (1 Bft) O-SO 102 ° 0 min 0,000 mm 0,0 UV-I 0 W/m² 0,1 °C 3,2 km/h (1 Bft)
13.10.2016 04:18 0,6 °C 0,7 °C 96 % 1015,6 hPa 0,0 mm 2,3 km/h (1 Bft) O-SO 102 ° 0 min 0,000 mm 0,0 UV-I 0 W/m² 0,0 °C 3,2 km/h (1 Bft)
13.10.2016 04:19 0,6 °C 0,7 °C 96 % 1015,6 hPa 0,0 mm 2,8 km/h (1 Bft) O 86 ° 0 min 0,000 mm 0,0 UV-I 0 W/m² 0,0 °C 4,8 km/h (1 Bft)
13.10.2016 04:20 0,6 °C 0,6 °C 96 % 1015,6 hPa 0,0 mm 2,0 km/h (1 Bft) O 86 ° 0 min 0,000 mm 0,0 UV-I 0 W/m² 0,0 °C 3,2 km/h (1 Bft)
13.10.2016 04:21 0,5 °C 0,6 °C 96 % 1015,6 hPa 0,0 mm 3,2 km/h (1 Bft) NO 41 ° 0 min 0,000 mm 0,0 UV-I 0 W/m² -0,1 °C 4,8 km/h (1 Bft)
13.10.2016 04:22 0,5 °C 0,5 °C 96 % 1015,5 hPa 0,0 mm 2,8 km/h (1 Bft) N-NW 332 ° 0 min 0,000 mm 0,0 UV-I 0 W/m² -0,1 °C 3,2 km/h (1 Bft)
13.10.2016 04:23 0,5 °C 0,5 °C 96 % 1015,5 hPa 0,0 mm 2,3 km/h (1 Bft) N-NW 332 ° 0 min 0,000 mm 0,0 UV-I 0 W/m² -0,1 °C 3,2 km/h (1 Bft)
13.10.2016 04:24 0,4 °C 0,5 °C 96 % 1015,5 hPa 0,0 mm 1,0 km/h (0 Bft) N-NW 332 ° 0 min 0,000 mm 0,0 UV-I 0 W/m² -0,2 °C 3,2 km/h (1 Bft)
13.10.2016 04:25 0,4 °C 0,4 °C 96 % 1015,5 hPa 0,0 mm 1,1 km/h (1 Bft) N-NW 332 ° 0 min 0,000 mm 0,0 UV-I 0 W/m² -0,2 °C 1,6 km/h (1 Bft)
13.10.2016 04:26 0,3 °C 0,4 °C 96 % 1015,5 hPa 0,0 mm 1,5 km/h (1 Bft) N-NW 332 ° 0 min 0,000 mm 0,0 UV-I 0 W/m² -0,3 °C 1,6 km/h (1 Bft)
13.10.2016 04:27 0,3 °C 0,3 °C 96 % 1015,5 hPa 0,0 mm 1,1 km/h (1 Bft) N-NW 332 ° 0 min 0,000 mm 0,0 UV-I 0 W/m² -0,3 °C 1,6 km/h (1 Bft)
13.10.2016 04:28 0,3 °C 0,3 °C 96 % 1015,4 hPa 0,0 mm 0,0 km/h (0 Bft) N-NW 332 ° 0 min 0,000 mm 0,0 UV-I 0 W/m² -0,3 °C 0,0 km/h (0 Bft)
13.10.2016 04:29 0,3 °C 0,3 °C 96 % 1015,4 hPa 0,0 mm 0,0 km/h (0 Bft) N-NW 332 ° 0 min 0,000 mm 0,0 UV-I 0 W/m² -0,3 °C 0,0 km/h (0 Bft)
13.10.2016 04:30 0,3 °C 0,3 °C 96 % 1015,4 hPa 0,0 mm 0,0 km/h (0 Bft) N-NW 332 ° 0 min 0,000 mm 0,0 UV-I 0 W/m² -0,3 °C 0,0 km/h (0 Bft)
13.10.2016 04:31 0,3 °C 0,3 °C 96 % 1015,4 hPa 0,0 mm 0,1 km/h (0 Bft) N-NW 332 ° 0 min 0,000 mm 0,0 UV-I 0 W/m² -0,3 °C 1,6 km/h (1 Bft)
13.10.2016 04:32 0,3 °C 0,3 °C 96 % 1015,4 hPa 0,0 mm 0,3 km/h (0 Bft) N-NW 332 ° 0 min 0,000 mm 0,0 UV-I 0 W/m² -0,3 °C 1,6 km/h (1 Bft)
13.10.2016 04:33 0,3 °C 0,3 °C 96 % 1015,4 hPa 0,0 mm 0,0 km/h (0 Bft) N-NW 332 ° 0 min 0,000 mm 0,0 UV-I 0 W/m² -0,3 °C 0,0 km/h (0 Bft)
13.10.2016 04:34 0,3 °C 0,3 °C 96 % 1015,4 hPa 0,0 mm 0,0 km/h (0 Bft) N-NW 332 ° 0 min 0,000 mm 0,0 UV-I 0 W/m² -0,3 °C 0,0 km/h (0 Bft)
13.10.2016 04:35 0,4 °C 0,4 °C 96 % 1015,4 hPa 0,0 mm 0,0 km/h (0 Bft) N-NW 332 ° 0 min 0,000 mm 0,0 UV-I 0 W/m² -0,2 °C 0,0 km/h (0 Bft)
13.10.2016 04:36 0,4 °C 0,4 °C 96 % 1015,4 hPa 0,0 mm 0,0 km/h (0 Bft) N-NW 332 ° 0 min 0,000 mm 0,0 UV-I 0 W/m² -0,2 °C 0,0 km/h (0 Bft)
13.10.2016 04:37 0,4 °C 0,4 °C 96 % 1015,4 hPa 0,0 mm 0,0 km/h (0 Bft) N-NW 332 ° 0 min 0,000 mm 0,0 UV-I 0 W/m² -0,2 °C 0,0 km/h (0 Bft)
13.10.2016 04:38 0,4 °C 0,4 °C 96 % 1015,4 hPa 0,0 mm 0,1 km/h (0 Bft) N-NW 332 ° 0 min 0,000 mm 0,0 UV-I 0 W/m² -0,2 °C 1,6 km/h (1 Bft)
13.10.2016 04:39 0,4 °C 0,4 °C 96 % 1015,5 hPa 0,0 mm 0,2 km/h (0 Bft) N-NW 332 ° 0 min 0,000 mm 0,0 UV-I 0 W/m² -0,2 °C 1,6 km/h (1 Bft)
13.10.2016 04:40 0,4 °C 0,4 °C 96 % 1015,5 hPa 0,0 mm 0,0 km/h (0 Bft) N-NW 332 ° 0 min 0,000 mm 0,0 UV-I 0 W/m² -0,2 °C 0,0 km/h (0 Bft)
13.10.2016 04:41 0,4 °C 0,4 °C 96 % 1015,4 hPa 0,0 mm 0,0 km/h (0 Bft) N-NW 332 ° 0 min 0,000 mm 0,0 UV-I 0 W/m² -0,2 °C 0,0 km/h (0 Bft)
13.10.2016 04:42 0,4 °C 0,4 °C 96 % 1015,4 hPa 0,0 mm 0,1 km/h (0 Bft) N-NW 332 ° 0 min 0,000 mm 0,0 UV-I 0 W/m² -0,2 °C 1,6 km/h (1 Bft)
13.10.2016 04:43 0,4 °C 0,4 °C 96 % 1015,4 hPa 0,0 mm 0,6 km/h (0 Bft) N-NW 332 ° 0 min 0,000 mm 0,0 UV-I 0 W/m² -0,2 °C 1,6 km/h (1 Bft)
13.10.2016 04:44 0,3 °C 0,4 °C 96 % 1015,4 hPa 0,0 mm 0,0 km/h (0 Bft) N-NW 332 ° 0 min 0,000 mm 0,0 UV-I 0 W/m² -0,3 °C 0,0 km/h (0 Bft)
13.10.2016 04:45 0,3 °C 0,3 °C 96 % 1015,4 hPa 0,0 mm 0,5 km/h (0 Bft) N-NW 332 ° 0 min 0,000 mm 0,0 UV-I 0 W/m² -0,3 °C 1,6 km/h (1 Bft)
13.10.2016 04:46 0,3 °C 0,3 °C 96 % 1015,4 hPa 0,0 mm 1,4 km/h (1 Bft) N-NW 332 ° 0 min 0,000 mm 0,0 UV-I 0 W/m² -0,3 °C 3,2 km/h (1 Bft)
13.10.2016 04:47 0,3 °C 0,3 °C 96 % 1015,4 hPa 0,0 mm 1,8 km/h (1 Bft) N-NW 329 ° 0 min 0,000 mm 0,0 UV-I 0 W/m² -0,3 °C 3,2 km/h (1 Bft)
13.10.2016 04:48 0,2 °C 0,3 °C 96 % 1015,4 hPa 0,0 mm 3,8 km/h (1 Bft) W-SW 243 ° 0 min 0,000 mm 0,0 UV-I 0 W/m² -0,4 °C 4,8 km/h (1 Bft)
13.10.2016 04:49 0,2 °C 0,2 °C 96 % 1015,4 hPa 0,0 mm 2,1 km/h (1 Bft) W-SW 243 ° 0 min 0,000 mm 0,0 UV-I 0 W/m² -0,4 °C 3,2 km/h (1 Bft)
13.10.2016 04:50 0,1 °C 0,2 °C 96 % 1015,4 hPa 0,0 mm 1,7 km/h (1 Bft) W-SW 243 ° 0 min 0,000 mm 0,0 UV-I 0 W/m² -0,5 °C 3,2 km/h (1 Bft)
13.10.2016 04:51 0,1 °C 0,1 °C 96 % 1015,5 hPa 0,0 mm 1,5 km/h (1 Bft) W-SW 243 ° 0 min 0,000 mm 0,0 UV-I 0 W/m² -0,5 °C 3,2 km/h (1 Bft)
13.10.2016 04:52 0,0 °C 0,1 °C 96 % 1015,5 hPa 0,0 mm 2,6 km/h (1 Bft) W-SW 243 ° 0 min 0,000 mm 0,0 UV-I 0 W/m² -0,6 °C 3,2 km/h (1 Bft)
13.10.2016 04:53 0,0 °C 0,1 °C 96 % 1015,5 hPa 0,0 mm 2,8 km/h (1 Bft) W-SW 243 ° 0 min 0,000 mm 0,0 UV-I 0 W/m² -0,6 °C 3,2 km/h (1 Bft)
13.10.2016 04:54 0,0 °C 0,0 °C 96 % 1015,5 hPa 0,0 mm 3,4 km/h (1 Bft) SW 221 ° 0 min 0,000 mm 0,0 UV-I 0 W/m² -0,6 °C 4,8 km/h (1 Bft)
13.10.2016 04:55 -0,1 °C 0,0 °C 96 % 1015,5 hPa 0,0 mm 1,6 km/h (1 Bft) SW 221 ° 0 min 0,000 mm 0,0 UV-I 0 W/m² -0,7 °C 1,6 km/h (1 Bft)
13.10.2016 04:56 -0,1 °C 0,0 °C 96 % 1015,5 hPa 0,0 mm 0,4 km/h (0 Bft) SW 221 ° 0 min 0,000 mm 0,0 UV-I 0 W/m² -0,7 °C 1,6 km/h (1 Bft)
13.10.2016 04:57 -0,1 °C -0,1 °C 96 % 1015,5 hPa 0,0 mm 3,4 km/h (1 Bft) SW 221 ° 0 min 0,000 mm 0,0 UV-I 0 W/m² -0,7 °C 4,8 km/h (1 Bft)
13.10.2016 04:58 -0,1 °C -0,1 °C 96 % 1015,5 hPa 0,0 mm 4,5 km/h (1 Bft) SW 214 ° 0 min 0,000 mm 0,0 UV-I 0 W/m² -0,7 °C 4,8 km/h (1 Bft)
13.10.2016 04:59 -0,1 °C -0,1 °C 96 % 1015,5 hPa 0,0 mm 4,0 km/h (1 Bft) S-SW 213 ° 0 min 0,000 mm 0,0 UV-I 0 W/m² -0,7 °C 4,8 km/h (1 Bft)
13.10.2016 05:00 -0,1 °C -0,1 °C 96 % 1015,5 hPa 0,0 mm 3,7 km/h (1 Bft) S-SW 195 ° 0 min 0,000 mm 0,0 UV-I 0 W/m² -0,7 °C 4,8 km/h (1 Bft)
13.10.2016 05:01 -0,1 °C -0,1 °C 96 % 1015,6 hPa 0,0 mm 2,3 km/h (1 Bft) S-SW 195 ° 0 min 0,000 mm 0,0 UV-I 0 W/m² -0,7 °C 3,2 km/h (1 Bft)
13.10.2016 05:02 -0,1 °C -0,1 °C 96 % 1015,6 hPa 0,0 mm 3,2 km/h (1 Bft) S-SW 195 ° 0 min 0,000 mm 0,0 UV-I 0 W/m² -0,7 °C 3,2 km/h (1 Bft)
13.10.2016 05:03 -0,1 °C -0,1 °C 96 % 1015,6 hPa 0,0 mm 1,9 km/h (1 Bft) S-SW 195 ° 0 min 0,000 mm 0,0 UV-I 0 W/m² -0,7 °C 3,2 km/h (1 Bft)
13.10.2016 05:04 -0,2 °C -0,1 °C 96 % 1015,5 hPa 0,0 mm 1,9 km/h (1 Bft) S-SW 195 ° 0 min 0,000 mm 0,0 UV-I 0 W/m² -0,8 °C 3,2 km/h (1 Bft)
13.10.2016 05:05 -0,2 °C -0,2 °C 96 % 1015,5 hPa 0,0 mm 1,9 km/h (1 Bft) S-SW 195 ° 0 min 0,000 mm 0,0 UV-I 0 W/m² -0,8 °C 3,2 km/h (1 Bft)
13.10.2016 05:06 -0,2 °C -0,1 °C 96 % 1015,5 hPa 0,0 mm 1,9 km/h (1 Bft) S-SW 195 ° 0 min 0,000 mm 0,0 UV-I 0 W/m² -0,8 °C 3,2 km/h (1 Bft)
13.10.2016 05:07 -0,2 °C -0,2 °C 96 % 1015,5 hPa 0,0 mm 0,9 km/h (0 Bft) S-SW 195 ° 0 min 0,000 mm 0,0 UV-I 0 W/m² -0,8 °C 1,6 km/h (1 Bft)
13.10.2016 05:08 -0,2 °C -0,2 °C 96 % 1015,5 hPa 0,0 mm 1,1 km/h (1 Bft) S-SW 195 ° 0 min 0,000 mm 0,0 UV-I 0 W/m² -0,8 °C 1,6 km/h (1 Bft)
13.10.2016 05:09 -0,2 °C -0,2 °C 96 % 1015,5 hPa 0,0 mm 0,7 km/h (0 Bft) S-SW 195 ° 0 min 0,000 mm 0,0 UV-I 0 W/m² -0,8 °C 1,6 km/h (1 Bft)
13.10.2016 05:10 -0,2 °C -0,2 °C 96 % 1015,5 hPa 0,0 mm 0,8 km/h (0 Bft) S-SW 195 ° 0 min 0,000 mm 0,0 UV-I 0 W/m² -0,8 °C 1,6 km/h (1 Bft)
13.10.2016 05:11 -0,2 °C -0,2 °C 96 % 1015,5 hPa 0,0 mm 0,7 km/h (0 Bft) S-SW 195 ° 0 min 0,000 mm 0,0 UV-I 0 W/m² -0,8 °C 3,2 km/h (1 Bft)
13.10.2016 05:12 -0,2 °C -0,2 °C 96 % 1015,5 hPa 0,0 mm 1,4 km/h (1 Bft) S-SW 195 ° 0 min 0,000 mm 0,0 UV-I 0 W/m² -0,8 °C 1,6 km/h (1 Bft)
13.10.2016 05:13 -0,1 °C -0,1 °C 96 % 1015,5 hPa 0,0 mm 2,6 km/h (1 Bft) S-SW 195 ° 0 min 0,000 mm 0,0 UV-I 0 W/m² -0,7 °C 3,2 km/h (1 Bft)
13.10.2016 05:14 -0,2 °C -0,1 °C 96 % 1015,5 hPa 0,0 mm 1,3 km/h (1 Bft) S-SW 195 ° 0 min 0,000 mm 0,0 UV-I 0 W/m² -0,8 °C 1,6 km/h (1 Bft)
13.10.2016 05:15 -0,2 °C -0,1 °C 96 % 1015,5 hPa 0,0 mm 1,8 km/h (1 Bft) S-SW 195 ° 0 min 0,000 mm 0,0 UV-I 0 W/m² -0,8 °C 3,2 km/h (1 Bft)
13.10.2016 05:16 -0,1 °C -0,1 °C 96 % 1015,5 hPa 0,0 mm 1,0 km/h (0 Bft) S-SW 195 ° 0 min 0,000 mm 0,0 UV-I 0 W/m² -0,7 °C 1,6 km/h (1 Bft)
13.10.2016 05:17 -0,1 °C -0,1 °C 96 % 1015,5 hPa 0,0 mm 0,5 km/h (0 Bft) S-SW 195 ° 0 min 0,000 mm 0,0 UV-I 0 W/m² -0,7 °C 1,6 km/h (1 Bft)
13.10.2016 05:18 -0,1 °C -0,1 °C 96 % 1015,5 hPa 0,0 mm 1,9 km/h (1 Bft) S-SW 195 ° 0 min 0,000 mm 0,0 UV-I 0 W/m² -0,7 °C 3,2 km/h (1 Bft)
13.10.2016 05:19 -0,1 °C -0,1 °C 96 % 1015,5 hPa 0,0 mm 0,9 km/h (0 Bft) S-SW 195 ° 0 min 0,000 mm 0,0 UV-I 0 W/m² -0,7 °C 3,2 km/h (1 Bft)
13.10.2016 05:20 -0,1 °C -0,1 °C 96 % 1015,5 hPa 0,0 mm 1,0 km/h (0 Bft) S-SW 195 ° 0 min 0,000 mm 0,0 UV-I 0 W/m² -0,7 °C 1,6 km/h (1 Bft)
13.10.2016 05:21 -0,1 °C -0,1 °C 96 % 1015,5 hPa 0,0 mm 1,5 km/h (1 Bft) S-SW 195 ° 0 min 0,000 mm 0,0 UV-I 0 W/m² -0,7 °C 3,2 km/h (1 Bft)
13.10.2016 05:22 -0,1 °C -0,1 °C 96 % 1015,4 hPa 0,0 mm 0,7 km/h (0 Bft) S-SW 195 ° 0 min 0,000 mm 0,0 UV-I 0 W/m² -0,7 °C 1,6 km/h (1 Bft)
13.10.2016 05:23 -0,1 °C -0,1 °C 96 % 1015,4 hPa 0,0 mm 1,3 km/h (1 Bft) S-SW 195 ° 0 min 0,000 mm 0,0 UV-I 0 W/m² -0,7 °C 1,6 km/h (1 Bft)
13.10.2016 05:24 -0,1 °C -0,1 °C 96 % 1015,4 hPa 0,0 mm 1,4 km/h (1 Bft) S-SW 195 ° 0 min 0,000 mm 0,0 UV-I 0 W/m² -0,7 °C 3,2 km/h (1 Bft)
13.10.2016 05:25 -0,1 °C -0,1 °C 96 % 1015,4 hPa 0,0 mm 1,7 km/h (1 Bft) S-SW 195 ° 0 min 0,000 mm 0,0 UV-I 0 W/m² -0,7 °C 3,2 km/h (1 Bft)
13.10.2016 05:26 -0,1 °C -0,1 °C 96 % 1015,4 hPa 0,0 mm 0,7 km/h (0 Bft) S-SW 195 ° 0 min 0,000 mm 0,0 UV-I 0 W/m² -0,7 °C 1,6 km/h (1 Bft)
13.10.2016 05:27 -0,1 °C -0,1 °C 96 % 1015,4 hPa 0,0 mm 0,0 km/h (0 Bft) S-SW 195 ° 0 min 0,000 mm 0,0 UV-I 0 W/m² -0,7 °C 0,0 km/h (0 Bft)
13.10.2016 05:28 -0,1 °C -0,1 °C 96 % 1015,4 hPa 0,0 mm 0,0 km/h (0 Bft) S-SW 195 ° 0 min 0,000 mm 0,0 UV-I 0 W/m² -0,7 °C 0,0 km/h (0 Bft)
13.10.2016 05:29 -0,1 °C -0,1 °C 96 % 1015,4 hPa 0,0 mm 0,8 km/h (0 Bft) S-SW 195 ° 0 min 0,000 mm 0,0 UV-I 0 W/m² -0,7 °C 1,6 km/h (1 Bft)
13.10.2016 05:30 -0,1 °C -0,1 °C 96 % 1015,4 hPa 0,0 mm 1,1 km/h (1 Bft) S-SW 195 ° 0 min 0,000 mm 0,0 UV-I 0 W/m² -0,7 °C 1,6 km/h (1 Bft)
13.10.2016 05:31 -0,1 °C -0,1 °C 96 % 1015,4 hPa 0,0 mm 1,1 km/h (1 Bft) S-SW 195 ° 0 min 0,000 mm 0,0 UV-I 0 W/m² -0,7 °C 3,2 km/h (1 Bft)
13.10.2016 05:32 -0,2 °C -0,1 °C 96 % 1015,4 hPa 0,0 mm 0,6 km/h (0 Bft) S-SW 195 ° 0 min 0,000 mm 0,0 UV-I 0 W/m² -0,8 °C 1,6 km/h (1 Bft)
13.10.2016 05:33 -0,2 °C -0,2 °C 96 % 1015,4 hPa 0,0 mm 0,9 km/h (0 Bft) S-SW 195 ° 0 min 0,000 mm 0,0 UV-I 0 W/m² -0,8 °C 1,6 km/h (1 Bft)
13.10.2016 05:34 -0,2 °C -0,2 °C 96 % 1015,3 hPa 0,0 mm 2,0 km/h (1 Bft) S-SW 196 ° 0 min 0,000 mm 0,0 UV-I 0 W/m² -0,8 °C 3,2 km/h (1 Bft)
13.10.2016 05:35 -0,2 °C -0,2 °C 96 % 1015,4 hPa 0,0 mm 1,8 km/h (1 Bft) S-SW 196 ° 0 min 0,000 mm 0,0 UV-I 0 W/m² -0,8 °C 3,2 km/h (1 Bft)
13.10.2016 05:36 -0,2 °C -0,2 °C 96 % 1015,4 hPa 0,0 mm 1,6 km/h (1 Bft) S-SW 196 ° 0 min 0,000 mm 0,0 UV-I 0 W/m² -0,8 °C 3,2 km/h (1 Bft)
13.10.2016 05:37 -0,3 °C -0,2 °C 96 % 1015,4 hPa 0,0 mm 0,8 km/h (0 Bft) S-SW 196 ° 0 min 0,000 mm 0,0 UV-I 0 W/m² -0,9 °C 1,6 km/h (1 Bft)
13.10.2016 05:38 -0,3 °C -0,3 °C 96 % 1015,3 hPa 0,0 mm 0,8 km/h (0 Bft) S-SW 196 ° 0 min 0,000 mm 0,0 UV-I 0 W/m² -0,9 °C 1,6 km/h (1 Bft)
13.10.2016 05:39 -0,4 °C -0,3 °C 96 % 1015,3 hPa 0,0 mm 0,5 km/h (0 Bft) S-SW 196 ° 0 min 0,000 mm 0,0 UV-I 0 W/m² -1,0 °C 1,6 km/h (1 Bft)
13.10.2016 05:40 -0,4 °C -0,4 °C 96 % 1015,3 hPa 0,0 mm 1,2 km/h (1 Bft) S-SW 196 ° 0 min 0,000 mm 0,0 UV-I 0 W/m² -1,0 °C 1,6 km/h (1 Bft)
13.10.2016 05:41 -0,5 °C -0,4 °C 96 % 1015,3 hPa 0,0 mm 0,1 km/h (0 Bft) S-SW 196 ° 0 min 0,000 mm 0,0 UV-I 0 W/m² -1,1 °C 1,6 km/h (1 Bft)
13.10.2016 05:42 -0,6 °C -0,5 °C 96 % 1015,2 hPa 0,0 mm 1,3 km/h (1 Bft) S-SW 196 ° 0 min 0,000 mm 0,0 UV-I 0 W/m² -1,2 °C 1,6 km/h (1 Bft)
13.10.2016 05:43 -0,6 °C -0,6 °C 96 % 1015,3 hPa 0,0 mm 0,3 km/h (0 Bft) S-SW 196 ° 0 min 0,000 mm 0,0 UV-I 0 W/m² -1,2 °C 1,6 km/h (1 Bft)
13.10.2016 05:44 -0,6 °C -0,6 °C 96 % 1015,2 hPa 0,0 mm 0,7 km/h (0 Bft) S-SW 196 ° 0 min 0,000 mm 0,0 UV-I 0 W/m² -1,2 °C 1,6 km/h (1 Bft)
13.10.2016 05:45 -0,6 °C -0,6 °C 96 % 1015,3 hPa 0,0 mm 0,2 km/h (0 Bft) S-SW 196 ° 0 min 0,000 mm 0,0 UV-I 0 W/m² -1,2 °C 1,6 km/h (1 Bft)
13.10.2016 05:46 -0,7 °C -0,6 °C 96 % 1015,2 hPa 0,0 mm 0,2 km/h (0 Bft) S-SW 196 ° 0 min 0,000 mm 0,0 UV-I 0 W/m² -1,3 °C 1,6 km/h (1 Bft)
13.10.2016 05:47 -0,7 °C -0,7 °C 96 % 1015,2 hPa 0,0 mm 1,8 km/h (1 Bft) S-SW 196 ° 0 min 0,000 mm 0,0 UV-I 0 W/m² -1,3 °C 3,2 km/h (1 Bft)
13.10.2016 05:48 -0,7 °C -0,7 °C 96 % 1015,2 hPa 0,0 mm 2,4 km/h (1 Bft) S-SW 196 ° 0 min 0,000 mm 0,0 UV-I 0 W/m² -1,3 °C 3,2 km/h (1 Bft)
13.10.2016 05:49 -0,8 °C -0,7 °C 96 % 1015,2 hPa 0,0 mm 2,1 km/h (1 Bft) S-SW 196 ° 0 min 0,000 mm 0,0 UV-I 0 W/m² -1,4 °C 3,2 km/h (1 Bft)
13.10.2016 05:50 -0,8 °C -0,7 °C 96 % 1015,2 hPa 0,0 mm 2,0 km/h (1 Bft) S-SW 196 ° 0 min 0,000 mm 0,0 UV-I 0 W/m² -1,4 °C 3,2 km/h (1 Bft)
13.10.2016 05:51 -0,8 °C -0,8 °C 96 % 1015,2 hPa 0,0 mm 1,8 km/h (1 Bft) S-SW 196 ° 0 min 0,000 mm 0,0 UV-I 0 W/m² -1,4 °C 3,2 km/h (1 Bft)
13.10.2016 05:52 -0,8 °C -0,8 °C 96 % 1015,2 hPa 0,0 mm 1,3 km/h (1 Bft) S-SW 196 ° 0 min 0,000 mm 0,0 UV-I 0 W/m² -1,4 °C 1,6 km/h (1 Bft)
13.10.2016 05:53 -0,9 °C -0,8 °C 96 % 1015,2 hPa 0,0 mm 1,6 km/h (1 Bft) S-SW 196 ° 0 min 0,000 mm 0,0 UV-I 0 W/m² -1,5 °C 3,2 km/h (1 Bft)
13.10.2016 05:54 -0,9 °C -0,9 °C 96 % 1015,1 hPa 0,0 mm 1,5 km/h (1 Bft) S-SW 196 ° 0 min 0,000 mm 0,0 UV-I 0 W/m² -1,5 °C 1,6 km/h (1 Bft)
13.10.2016 05:55 -0,9 °C -0,9 °C 96 % 1015,1 hPa 0,0 mm 1,2 km/h (1 Bft) S-SW 196 ° 0 min 0,000 mm 0,0 UV-I 0 W/m² -1,5 °C 1,6 km/h (1 Bft)
13.10.2016 05:56 -0,9 °C -0,9 °C 96 % 1015,1 hPa 0,0 mm 0,5 km/h (0 Bft) S-SW 196 ° 0 min 0,000 mm 0,0 UV-I 0 W/m² -1,5 °C 1,6 km/h (1 Bft)
13.10.2016 05:57 -0,9 °C -0,9 °C 96 % 1015,1 hPa 0,0 mm 0,0 km/h (0 Bft) S-SW 196 ° 0 min 0,000 mm 0,0 UV-I 0 W/m² -1,5 °C 0,0 km/h (0 Bft)
13.10.2016 05:58 -0,9 °C -0,9 °C 96 % 1015,1 hPa 0,0 mm 0,3 km/h (0 Bft) S-SW 196 ° 0 min 0,000 mm 0,0 UV-I 0 W/m² -1,5 °C 1,6 km/h (1 Bft)
13.10.2016 05:59 -0,9 °C -0,9 °C 96 % 1015,1 hPa 0,0 mm 1,9 km/h (1 Bft) S-SW 196 ° 0 min 0,000 mm 0,0 UV-I 0 W/m² -1,5 °C 3,2 km/h (1 Bft)
13.10.2016 06:00 -1,0 °C -0,9 °C 96 % 1015,1 hPa 0,0 mm 1,1 km/h (1 Bft) S-SW 196 ° 0 min 0,000 mm 0,0 UV-I 0 W/m² -1,6 °C 1,6 km/h (1 Bft)
13.10.2016 06:01 -1,1 °C -1,0 °C 96 % 1015,0 hPa 0,0 mm 0,7 km/h (0 Bft) S-SW 196 ° 0 min 0,000 mm 0,0 UV-I 0 W/m² -1,7 °C 1,6 km/h (1 Bft)
13.10.2016 06:02 -1,1 °C -1,1 °C 96 % 1015,0 hPa 0,0 mm 0,5 km/h (0 Bft) S-SW 196 ° 0 min 0,000 mm 0,0 UV-I 0 W/m² -1,7 °C 3,2 km/h (1 Bft)
13.10.2016 06:03 -1,2 °C -1,1 °C 96 % 1015,0 hPa 0,0 mm 1,5 km/h (1 Bft) S-SW 196 ° 0 min 0,000 mm 0,0 UV-I 0 W/m² -1,8 °C 3,2 km/h (1 Bft)
13.10.2016 06:04 -1,2 °C -1,1 °C 96 % 1015,0 hPa 0,0 mm 0,6 km/h (0 Bft) S-SW 196 ° 0 min 0,000 mm 0,0 UV-I 0 W/m² -1,8 °C 1,6 km/h (1 Bft)
13.10.2016 06:05 -1,2 °C -1,2 °C 96 % 1015,0 hPa 0,0 mm 0,1 km/h (0 Bft) S-SW 196 ° 0 min 0,000 mm 0,0 UV-I 0 W/m² -1,8 °C 1,6 km/h (1 Bft)
13.10.2016 06:06 -1,2 °C -1,2 °C 96 % 1015,0 hPa 0,0 mm 0,5 km/h (0 Bft) S-SW 196 ° 0 min 0,000 mm 0,0 UV-I 0 W/m² -1,8 °C 1,6 km/h (1 Bft)
13.10.2016 06:07 -1,2 °C -1,2 °C 96 % 1015,0 hPa 0,0 mm 0,1 km/h (0 Bft) S-SW 196 ° 0 min 0,000 mm 0,0 UV-I 0 W/m² -1,8 °C 1,6 km/h (1 Bft)
13.10.2016 06:08 -1,2 °C -1,2 °C 96 % 1015,0 hPa 0,0 mm 0,1 km/h (0 Bft) S-SW 196 ° 0 min 0,000 mm 0,0 UV-I 0 W/m² -1,8 °C 1,6 km/h (1 Bft)
13.10.2016 06:09 -1,2 °C -1,2 °C 96 % 1015,0 hPa 0,0 mm 0,0 km/h (0 Bft) S-SW 196 ° 0 min 0,000 mm 0,0 UV-I 0 W/m² -1,8 °C 0,0 km/h (0 Bft)
13.10.2016 06:10 -1,3 °C -1,2 °C 96 % 1015,0 hPa 0,0 mm 0,0 km/h (0 Bft) S-SW 196 ° 0 min 0,000 mm 0,0 UV-I 0 W/m² -1,9 °C 0,0 km/h (0 Bft)
13.10.2016 06:11 -1,3 °C -1,3 °C 96 % 1015,0 hPa 0,0 mm 0,0 km/h (0 Bft) S-SW 196 ° 0 min 0,000 mm 0,0 UV-I 0 W/m² -1,9 °C 0,0 km/h (0 Bft)
13.10.2016 06:12 -1,3 °C -1,3 °C 96 % 1015,1 hPa 0,0 mm 0,1 km/h (0 Bft) S-SW 196 ° 0 min 0,000 mm 0,0 UV-I 0 W/m² -1,9 °C 1,6 km/h (1 Bft)
13.10.2016 06:13 -1,4 °C -1,3 °C 96 % 1015,1 hPa 0,0 mm 0,0 km/h (0 Bft) S-SW 196 ° 0 min 0,000 mm 0,0 UV-I 0 W/m² -2,0 °C 0,0 km/h (0 Bft)
13.10.2016 06:14 -1,4 °C -1,4 °C 96 % 1015,0 hPa 0,0 mm 0,0 km/h (0 Bft) S-SW 196 ° 0 min 0,000 mm 0,0 UV-I 0 W/m² -2,0 °C 0,0 km/h (0 Bft)
13.10.2016 06:15 -1,4 °C -1,4 °C 96 % 1015,0 hPa 0,0 mm 0,0 km/h (0 Bft) S-SW 196 ° 0 min 0,000 mm 0,0 UV-I 0 W/m² -2,0 °C 0,0 km/h (0 Bft)
13.10.2016 06:16 -1,5 °C -1,4 °C 96 % 1015,0 hPa 0,0 mm 0,0 km/h (0 Bft) S-SW 196 ° 0 min 0,000 mm 0,0 UV-I 0 W/m² -2,1 °C 0,0 km/h (0 Bft)
13.10.2016 06:17 -1,5 °C -1,5 °C 96 % 1015,0 hPa 0,0 mm 0,0 km/h (0 Bft) S-SW 196 ° 0 min 0,000 mm 0,0 UV-I 0 W/m² -2,1 °C 0,0 km/h (0 Bft)
13.10.2016 06:18 -1,5 °C -1,5 °C 96 % 1015,0 hPa 0,0 mm 0,0 km/h (0 Bft) S-SW 196 ° 0 min 0,000 mm 0,0 UV-I 0 W/m² -2,1 °C 0,0 km/h (0 Bft)
13.10.2016 06:19 -1,6 °C -1,5 °C 96 % 1015,1 hPa 0,0 mm 0,4 km/h (0 Bft) S-SW 196 ° 0 min 0,000 mm 0,0 UV-I 0 W/m² -2,2 °C 1,6 km/h (1 Bft)
13.10.2016 06:20 -1,5 °C -1,5 °C 96 % 1015,1 hPa 0,0 mm 0,0 km/h (0 Bft) S-SW 196 ° 0 min 0,000 mm 0,0 UV-I 0 W/m² -2,1 °C 0,0 km/h (0 Bft)
13.10.2016 06:21 -1,6 °C -1,5 °C 96 % 1015,1 hPa 0,0 mm 0,5 km/h (0 Bft) S-SW 196 ° 0 min 0,000 mm 0,0 UV-I 0 W/m² -2,2 °C 1,6 km/h (1 Bft)
13.10.2016 06:22 -1,6 °C -1,6 °C 96 % 1015,1 hPa 0,0 mm 0,8 km/h (0 Bft) S-SW 196 ° 0 min 0,000 mm 0,0 UV-I 0 W/m² -2,2 °C 1,6 km/h (1 Bft)
13.10.2016 06:23 -1,6 °C -1,6 °C 96 % 1015,1 hPa 0,0 mm 0,1 km/h (0 Bft) S-SW 196 ° 0 min 0,000 mm 0,0 UV-I 0 W/m² -2,2 °C 1,6 km/h (1 Bft)
13.10.2016 06:24 -1,5 °C -1,5 °C 96 % 1015,1 hPa 0,0 mm 0,6 km/h (0 Bft) S-SW 196 ° 0 min 0,000 mm 0,0 UV-I 0 W/m² -2,1 °C 1,6 km/h (1 Bft)
13.10.2016 06:25 -1,6 °C -1,5 °C 96 % 1015,1 hPa 0,0 mm 0,2 km/h (0 Bft) S-SW 196 ° 0 min 0,000 mm 0,0 UV-I 0 W/m² -2,2 °C 1,6 km/h (1 Bft)
13.10.2016 06:26 -1,6 °C -1,6 °C 96 % 1015,1 hPa 0,0 mm 0,0 km/h (0 Bft) S-SW 196 ° 0 min 0,000 mm 0,0 UV-I 0 W/m² -2,2 °C 0,0 km/h (0 Bft)
13.10.2016 06:27 -1,6 °C -1,6 °C 96 % 1015,1 hPa 0,0 mm 0,0 km/h (0 Bft) S-SW 196 ° 0 min 0,000 mm 0,0 UV-I 0 W/m² -2,2 °C 0,0 km/h (0 Bft)
13.10.2016 06:28 -1,7 °C -1,6 °C 96 % 1015,1 hPa 0,0 mm 0,0 km/h (0 Bft) S-SW 196 ° 0 min 0,000 mm 0,0 UV-I 0 W/m² -2,3 °C 0,0 km/h (0 Bft)
13.10.2016 06:29 -1,7 °C -1,7 °C 96 % 1015,1 hPa 0,0 mm 0,3 km/h (0 Bft) S-SW 196 ° 0 min 0,000 mm 0,0 UV-I 0 W/m² -2,3 °C 1,6 km/h (1 Bft)
13.10.2016 06:30 -1,7 °C -1,7 °C 96 % 1015,0 hPa 0,0 mm 0,0 km/h (0 Bft) S-SW 196 ° 0 min 0,000 mm 0,0 UV-I 0 W/m² -2,3 °C 0,0 km/h (0 Bft)
13.10.2016 06:31 -1,7 °C -1,7 °C 96 % 1015,0 hPa 0,0 mm 0,0 km/h (0 Bft) S-SW 196 ° 0 min 0,000 mm 0,0 UV-I 0 W/m² -2,3 °C 0,0 km/h (0 Bft)
13.10.2016 06:32 -1,7 °C -1,7 °C 96 % 1015,1 hPa 0,0 mm 0,0 km/h (0 Bft) S-SW 196 ° 0 min 0,000 mm 0,0 UV-I 0 W/m² -2,3 °C 0,0 km/h (0 Bft)
13.10.2016 06:33 -1,7 °C -1,7 °C 96 % 1015,1 hPa 0,0 mm 0,7 km/h (0 Bft) S-SW 196 ° 0 min 0,000 mm 0,0 UV-I 0 W/m² -2,3 °C 1,6 km/h (1 Bft)
13.10.2016 06:34 -1,8 °C -1,7 °C 96 % 1015,1 hPa 0,0 mm 0,0 km/h (0 Bft) S-SW 196 ° 0 min 0,000 mm 0,0 UV-I 0 W/m² -2,4 °C 0,0 km/h (0 Bft)
13.10.2016 06:35 -1,8 °C -1,8 °C 96 % 1015,1 hPa 0,0 mm 0,0 km/h (0 Bft) S-SW 196 ° 0 min 0,000 mm 0,0 UV-I 0 W/m² -2,4 °C 0,0 km/h (0 Bft)
13.10.2016 06:36 -1,8 °C -1,8 °C 96 % 1015,2 hPa 0,0 mm 0,0 km/h (0 Bft) S-SW 196 ° 0 min 0,000 mm 0,0 UV-I 0 W/m² -2,4 °C 0,0 km/h (0 Bft)
13.10.2016 06:37 -1,8 °C -1,8 °C 96 % 1015,2 hPa 0,0 mm 0,0 km/h (0 Bft) S-SW 196 ° 0 min 0,000 mm 0,0 UV-I 0 W/m² -2,4 °C 0,0 km/h (0 Bft)
13.10.2016 06:38 -1,7 °C -1,7 °C 96 % 1015,2 hPa 0,0 mm 0,2 km/h (0 Bft) S-SW 196 ° 0 min 0,000 mm 0,0 UV-I 0 W/m² -2,3 °C 1,6 km/h (1 Bft)
13.10.2016 06:39 -1,8 °C -1,7 °C 96 % 1015,2 hPa 0,0 mm 0,0 km/h (0 Bft) S-SW 196 ° 0 min 0,000 mm 0,0 UV-I 0 W/m² -2,4 °C 0,0 km/h (0 Bft)
13.10.2016 06:40 -1,7 °C -1,7 °C 96 % 1015,2 hPa 0,0 mm 0,0 km/h (0 Bft) S-SW 196 ° 0 min 0,000 mm 0,0 UV-I 0 W/m² -2,3 °C 0,0 km/h (0 Bft)
13.10.2016 06:41 -1,7 °C -1,7 °C 96 % 1015,2 hPa 0,0 mm 0,6 km/h (0 Bft) S-SW 196 ° 0 min 0,000 mm 0,0 UV-I 0 W/m² -2,3 °C 1,6 km/h (1 Bft)
13.10.2016 06:42 -1,7 °C -1,7 °C 96 % 1015,2 hPa 0,0 mm 1,2 km/h (1 Bft) S-SW 196 ° 0 min 0,000 mm 0,0 UV-I 0 W/m² -2,3 °C 1,6 km/h (1 Bft)
13.10.2016 06:43 -1,7 °C -1,6 °C 96 % 1015,2 hPa 0,0 mm 0,1 km/h (0 Bft) S-SW 196 ° 0 min 0,000 mm 0,0 UV-I 0 W/m² -2,3 °C 1,6 km/h (1 Bft)
13.10.2016 06:44 -1,6 °C -1,6 °C 96 % 1015,2 hPa 0,0 mm 0,0 km/h (0 Bft) S-SW 196 ° 0 min 0,000 mm 0,0 UV-I 0 W/m² -2,2 °C 0,0 km/h (0 Bft)
13.10.2016 06:45 -1,6 °C -1,6 °C 96 % 1015,2 hPa 0,0 mm 0,0 km/h (0 Bft) S-SW 196 ° 0 min 0,000 mm 0,0 UV-I 0 W/m² -2,2 °C 0,0 km/h (0 Bft)
13.10.2016 06:46 -1,6 °C -1,6 °C 96 % 1015,3 hPa 0,0 mm 0,1 km/h (0 Bft) S-SW 196 ° 0 min 0,000 mm 0,0 UV-I 0 W/m² -2,2 °C 1,6 km/h (1 Bft)
13.10.2016 06:47 -1,6 °C -1,6 °C 96 % 1015,3 hPa 0,0 mm 1,0 km/h (0 Bft) S-SW 196 ° 0 min 0,000 mm 0,0 UV-I 0 W/m² -2,2 °C 1,6 km/h (1 Bft)
13.10.2016 06:48 -1,6 °C -1,6 °C 96 % 1015,2 hPa 0,0 mm 0,3 km/h (0 Bft) S-SW 196 ° 0 min 0,000 mm 0,0 UV-I 0 W/m² -2,2 °C 1,6 km/h (1 Bft)
13.10.2016 06:49 -1,6 °C -1,6 °C 96 % 1015,2 hPa 0,0 mm 0,0 km/h (0 Bft) S-SW 196 ° 0 min 0,000 mm 0,0 UV-I 0 W/m² -2,2 °C 0,0 km/h (0 Bft)
13.10.2016 06:50 -1,6 °C -1,6 °C 96 % 1015,2 hPa 0,0 mm 0,0 km/h (0 Bft) S-SW 196 ° 0 min 0,000 mm 0,0 UV-I 0 W/m² -2,2 °C 0,0 km/h (0 Bft)
13.10.2016 06:51 -1,6 °C -1,6 °C 96 % 1015,2 hPa 0,0 mm 0,0 km/h (0 Bft) S-SW 196 ° 0 min 0,000 mm 0,0 UV-I 0 W/m² -2,2 °C 0,0 km/h (0 Bft)
13.10.2016 06:52 -1,6 °C -1,6 °C 96 % 1015,2 hPa 0,0 mm 0,0 km/h (0 Bft) S-SW 196 ° 0 min 0,000 mm 0,0 UV-I 0 W/m² -2,2 °C 0,0 km/h (0 Bft)
13.10.2016 06:53 -1,6 °C -1,6 °C 96 % 1015,2 hPa 0,0 mm 0,0 km/h (0 Bft) S-SW 196 ° 0 min 0,000 mm 0,0 UV-I 0 W/m² -2,2 °C 0,0 km/h (0 Bft)
13.10.2016 06:54 -1,6 °C -1,6 °C 96 % 1015,1 hPa 0,0 mm 0,1 km/h (0 Bft) S-SW 196 ° 0 min 0,000 mm 0,0 UV-I 0 W/m² -2,2 °C 1,6 km/h (1 Bft)
13.10.2016 06:55 -1,6 °C -1,6 °C 96 % 1015,2 hPa 0,0 mm 0,0 km/h (0 Bft) S-SW 196 ° 0 min 0,000 mm 0,0 UV-I 0 W/m² -2,2 °C 0,0 km/h (0 Bft)
13.10.2016 06:56 -1,6 °C -1,6 °C 96 % 1015,2 hPa 0,0 mm 0,0 km/h (0 Bft) S-SW 196 ° 0 min 0,000 mm 0,0 UV-I 0 W/m² -2,2 °C 0,0 km/h (0 Bft)
13.10.2016 06:57 -1,6 °C -1,6 °C 96 % 1015,1 hPa 0,0 mm 0,0 km/h (0 Bft) S-SW 196 ° 0 min 0,000 mm 0,0 UV-I 0 W/m² -2,2 °C 0,0 km/h (0 Bft)
13.10.2016 06:58 -1,6 °C -1,6 °C 96 % 1015,1 hPa 0,0 mm 0,1 km/h (0 Bft) S-SW 196 ° 0 min 0,000 mm 0,0 UV-I 0 W/m² -2,2 °C 1,6 km/h (1 Bft)
13.10.2016 06:59 -1,6 °C -1,6 °C 96 % 1015,1 hPa 0,0 mm 0,1 km/h (0 Bft) S-SW 196 ° 0 min 0,000 mm 0,0 UV-I 0 W/m² -2,2 °C 1,6 km/h (1 Bft)
13.10.2016 07:00 -1,6 °C -1,5 °C 96 % 1015,1 hPa 0,0 mm 0,6 km/h (0 Bft) S-SW 196 ° 0 min 0,000 mm 0,0 UV-I 0 W/m² -2,2 °C 1,6 km/h (1 Bft)
13.10.2016 07:01 -1,5 °C -1,5 °C 96 % 1015,1 hPa 0,0 mm 0,6 km/h (0 Bft) S-SW 196 ° 0 min 0,000 mm 0,0 UV-I 0 W/m² -2,1 °C 1,6 km/h (1 Bft)
13.10.2016 07:02 -1,6 °C -1,5 °C 96 % 1015,1 hPa 0,0 mm 0,1 km/h (0 Bft) S-SW 196 ° 0 min 0,000 mm 0,0 UV-I 0 W/m² -2,2 °C 1,6 km/h (1 Bft)
13.10.2016 07:03 -1,5 °C -1,5 °C 96 % 1015,1 hPa 0,0 mm 0,0 km/h (0 Bft) S-SW 196 ° 0 min 0,000 mm 0,0 UV-I 0 W/m² -2,1 °C 0,0 km/h (0 Bft)
13.10.2016 07:04 -1,5 °C -1,5 °C 96 % 1015,1 hPa 0,0 mm 0,0 km/h (0 Bft) S-SW 196 ° 0 min 0,000 mm 0,0 UV-I 0 W/m² -2,1 °C 0,0 km/h (0 Bft)
13.10.2016 07:05 -1,5 °C -1,5 °C 96 % 1015,2 hPa 0,0 mm 0,0 km/h (0 Bft) S-SW 196 ° 0 min 0,000 mm 0,0 UV-I 0 W/m² -2,1 °C 0,0 km/h (0 Bft)
13.10.2016 07:06 -1,5 °C -1,5 °C 96 % 1015,2 hPa 0,0 mm 0,0 km/h (0 Bft) S-SW 196 ° 0 min 0,000 mm 0,0 UV-I 0 W/m² -2,1 °C 0,0 km/h (0 Bft)
13.10.2016 07:07 -1,5 °C -1,5 °C 96 % 1015,1 hPa 0,0 mm 0,0 km/h (0 Bft) S-SW 196 ° 0 min 0,000 mm 0,0 UV-I 0 W/m² -2,1 °C 0,0 km/h (0 Bft)
13.10.2016 07:08 -1,5 °C -1,5 °C 96 % 1015,1 hPa 0,0 mm 0,0 km/h (0 Bft) S-SW 196 ° 0 min 0,000 mm 0,0 UV-I 0 W/m² -2,1 °C 0,0 km/h (0 Bft)
13.10.2016 07:09 -1,5 °C -1,5 °C 96 % 1015,1 hPa 0,0 mm 0,2 km/h (0 Bft) S-SW 196 ° 0 min 0,000 mm 0,0 UV-I 0 W/m² -2,1 °C 1,6 km/h (1 Bft)
13.10.2016 07:10 -1,4 °C -1,4 °C 96 % 1015,0 hPa 0,0 mm 0,6 km/h (0 Bft) S-SW 196 ° 0 min 0,000 mm 0,0 UV-I 0 W/m² -2,0 °C 1,6 km/h (1 Bft)
13.10.2016 07:11 -1,4 °C -1,4 °C 96 % 1015,1 hPa 0,0 mm 0,0 km/h (0 Bft) S-SW 196 ° 0 min 0,000 mm 0,0 UV-I 0 W/m² -2,0 °C 0,0 km/h (0 Bft)
13.10.2016 07:12 -1,4 °C -1,4 °C 96 % 1015,1 hPa 0,0 mm 0,0 km/h (0 Bft) S-SW 196 ° 0 min 0,000 mm 0,0 UV-I 0 W/m² -2,0 °C 0,0 km/h (0 Bft)
13.10.2016 07:13 -1,4 °C -1,4 °C 96 % 1015,1 hPa 0,0 mm 0,0 km/h (0 Bft) S-SW 196 ° 0 min 0,000 mm 0,0 UV-I 0 W/m² -2,0 °C 0,0 km/h (0 Bft)
13.10.2016 07:14 -1,4 °C -1,4 °C 96 % 1015,0 hPa 0,0 mm 0,6 km/h (0 Bft) S-SW 196 ° 0 min 0,000 mm 0,0 UV-I 0 W/m² -2,0 °C 1,6 km/h (1 Bft)
13.10.2016 07:15 -1,4 °C -1,4 °C 96 % 1015,0 hPa 0,0 mm 0,5 km/h (0 Bft) S-SW 196 ° 0 min 0,000 mm 0,0 UV-I 0 W/m² -2,0 °C 1,6 km/h (1 Bft)
13.10.2016 07:16 -1,4 °C -1,4 °C 96 % 1015,0 hPa 0,0 mm 0,7 km/h (0 Bft) S-SW 196 ° 0 min 0,000 mm 0,0 UV-I 0 W/m² -2,0 °C 1,6 km/h (1 Bft)
13.10.2016 07:17 -1,4 °C -1,4 °C 96 % 1015,0 hPa 0,0 mm 0,5 km/h (0 Bft) S-SW 196 ° 0 min 0,000 mm 0,0 UV-I 0 W/m² -2,0 °C 1,6 km/h (1 Bft)
13.10.2016 07:18 -1,3 °C -1,3 °C 96 % 1015,0 hPa 0,0 mm 0,2 km/h (0 Bft) S-SW 196 ° 0 min 0,000 mm 0,0 UV-I 0 W/m² -1,9 °C 1,6 km/h (1 Bft)
13.10.2016 07:19 -1,3 °C -1,3 °C 96 % 1015,0 hPa 0,0 mm 0,5 km/h (0 Bft) S-SW 196 ° 0 min 0,000 mm 0,0 UV-I 0 W/m² -1,9 °C 1,6 km/h (1 Bft)
13.10.2016 07:20 -1,3 °C -1,3 °C 96 % 1014,9 hPa 0,0 mm 1,1 km/h (1 Bft) S-SW 196 ° 0 min 0,000 mm 0,0 UV-I 0 W/m² -1,9 °C 1,6 km/h (1 Bft)
13.10.2016 07:21 -1,3 °C -1,3 °C 96 % 1015,0 hPa 0,0 mm 0,9 km/h (0 Bft) S-SW 196 ° 0 min 0,000 mm 0,0 UV-I 0 W/m² -1,9 °C 1,6 km/h (1 Bft)
13.10.2016 07:22 -1,3 °C -1,3 °C 96 % 1015,0 hPa 0,0 mm 0,4 km/h (0 Bft) S-SW 196 ° 0 min 0,000 mm 0,0 UV-I 0 W/m² -1,9 °C 1,6 km/h (1 Bft)
13.10.2016 07:23 -1,3 °C -1,3 °C 96 % 1015,0 hPa 0,0 mm 0,6 km/h (0 Bft) S-SW 196 ° 0 min 0,000 mm 0,0 UV-I 0 W/m² -1,9 °C 1,6 km/h (1 Bft)
13.10.2016 07:24 -1,3 °C -1,3 °C 96 % 1015,0 hPa 0,0 mm 0,6 km/h (0 Bft) S-SW 196 ° 0 min 0,000 mm 0,0 UV-I 0 W/m² -1,9 °C 1,6 km/h (1 Bft)
13.10.2016 07:25 -1,3 °C -1,3 °C 96 % 1015,0 hPa 0,0 mm 0,0 km/h (0 Bft) S-SW 196 ° 0 min 0,000 mm 0,0 UV-I 0 W/m² -1,9 °C 0,0 km/h (0 Bft)
13.10.2016 07:26 -1,4 °C -1,3 °C 96 % 1015,0 hPa 0,0 mm 0,6 km/h (0 Bft) S-SW 196 ° 0 min 0,000 mm 0,0 UV-I 0 W/m² -2,0 °C 1,6 km/h (1 Bft)
13.10.2016 07:27 -1,4 °C -1,4 °C 96 % 1015,0 hPa 0,0 mm 1,4 km/h (1 Bft) S-SW 196 ° 0 min 0,000 mm 0,0 UV-I 0 W/m² -2,0 °C 1,6 km/h (1 Bft)
13.10.2016 07:28 -1,3 °C -1,3 °C 96 % 1015,0 hPa 0,0 mm 1,9 km/h (1 Bft) S-SW 196 ° 0 min 0,000 mm 0,0 UV-I 0 W/m² -1,9 °C 3,2 km/h (1 Bft)
13.10.2016 07:29 -1,4 °C -1,3 °C 96 % 1014,8 hPa 0,0 mm 1,7 km/h (1 Bft) S-SW 196 ° 0 min 0,000 mm 0,0 UV-I 0 W/m² -2,0 °C 3,2 km/h (1 Bft)
13.10.2016 07:30 -1,4 °C -1,4 °C 96 % 1014,9 hPa 0,0 mm 0,5 km/h (0 Bft) S-SW 196 ° 0 min 0,000 mm 0,0 UV-I 0 W/m² -2,0 °C 1,6 km/h (1 Bft)
13.10.2016 07:31 -1,4 °C -1,4 °C 96 % 1014,8 hPa 0,0 mm 0,0 km/h (0 Bft) S-SW 196 ° 0 min 0,000 mm 0,0 UV-I 0 W/m² -2,0 °C 0,0 km/h (0 Bft)
13.10.2016 07:32 -1,5 °C -1,4 °C 96 % 1014,8 hPa 0,0 mm 0,1 km/h (0 Bft) S-SW 196 ° 0 min 0,000 mm 0,0 UV-I 0 W/m² -2,1 °C 1,6 km/h (1 Bft)
13.10.2016 07:33 -1,5 °C -1,5 °C 96 % 1014,8 hPa 0,0 mm 0,7 km/h (0 Bft) S-SW 196 ° 0 min 0,000 mm 0,0 UV-I 0 W/m² -2,1 °C 1,6 km/h (1 Bft)
13.10.2016 07:34 -1,6 °C -1,5 °C 96 % 1014,8 hPa 0,0 mm 0,3 km/h (0 Bft) S-SW 196 ° 0 min 0,000 mm 0,0 UV-I 0 W/m² -2,2 °C 1,6 km/h (1 Bft)
13.10.2016 07:35 -1,6 °C -1,6 °C 96 % 1014,9 hPa 0,0 mm 0,0 km/h (0 Bft) S-SW 196 ° 0 min 0,000 mm 0,0 UV-I 0 W/m² -2,2 °C 0,0 km/h (0 Bft)
13.10.2016 07:36 -1,6 °C -1,6 °C 96 % 1014,9 hPa 0,0 mm 0,2 km/h (0 Bft) S-SW 196 ° 0 min 0,000 mm 0,0 UV-I 0 W/m² -2,2 °C 1,6 km/h (1 Bft)
13.10.2016 07:37 -1,6 °C -1,6 °C 96 % 1014,9 hPa 0,0 mm 1,7 km/h (1 Bft) S-SO 149 ° 0 min 0,000 mm 0,0 UV-I 0 W/m² -2,2 °C 3,2 km/h (1 Bft)
13.10.2016 07:38 -1,6 °C -1,6 °C 96 % 1014,9 hPa 0,0 mm 1,5 km/h (1 Bft) S-SO 149 ° 0 min 0,000 mm 0,0 UV-I 0 W/m² -2,2 °C 3,2 km/h (1 Bft)
13.10.2016 07:39 -1,4 °C -1,4 °C 96 % 1014,9 hPa 0,0 mm 0,8 km/h (0 Bft) S-SO 149 ° 0 min 0,000 mm 0,0 UV-I 0 W/m² -2,0 °C 1,6 km/h (1 Bft)
13.10.2016 07:40 -1,4 °C -1,4 °C 96 % 1014,9 hPa 0,0 mm 0,3 km/h (0 Bft) S-SO 149 ° 0 min 0,000 mm 0,0 UV-I 0 W/m² -2,0 °C 1,6 km/h (1 Bft)
13.10.2016 07:41 -1,3 °C -1,3 °C 96 % 1015,0 hPa 0,0 mm 0,3 km/h (0 Bft) S-SO 149 ° 0 min 0,000 mm 0,0 UV-I 5 W/m² -1,9 °C 1,6 km/h (1 Bft)
13.10.2016 07:42 -1,3 °C -1,3 °C 96 % 1015,0 hPa 0,0 mm 0,0 km/h (0 Bft) S-SO 149 ° 0 min 0,000 mm 0,0 UV-I 5 W/m² -1,9 °C 0,0 km/h (0 Bft)
13.10.2016 07:43 -1,3 °C -1,2 °C 96 % 1015,0 hPa 0,0 mm 0,1 km/h (0 Bft) S-SO 149 ° 0 min 0,000 mm 0,0 UV-I 5 W/m² -1,9 °C 1,6 km/h (1 Bft)
13.10.2016 07:44 -1,2 °C -1,2 °C 96 % 1014,9 hPa 0,0 mm 0,0 km/h (0 Bft) S-SO 149 ° 0 min 0,000 mm 0,0 UV-I 5 W/m² -1,8 °C 0,0 km/h (0 Bft)
13.10.2016 07:45 -1,2 °C -1,2 °C 96 % 1015,0 hPa 0,0 mm 0,1 km/h (0 Bft) S-SO 149 ° 0 min 0,000 mm 0,0 UV-I 7 W/m² -1,8 °C 1,6 km/h (1 Bft)
13.10.2016 07:46 -1,2 °C -1,2 °C 96 % 1014,9 hPa 0,0 mm 0,1 km/h (0 Bft) S-SO 149 ° 0 min 0,000 mm 0,0 UV-I 7 W/m² -1,8 °C 1,6 km/h (1 Bft)
13.10.2016 07:47 -1,1 °C -1,1 °C 96 % 1014,9 hPa 0,0 mm 0,3 km/h (0 Bft) S-SO 149 ° 0 min 0,000 mm 0,0 UV-I 9 W/m² -1,7 °C 1,6 km/h (1 Bft)
13.10.2016 07:48 -1,1 °C -1,1 °C 96 % 1014,9 hPa 0,0 mm 0,1 km/h (0 Bft) S-SO 149 ° 0 min 0,000 mm 0,0 UV-I 9 W/m² -1,7 °C 1,6 km/h (1 Bft)
13.10.2016 07:49 -1,1 °C -1,1 °C 96 % 1014,9 hPa 0,0 mm 1,2 km/h (1 Bft) SO 144 ° 0 min 0,000 mm 0,0 UV-I 9 W/m² -1,7 °C 3,2 km/h (1 Bft)
13.10.2016 07:50 -1,0 °C -1,0 °C 96 % 1014,9 hPa 0,0 mm 0,7 km/h (0 Bft) SO 143 ° 0 min 0,000 mm 0,0 UV-I 11 W/m² -1,6 °C 1,6 km/h (1 Bft)
13.10.2016 07:51 -0,9 °C -0,9 °C 97 % 1015,0 hPa 0,0 mm 3,8 km/h (1 Bft) O-NO 73 ° 0 min 0,000 mm 0,0 UV-I 11 W/m² -1,3 °C 6,4 km/h (2 Bft)
13.10.2016 07:52 -0,9 °C -0,9 °C 97 % 1015,0 hPa 0,0 mm 4,2 km/h (1 Bft) NO 42 ° 0 min 0,000 mm 0,0 UV-I 11 W/m² -1,3 °C 4,8 km/h (1 Bft)
13.10.2016 07:53 -0,9 °C -0,9 °C 97 % 1015,0 hPa 0,0 mm 4,5 km/h (1 Bft) NO 46 ° 0 min 0,000 mm 0,0 UV-I 11 W/m² -1,3 °C 6,4 km/h (2 Bft)
13.10.2016 07:54 -0,8 °C -0,8 °C 96 % 1015,0 hPa 0,0 mm 5,6 km/h (1 Bft) O-NO 57 ° 0 min 0,000 mm 0,0 UV-I 11 W/m² -1,4 °C 6,4 km/h (2 Bft)
13.10.2016 07:55 -0,8 °C -0,8 °C 97 % 1015,1 hPa 0,0 mm 4,0 km/h (1 Bft) O-NO 57 ° 0 min 0,000 mm 0,0 UV-I 11 W/m² -1,2 °C 6,4 km/h (2 Bft)
13.10.2016 07:56 -0,9 °C -0,8 °C 97 % 1015,1 hPa 0,0 mm 3,7 km/h (1 Bft) O-NO 57 ° 0 min 0,000 mm 0,0 UV-I 11 W/m² -1,3 °C 4,8 km/h (1 Bft)
13.10.2016 07:57 -0,9 °C -0,9 °C 97 % 1015,1 hPa 0,0 mm 3,6 km/h (1 Bft) O-NO 67 ° 0 min 0,000 mm 0,0 UV-I 12 W/m² -1,3 °C 4,8 km/h (1 Bft)
13.10.2016 07:58 -1,0 °C -0,9 °C 96 % 1015,2 hPa 0,0 mm 1,0 km/h (0 Bft) O-NO 67 ° 0 min 0,000 mm 0,0 UV-I 12 W/m² -1,6 °C 1,6 km/h (1 Bft)
13.10.2016 07:59 -1,1 °C -1,0 °C 96 % 1015,1 hPa 0,0 mm 0,7 km/h (0 Bft) O-NO 67 ° 0 min 0,000 mm 0,0 UV-I 14 W/m² -1,7 °C 1,6 km/h (1 Bft)
13.10.2016 08:00 -1,1 °C -1,1 °C 96 % 1015,0 hPa 0,0 mm 1,9 km/h (1 Bft) O-NO 65 ° 0 min 0,000 mm 0,0 UV-I 16 W/m² -1,7 °C 4,8 km/h (1 Bft)
13.10.2016 08:01 -1,1 °C -1,1 °C 96 % 1015,1 hPa 0,0 mm 5,0 km/h (1 Bft) O-NO 63 ° 0 min 0,000 mm 0,0 UV-I 16 W/m² -1,7 °C 6,4 km/h (2 Bft)
13.10.2016 08:02 -1,1 °C -1,1 °C 96 % 1015,0 hPa 0,0 mm 3,2 km/h (1 Bft) O-NO 63 ° 0 min 0,000 mm 0,0 UV-I 16 W/m² -1,7 °C 4,8 km/h (1 Bft)
13.10.2016 08:03 -1,1 °C -1,1 °C 96 % 1015,0 hPa 0,0 mm 2,5 km/h (1 Bft) O-NO 63 ° 0 min 0,000 mm 0,0 UV-I 16 W/m² -1,7 °C 3,2 km/h (1 Bft)
13.10.2016 08:04 -1,2 °C -1,1 °C 96 % 1015,0 hPa 0,0 mm 1,6 km/h (1 Bft) O-NO 63 ° 0 min 0,000 mm 0,0 UV-I 16 W/m² -1,8 °C 3,2 km/h (1 Bft)
13.10.2016 08:05 -1,2 °C -1,2 °C 96 % 1015,0 hPa 0,0 mm 1,9 km/h (1 Bft) O-NO 63 ° 0 min 0,000 mm 0,0 UV-I 16 W/m² -1,8 °C 3,2 km/h (1 Bft)
13.10.2016 08:06 -1,2 °C -1,2 °C 96 % 1015,0 hPa 0,0 mm 2,9 km/h (1 Bft) O-NO 63 ° 0 min 0,000 mm 0,0 UV-I 18 W/m² -1,8 °C 4,8 km/h (1 Bft)
13.10.2016 08:07 -1,1 °C -1,1 °C 96 % 1015,0 hPa 0,0 mm 1,6 km/h (1 Bft) O-NO 63 ° 0 min 0,000 mm 0,0 UV-I 19 W/m² -1,7 °C 3,2 km/h (1 Bft)
13.10.2016 08:08 -1,1 °C -1,1 °C 96 % 1014,9 hPa 0,0 mm 0,0 km/h (0 Bft) O-NO 63 ° 0 min 0,000 mm 0,0 UV-I 19 W/m² -1,7 °C 0,0 km/h (0 Bft)
13.10.2016 08:09 -1,1 °C -1,0 °C 96 % 1015,0 hPa 0,0 mm 2,7 km/h (1 Bft) O-NO 63 ° 0 min 0,000 mm 0,0 UV-I 19 W/m² -1,7 °C 4,8 km/h (1 Bft)
13.10.2016 08:10 -0,9 °C -0,9 °C 96 % 1014,9 hPa 0,0 mm 4,2 km/h (1 Bft) O-NO 68 ° 0 min 0,000 mm 0,0 UV-I 23 W/m² -1,5 °C 4,8 km/h (1 Bft)
13.10.2016 08:11 -0,9 °C -0,9 °C 97 % 1014,9 hPa 0,0 mm 2,8 km/h (1 Bft) O-NO 60 ° 0 min 0,000 mm 0,0 UV-I 23 W/m² -1,3 °C 6,4 km/h (2 Bft)
13.10.2016 08:12 -0,9 °C -0,9 °C 97 % 1014,9 hPa 0,0 mm 3,8 km/h (1 Bft) O-NO 66 ° 0 min 0,000 mm 0,0 UV-I 25 W/m² -1,3 °C 4,8 km/h (1 Bft)
13.10.2016 08:13 -0,9 °C -0,9 °C 97 % 1014,9 hPa 0,0 mm 3,2 km/h (1 Bft) O-NO 66 ° 0 min 0,000 mm 0,0 UV-I 25 W/m² -1,3 °C 4,8 km/h (1 Bft)
13.10.2016 08:14 -0,9 °C -0,9 °C 97 % 1014,9 hPa 0,0 mm 1,5 km/h (1 Bft) O-NO 66 ° 0 min 0,000 mm 0,0 UV-I 23 W/m² -1,3 °C 3,2 km/h (1 Bft)
13.10.2016 08:15 -0,9 °C -0,9 °C 97 % 1015,0 hPa 0,0 mm 0,0 km/h (0 Bft) O-NO 66 ° 0 min 0,000 mm 0,0 UV-I 23 W/m² -1,3 °C 0,0 km/h (0 Bft)
13.10.2016 08:16 -0,8 °C -0,8 °C 97 % 1014,9 hPa 0,0 mm 1,7 km/h (1 Bft) O-NO 67 ° 0 min 0,000 mm 0,0 UV-I 26 W/m² -1,2 °C 3,2 km/h (1 Bft)
13.10.2016 08:17 -0,8 °C -0,8 °C 97 % 1015,0 hPa 0,0 mm 2,5 km/h (1 Bft) O 80 ° 0 min 0,000 mm 0,0 UV-I 25 W/m² -1,2 °C 3,2 km/h (1 Bft)
13.10.2016 08:18 -0,8 °C -0,8 °C 96 % 1015,0 hPa 0,0 mm 0,7 km/h (0 Bft) O 80 ° 0 min 0,000 mm 0,0 UV-I 25 W/m² -1,4 °C 1,6 km/h (1 Bft)
13.10.2016 08:19 -0,8 °C -0,8 °C 96 % 1015,0 hPa 0,0 mm 2,5 km/h (1 Bft) O 80 ° 0 min 0,000 mm 0,0 UV-I 25 W/m² -1,4 °C 3,2 km/h (1 Bft)
13.10.2016 08:20 -0,8 °C -0,8 °C 96 % 1014,9 hPa 0,0 mm 1,1 km/h (1 Bft) O 82 ° 0 min 0,000 mm 0,0 UV-I 25 W/m² -1,4 °C 3,2 km/h (1 Bft)
13.10.2016 08:21 -0,8 °C -0,8 °C 96 % 1015,0 hPa 0,0 mm 3,4 km/h (1 Bft) O-NO 64 ° 0 min 0,000 mm 0,0 UV-I 25 W/m² -1,4 °C 4,8 km/h (1 Bft)
13.10.2016 08:22 -0,8 °C -0,8 °C 96 % 1015,0 hPa 0,0 mm 2,1 km/h (1 Bft) O 80 ° 0 min 0,000 mm 0,0 UV-I 26 W/m² -1,4 °C 4,8 km/h (1 Bft)
13.10.2016 08:23 -0,8 °C -0,8 °C 97 % 1015,0 hPa 0,0 mm 1,9 km/h (1 Bft) O 80 ° 0 min 0,000 mm 0,0 UV-I 28 W/m² -1,2 °C 3,2 km/h (1 Bft)
13.10.2016 08:24 -0,8 °C -0,8 °C 97 % 1015,0 hPa 0,0 mm 2,0 km/h (1 Bft) O 80 ° 0 min 0,000 mm 0,0 UV-I 30 W/m² -1,2 °C 3,2 km/h (1 Bft)
13.10.2016 08:25 -0,8 °C -0,8 °C 96 % 1014,9 hPa 0,0 mm 1,3 km/h (1 Bft) O 80 ° 0 min 0,000 mm 0,0 UV-I 32 W/m² -1,4 °C 3,2 km/h (1 Bft)
13.10.2016 08:26 -0,7 °C -0,7 °C 96 % 1014,9 hPa 0,0 mm 2,5 km/h (1 Bft) O-NO 67 ° 0 min 0,000 mm 0,0 UV-I 32 W/m² -1,3 °C 6,4 km/h (2 Bft)
13.10.2016 08:27 -0,7 °C -0,7 °C 96 % 1014,9 hPa 0,0 mm 1,0 km/h (0 Bft) O-NO 67 ° 0 min 0,000 mm 0,0 UV-I 33 W/m² -1,3 °C 1,6 km/h (1 Bft)
13.10.2016 08:28 -0,7 °C -0,7 °C 96 % 1014,9 hPa 0,0 mm 3,8 km/h (1 Bft) O 88 ° 0 min 0,000 mm 0,0 UV-I 37 W/m² -1,3 °C 6,4 km/h (2 Bft)
13.10.2016 08:29 -0,7 °C -0,6 °C 96 % 1015,0 hPa 0,0 mm 2,9 km/h (1 Bft) O 88 ° 0 min 0,000 mm 0,0 UV-I 39 W/m² -1,3 °C 4,8 km/h (1 Bft)
13.10.2016 08:30 -0,7 °C -0,6 °C 96 % 1015,0 hPa 0,0 mm 1,3 km/h (1 Bft) O 88 ° 0 min 0,000 mm 0,0 UV-I 39 W/m² -1,3 °C 3,2 km/h (1 Bft)
13.10.2016 08:31 -0,6 °C -0,6 °C 97 % 1015,0 hPa 0,0 mm 1,1 km/h (1 Bft) O 88 ° 0 min 0,000 mm 0,0 UV-I 39 W/m² -1,0 °C 3,2 km/h (1 Bft)
13.10.2016 08:32 -0,6 °C -0,6 °C 97 % 1015,0 hPa 0,0 mm 3,0 km/h (1 Bft) O 86 ° 0 min 0,000 mm 0,0 UV-I 39 W/m² -1,0 °C 4,8 km/h (1 Bft)
13.10.2016 08:33 -0,6 °C -0,6 °C 97 % 1015,0 hPa 0,0 mm 2,5 km/h (1 Bft) O-NO 69 ° 0 min 0,000 mm 0,0 UV-I 39 W/m² -1,0 °C 4,8 km/h (1 Bft)
13.10.2016 08:34 -0,6 °C -0,6 °C 97 % 1015,0 hPa 0,0 mm 2,7 km/h (1 Bft) O-NO 63 ° 0 min 0,000 mm 0,0 UV-I 40 W/m² -1,0 °C 4,8 km/h (1 Bft)
13.10.2016 08:35 -0,6 °C -0,6 °C 97 % 1015,0 hPa 0,0 mm 3,5 km/h (1 Bft) NO 47 ° 0 min 0,000 mm 0,0 UV-I 40 W/m² -1,0 °C 4,8 km/h (1 Bft)
13.10.2016 08:36 -0,5 °C -0,5 °C 97 % 1015,1 hPa 0,0 mm 4,4 km/h (1 Bft) O 94 ° 0 min 0,000 mm 0,0 UV-I 40 W/m² -0,9 °C 6,4 km/h (2 Bft)
13.10.2016 08:37 -0,5 °C -0,5 °C 97 % 1015,1 hPa 0,0 mm 3,6 km/h (1 Bft) O 86 ° 0 min 0,000 mm 0,0 UV-I 40 W/m² -0,9 °C 4,8 km/h (1 Bft)
13.10.2016 08:38 -0,4 °C -0,4 °C 97 % 1015,1 hPa 0,0 mm 3,8 km/h (1 Bft) O-NO 57 ° 0 min 0,000 mm 0,0 UV-I 42 W/m² -0,8 °C 4,8 km/h (1 Bft)
13.10.2016 08:39 -0,4 °C -0,4 °C 97 % 1015,1 hPa 0,0 mm 1,6 km/h (1 Bft) O-NO 57 ° 0 min 0,000 mm 0,0 UV-I 44 W/m² -0,8 °C 3,2 km/h (1 Bft)
13.10.2016 08:40 -0,4 °C -0,4 °C 96 % 1015,1 hPa 0,0 mm 2,1 km/h (1 Bft) O-NO 57 ° 0 min 0,000 mm 0,0 UV-I 47 W/m² -1,0 °C 3,2 km/h (1 Bft)
13.10.2016 08:41 -0,4 °C -0,4 °C 96 % 1015,0 hPa 0,0 mm 4,0 km/h (1 Bft) NO 52 ° 0 min 0,000 mm 0,0 UV-I 47 W/m² -1,0 °C 6,4 km/h (2 Bft)
13.10.2016 08:42 -0,4 °C -0,4 °C 96 % 1015,0 hPa 0,0 mm 3,1 km/h (1 Bft) O-NO 65 ° 0 min 0,000 mm 0,0 UV-I 49 W/m² -1,0 °C 4,8 km/h (1 Bft)
13.10.2016 08:43 -0,4 °C -0,4 °C 97 % 1015,0 hPa 0,0 mm 1,7 km/h (1 Bft) O-NO 63 ° 0 min 0,000 mm 0,0 UV-I 49 W/m² -0,8 °C 3,2 km/h (1 Bft)
13.10.2016 08:44 -0,4 °C -0,4 °C 97 % 1015,0 hPa 0,0 mm 4,8 km/h (1 Bft) O-NO 59 ° 0 min 0,000 mm 0,0 UV-I 51 W/m² -0,8 °C 6,4 km/h (2 Bft)
13.10.2016 08:45 -0,3 °C -0,3 °C 96 % 1015,0 hPa 0,0 mm 3,8 km/h (1 Bft) NO 50 ° 0 min 0,000 mm 0,0 UV-I 53 W/m² -0,9 °C 4,8 km/h (1 Bft)
13.10.2016 08:46 -0,3 °C -0,3 °C 96 % 1015,0 hPa 0,0 mm 3,1 km/h (1 Bft) O-SO 116 ° 0 min 0,000 mm 0,0 UV-I 54 W/m² -0,9 °C 4,8 km/h (1 Bft)
13.10.2016 08:47 -0,3 °C -0,3 °C 97 % 1015,0 hPa 0,0 mm 5,5 km/h (1 Bft) NO 38 ° 0 min 0,000 mm 0,0 UV-I 56 W/m² -0,7 °C 8,0 km/h (2 Bft)
13.10.2016 08:48 -0,3 °C -0,3 °C 97 % 1015,0 hPa 0,0 mm 5,4 km/h (1 Bft) O-NO 64 ° 0 min 0,000 mm 0,0 UV-I 56 W/m² -0,7 °C 8,0 km/h (2 Bft)
13.10.2016 08:49 -0,3 °C -0,3 °C 96 % 1015,0 hPa 0,0 mm 3,4 km/h (1 Bft) O-NO 63 ° 0 min 0,000 mm 0,0 UV-I 56 W/m² -0,9 °C 4,8 km/h (1 Bft)
13.10.2016 08:50 -0,3 °C -0,3 °C 97 % 1015,0 hPa 0,0 mm 4,9 km/h (1 Bft) O-NO 76 ° 0 min 0,000 mm 0,0 UV-I 56 W/m² -0,7 °C 6,4 km/h (2 Bft)
13.10.2016 08:51 -0,3 °C -0,3 °C 96 % 1015,0 hPa 0,0 mm 6,1 km/h (2 Bft) O-NO 69 ° 0 min 0,000 mm 0,0 UV-I 56 W/m² -0,9 °C 8,0 km/h (2 Bft)
13.10.2016 08:52 -0,3 °C -0,3 °C 97 % 1015,0 hPa 0,0 mm 4,5 km/h (1 Bft) NO 54 ° 0 min 0,000 mm 0,0 UV-I 56 W/m² -0,7 °C 6,4 km/h (2 Bft)
13.10.2016 08:53 -0,3 °C -0,3 °C 97 % 1014,9 hPa 0,0 mm 5,0 km/h (1 Bft) O-NO 68 ° 0 min 0,000 mm 0,0 UV-I 56 W/m² -0,7 °C 8,0 km/h (2 Bft)
13.10.2016 08:54 -0,3 °C -0,3 °C 97 % 1014,9 hPa 0,0 mm 3,3 km/h (1 Bft) O-NO 65 ° 0 min 0,000 mm 0,0 UV-I 56 W/m² -0,7 °C 6,4 km/h (2 Bft)
13.10.2016 08:55 -0,3 °C -0,3 °C 97 % 1014,9 hPa 0,0 mm 5,7 km/h (1 Bft) O-NO 76 ° 0 min 0,000 mm 0,0 UV-I 58 W/m² -0,7 °C 6,4 km/h (2 Bft)
13.10.2016 08:56 -0,3 °C -0,3 °C 97 % 1014,9 hPa 0,0 mm 5,3 km/h (1 Bft) O-NO 60 ° 0 min 0,000 mm 0,0 UV-I 58 W/m² -0,7 °C 8,0 km/h (2 Bft)
13.10.2016 08:57 -0,3 °C -0,2 °C 97 % 1015,0 hPa 0,0 mm 4,3 km/h (1 Bft) NO 49 ° 0 min 0,000 mm 0,0 UV-I 56 W/m² -0,7 °C 8,0 km/h (2 Bft)
13.10.2016 08:58 -0,2 °C -0,2 °C 97 % 1015,0 hPa 0,0 mm 3,6 km/h (1 Bft) O-NO 65 ° 0 min 0,000 mm 0,0 UV-I 56 W/m² -0,6 °C 6,4 km/h (2 Bft)
13.10.2016 08:59 -0,2 °C -0,2 °C 97 % 1015,0 hPa 0,0 mm 3,8 km/h (1 Bft) O-NO 65 ° 0 min 0,000 mm 0,0 UV-I 56 W/m² -0,6 °C 6,4 km/h (2 Bft)
13.10.2016 09:00 -0,2 °C -0,2 °C 97 % 1015,0 hPa 0,0 mm 0,8 km/h (0 Bft) O-NO 65 ° 0 min 0,025 mm 0,0 UV-I 56 W/m² -0,6 °C 1,6 km/h (1 Bft)
13.10.2016 09:01 -0,2 °C -0,2 °C 97 % 1015,0 hPa 0,0 mm 1,7 km/h (1 Bft) O-NO 65 ° 0 min 0,000 mm 0,0 UV-I 56 W/m² -0,6 °C 3,2 km/h (1 Bft)
13.10.2016 09:02 -0,2 °C -0,2 °C 97 % 1015,0 hPa 0,0 mm 3,9 km/h (1 Bft) O-NO 71 ° 0 min 0,000 mm 0,0 UV-I 58 W/m² -0,6 °C 4,8 km/h (1 Bft)
13.10.2016 09:03 -0,2 °C -0,1 °C 97 % 1015,0 hPa 0,0 mm 2,5 km/h (1 Bft) O-NO 71 ° 0 min 0,000 mm 0,0 UV-I 58 W/m² -0,6 °C 4,8 km/h (1 Bft)
13.10.2016 09:04 -0,2 °C -0,1 °C 97 % 1015,0 hPa 0,0 mm 5,0 km/h (1 Bft) NO 54 ° 0 min 0,000 mm 0,0 UV-I 56 W/m² -0,6 °C 6,4 km/h (2 Bft)
13.10.2016 09:05 -0,1 °C -0,1 °C 97 % 1015,0 hPa 0,0 mm 2,4 km/h (1 Bft) NO 54 ° 0 min 0,000 mm 0,0 UV-I 56 W/m² -0,5 °C 4,8 km/h (1 Bft)
13.10.2016 09:06 -0,1 °C -0,1 °C 97 % 1014,9 hPa 0,0 mm 2,2 km/h (1 Bft) NO 54 ° 0 min 0,000 mm 0,0 UV-I 54 W/m² -0,5 °C 3,2 km/h (1 Bft)
13.10.2016 09:07 -0,1 °C -0,1 °C 97 % 1014,9 hPa 0,0 mm 2,6 km/h (1 Bft) NO 54 ° 0 min 0,000 mm 0,0 UV-I 54 W/m² -0,5 °C 3,2 km/h (1 Bft)
13.10.2016 09:08 -0,1 °C -0,1 °C 97 % 1014,9 hPa 0,0 mm 3,2 km/h (1 Bft) O 84 ° 0 min 0,000 mm 0,0 UV-I 54 W/m² -0,5 °C 6,4 km/h (2 Bft)
13.10.2016 09:09 -0,1 °C -0,1 °C 97 % 1014,9 hPa 0,0 mm 4,1 km/h (1 Bft) O 84 ° 0 min 0,000 mm 0,0 UV-I 54 W/m² -0,5 °C 4,8 km/h (1 Bft)
13.10.2016 09:10 -0,1 °C -0,1 °C 97 % 1014,9 hPa 0,0 mm 4,1 km/h (1 Bft) O-NO 69 ° 0 min 0,000 mm 0,0 UV-I 53 W/m² -0,5 °C 6,4 km/h (2 Bft)
13.10.2016 09:11 -0,1 °C -0,1 °C 97 % 1014,9 hPa 0,0 mm 4,3 km/h (1 Bft) NO 44 ° 0 min 0,000 mm 0,0 UV-I 53 W/m² -0,5 °C 6,4 km/h (2 Bft)
13.10.2016 09:12 -0,1 °C -0,1 °C 97 % 1014,9 hPa 0,0 mm 7,1 km/h (2 Bft) N-NO 28 ° 0 min 0,000 mm 0,0 UV-I 53 W/m² -0,5 °C 8,0 km/h (2 Bft)
13.10.2016 09:13 -0,1 °C -0,1 °C 97 % 1014,9 hPa 0,0 mm 4,8 km/h (1 Bft) NO 48 ° 0 min 0,000 mm 0,0 UV-I 53 W/m² -0,5 °C 6,4 km/h (2 Bft)
13.10.2016 09:14 -0,1 °C -0,1 °C 97 % 1014,9 hPa 0,0 mm 2,2 km/h (1 Bft) NO 40 ° 0 min 0,000 mm 0,0 UV-I 54 W/m² -0,5 °C 4,8 km/h (1 Bft)
13.10.2016 09:15 -0,1 °C -0,1 °C 97 % 1014,9 hPa 0,0 mm 3,1 km/h (1 Bft) NO 44 ° 0 min 0,000 mm 0,0 UV-I 60 W/m² -0,5 °C 4,8 km/h (1 Bft)
13.10.2016 09:16 -0,1 °C -0,1 °C 97 % 1015,0 hPa 0,0 mm 4,5 km/h (1 Bft) NO 54 ° 0 min 0,000 mm 0,0 UV-I 62 W/m² -0,5 °C 6,4 km/h (2 Bft)
13.10.2016 09:17 0,0 °C 0,0 °C 97 % 1015,0 hPa 0,0 mm 6,6 km/h (2 Bft) O 83 ° 0 min 0,000 mm 0,0 UV-I 65 W/m² -0,4 °C 8,0 km/h (2 Bft)
13.10.2016 09:18 -0,1 °C 0,0 °C 97 % 1015,0 hPa 0,0 mm 2,3 km/h (1 Bft) O-NO 74 ° 0 min 0,000 mm 0,0 UV-I 63 W/m² -0,5 °C 6,4 km/h (2 Bft)
13.10.2016 09:19 -0,1 °C -0,1 °C 97 % 1015,0 hPa 0,0 mm 4,3 km/h (1 Bft) NO 36 ° 0 min 0,000 mm 0,0 UV-I 62 W/m² -0,5 °C 6,4 km/h (2 Bft)
13.10.2016 09:20 -0,1 °C -0,1 °C 97 % 1015,0 hPa 0,0 mm 5,1 km/h (1 Bft) N-NO 17 ° 0 min 0,000 mm 0,0 UV-I 62 W/m² -0,5 °C 8,0 km/h (2 Bft)
13.10.2016 09:21 -0,1 °C -0,1 °C 97 % 1015,0 hPa 0,0 mm 4,9 km/h (1 Bft) O-NO 59 ° 0 min 0,000 mm 0,0 UV-I 62 W/m² -0,5 °C 8,0 km/h (2 Bft)
13.10.2016 09:22 0,0 °C 0,0 °C 97 % 1015,0 hPa 0,0 mm 3,0 km/h (1 Bft) N-NO 22 ° 0 min 0,000 mm 0,0 UV-I 62 W/m² -0,4 °C 4,8 km/h (1 Bft)
13.10.2016 09:23 0,0 °C 0,0 °C 97 % 1015,0 hPa 0,0 mm 2,5 km/h (1 Bft) NO 53 ° 0 min 0,000 mm 0,0 UV-I 60 W/m² -0,4 °C 4,8 km/h (1 Bft)
13.10.2016 09:24 0,0 °C 0,1 °C 97 % 1015,0 hPa 0,0 mm 3,8 km/h (1 Bft) N-NO 15 ° 0 min 0,000 mm 0,0 UV-I 58 W/m² -0,4 °C 8,0 km/h (2 Bft)
13.10.2016 09:25 0,1 °C 0,1 °C 97 % 1015,0 hPa 0,0 mm 5,7 km/h (1 Bft) N-NO 15 ° 0 min 0,000 mm 0,0 UV-I 60 W/m² -0,3 °C 9,7 km/h (2 Bft)
13.10.2016 09:26 0,0 °C 0,1 °C 97 % 1015,1 hPa 0,0 mm 3,7 km/h (1 Bft) NO 52 ° 0 min 0,000 mm 0,0 UV-I 63 W/m² -0,4 °C 6,4 km/h (2 Bft)
13.10.2016 09:27 0,0 °C 0,0 °C 97 % 1015,1 hPa 0,0 mm 5,4 km/h (1 Bft) O-NO 63 ° 0 min 0,000 mm 0,0 UV-I 72 W/m² -0,4 °C 9,7 km/h (2 Bft)
13.10.2016 09:28 0,0 °C 0,0 °C 97 % 1015,0 hPa 0,0 mm 4,0 km/h (1 Bft) NO 42 ° 0 min 0,000 mm 0,5 UV-I 76 W/m² -0,4 °C 6,4 km/h (2 Bft)
13.10.2016 09:29 0,0 °C 0,0 °C 97 % 1015,0 hPa 0,0 mm 3,1 km/h (1 Bft) NO 43 ° 0 min 0,000 mm 0,5 UV-I 74 W/m² -0,4 °C 6,4 km/h (2 Bft)
13.10.2016 09:30 0,0 °C 0,1 °C 97 % 1015,1 hPa 0,0 mm 3,4 km/h (1 Bft) O-NO 70 ° 0 min 0,000 mm 0,5 UV-I 74 W/m² -0,4 °C 8,0 km/h (2 Bft)
13.10.2016 09:31 0,0 °C 0,0 °C 97 % 1015,1 hPa 0,0 mm 4,6 km/h (1 Bft) NO 36 ° 0 min 0,000 mm 0,5 UV-I 77 W/m² -0,4 °C 6,4 km/h (2 Bft)
13.10.2016 09:32 -0,1 °C 0,0 °C 97 % 1015,1 hPa 0,0 mm 0,8 km/h (0 Bft) NO 36 ° 0 min 0,000 mm 0,5 UV-I 77 W/m² -0,5 °C 3,2 km/h (1 Bft)
13.10.2016 09:33 -0,1 °C 0,0 °C 97 % 1015,1 hPa 0,0 mm 2,7 km/h (1 Bft) O-NO 78 ° 0 min 0,000 mm 0,5 UV-I 81 W/m² -0,5 °C 6,4 km/h (2 Bft)
13.10.2016 09:34 0,0 °C 0,0 °C 97 % 1015,1 hPa 0,0 mm 1,6 km/h (1 Bft) O-NO 78 ° 0 min 0,000 mm 0,5 UV-I 77 W/m² -0,4 °C 4,8 km/h (1 Bft)
13.10.2016 09:35 0,0 °C 0,0 °C 97 % 1015,1 hPa 0,0 mm 2,1 km/h (1 Bft) O-NO 78 ° 0 min 0,000 mm 0,5 UV-I 76 W/m² -0,4 °C 3,2 km/h (1 Bft)
13.10.2016 09:36 0,0 °C 0,0 °C 97 % 1015,1 hPa 0,0 mm 2,3 km/h (1 Bft) NO 44 ° 0 min 0,000 mm 0,0 UV-I 72 W/m² -0,4 °C 4,8 km/h (1 Bft)
13.10.2016 09:37 0,1 °C 0,1 °C 97 % 1015,1 hPa 0,0 mm 3,9 km/h (1 Bft) NO 44 ° 0 min 0,000 mm 0,5 UV-I 70 W/m² -0,3 °C 4,8 km/h (1 Bft)
13.10.2016 09:38 0,0 °C 0,1 °C 97 % 1015,0 hPa 0,0 mm 5,5 km/h (1 Bft) NO 41 ° 0 min 0,000 mm 0,5 UV-I 70 W/m² -0,4 °C 9,7 km/h (2 Bft)
13.10.2016 09:39 0,0 °C 0,0 °C 97 % 1015,0 hPa 0,0 mm 4,6 km/h (1 Bft) O-NO 59 ° 0 min 0,000 mm 0,5 UV-I 70 W/m² -0,4 °C 6,4 km/h (2 Bft)
13.10.2016 09:40 0,0 °C 0,0 °C 97 % 1015,0 hPa 0,0 mm 3,8 km/h (1 Bft) O-NO 58 ° 0 min 0,000 mm 0,5 UV-I 69 W/m² -0,4 °C 4,8 km/h (1 Bft)
13.10.2016 09:41 0,0 °C 0,0 °C 97 % 1015,0 hPa 0,0 mm 3,2 km/h (1 Bft) N 9 ° 0 min 0,000 mm 0,5 UV-I 70 W/m² -0,4 °C 4,8 km/h (1 Bft)
13.10.2016 09:42 0,0 °C 0,1 °C 97 % 1015,1 hPa 0,0 mm 1,3 km/h (1 Bft) N 9 ° 0 min 0,000 mm 0,5 UV-I 65 W/m² -0,4 °C 1,6 km/h (1 Bft)
13.10.2016 09:43 0,1 °C 0,1 °C 97 % 1015,1 hPa 0,0 mm 1,7 km/h (1 Bft) N-NO 19 ° 0 min 0,000 mm 0,5 UV-I 65 W/m² -0,3 °C 3,2 km/h (1 Bft)
13.10.2016 09:44 0,1 °C 0,1 °C 97 % 1015,1 hPa 0,0 mm 5,7 km/h (1 Bft) N-NO 27 ° 0 min 0,000 mm 0,5 UV-I 63 W/m² -0,3 °C 8,0 km/h (2 Bft)
13.10.2016 09:45 0,1 °C 0,1 °C 97 % 1015,0 hPa 0,0 mm 5,3 km/h (1 Bft) N-NO 20 ° 0 min 0,000 mm 0,5 UV-I 63 W/m² -0,3 °C 6,4 km/h (2 Bft)
13.10.2016 09:46 0,1 °C 0,1 °C 97 % 1015,0 hPa 0,0 mm 5,4 km/h (1 Bft) NO 42 ° 0 min 0,000 mm 0,5 UV-I 67 W/m² -0,3 °C 6,4 km/h (2 Bft)
13.10.2016 09:47 0,0 °C 0,1 °C 97 % 1015,0 hPa 0,0 mm 4,3 km/h (1 Bft) N-NO 32 ° 0 min 0,000 mm 0,5 UV-I 69 W/m² -0,4 °C 6,4 km/h (2 Bft)
13.10.2016 09:48 0,0 °C 0,0 °C 97 % 1015,0 hPa 0,0 mm 2,2 km/h (1 Bft) N-NO 32 ° 0 min 0,000 mm 0,5 UV-I 65 W/m² -0,4 °C 3,2 km/h (1 Bft)
13.10.2016 09:49 0,0 °C 0,0 °C 97 % 1015,0 hPa 0,0 mm 1,8 km/h (1 Bft) N-NO 32 ° 0 min 0,000 mm 0,5 UV-I 63 W/m² -0,4 °C 3,2 km/h (1 Bft)
13.10.2016 09:50 0,1 °C 0,1 °C 97 % 1015,0 hPa 0,0 mm 2,0 km/h (1 Bft) N-NO 33 ° 0 min 0,000 mm 0,5 UV-I 69 W/m² -0,3 °C 3,2 km/h (1 Bft)
13.10.2016 09:51 0,1 °C 0,1 °C 97 % 1015,0 hPa 0,0 mm 4,3 km/h (1 Bft) O-NO 64 ° 0 min 0,000 mm 0,5 UV-I 69 W/m² -0,3 °C 6,4 km/h (2 Bft)
13.10.2016 09:52 0,1 °C 0,1 °C 97 % 1014,9 hPa 0,0 mm 3,6 km/h (1 Bft) O-NO 78 ° 0 min 0,000 mm 0,5 UV-I 70 W/m² -0,3 °C 6,4 km/h (2 Bft)
13.10.2016 09:53 0,1 °C 0,1 °C 97 % 1014,9 hPa 0,0 mm 2,3 km/h (1 Bft) O-NO 57 ° 0 min 0,000 mm 0,5 UV-I 70 W/m² -0,3 °C 4,8 km/h (1 Bft)
13.10.2016 09:54 0,1 °C 0,1 °C 97 % 1014,9 hPa 0,0 mm 2,9 km/h (1 Bft) N 5 ° 0 min 0,000 mm 0,5 UV-I 65 W/m² -0,3 °C 4,8 km/h (1 Bft)
13.10.2016 09:55 0,1 °C 0,1 °C 97 % 1014,9 hPa 0,0 mm 4,8 km/h (1 Bft) O-NO 61 ° 0 min 0,000 mm 0,5 UV-I 63 W/m² -0,3 °C 6,4 km/h (2 Bft)
13.10.2016 09:56 0,1 °C 0,2 °C 97 % 1014,9 hPa 0,0 mm 3,2 km/h (1 Bft) O-NO 61 ° 0 min 0,000 mm 0,5 UV-I 58 W/m² -0,3 °C 4,8 km/h (1 Bft)
13.10.2016 09:57 0,1 °C 0,1 °C 97 % 1014,9 hPa 0,0 mm 1,9 km/h (1 Bft) O-NO 61 ° 0 min 0,000 mm 0,0 UV-I 53 W/m² -0,3 °C 3,2 km/h (1 Bft)
13.10.2016 09:58 0,1 °C 0,1 °C 97 % 1014,8 hPa 0,0 mm 3,2 km/h (1 Bft) N-NO 30 ° 0 min 0,000 mm 0,0 UV-I 54 W/m² -0,3 °C 4,8 km/h (1 Bft)
13.10.2016 09:59 0,1 °C 0,1 °C 97 % 1014,8 hPa 0,0 mm 3,6 km/h (1 Bft) N-NO 32 ° 0 min 0,000 mm 0,0 UV-I 54 W/m² -0,3 °C 4,8 km/h (1 Bft)
13.10.2016 10:00 0,1 °C 0,1 °C 97 % 1014,9 hPa 0,0 mm 2,6 km/h (1 Bft) N-NO 32 ° 0 min 0,026 mm 0,5 UV-I 56 W/m² -0,3 °C 4,8 km/h (1 Bft)
13.10.2016 10:01 0,1 °C 0,1 °C 97 % 1014,9 hPa 0,0 mm 2,6 km/h (1 Bft) O-NO 63 ° 0 min 0,000 mm 0,5 UV-I 60 W/m² -0,3 °C 4,8 km/h (1 Bft)
13.10.2016 10:02 0,1 °C 0,1 °C 97 % 1014,9 hPa 0,0 mm 2,3 km/h (1 Bft) O-NO 63 ° 0 min 0,000 mm 0,5 UV-I 60 W/m² -0,3 °C 3,2 km/h (1 Bft)
13.10.2016 10:03 0,1 °C 0,1 °C 97 % 1014,9 hPa 0,0 mm 1,5 km/h (1 Bft) O-NO 63 ° 0 min 0,000 mm 0,5 UV-I 62 W/m² -0,3 °C 3,2 km/h (1 Bft)
13.10.2016 10:04 0,0 °C 0,1 °C 97 % 1014,9 hPa 0,0 mm 1,4 km/h (1 Bft) O-NO 63 ° 0 min 0,000 mm 0,5 UV-I 70 W/m² -0,4 °C 3,2 km/h (1 Bft)
13.10.2016 10:05 0,0 °C 0,1 °C 97 % 1014,9 hPa 0,0 mm 0,9 km/h (0 Bft) O-NO 65 ° 0 min 0,000 mm 0,6 UV-I 70 W/m² -0,4 °C 3,2 km/h (1 Bft)
13.10.2016 10:06 0,0 °C 0,1 °C 97 % 1014,9 hPa 0,0 mm 0,0 km/h (0 Bft) O-NO 65 ° 0 min 0,000 mm 0,6 UV-I 70 W/m² -0,4 °C 0,0 km/h (0 Bft)
13.10.2016 10:07 0,0 °C 0,0 °C 97 % 1014,9 hPa 0,0 mm 0,3 km/h (0 Bft) O-NO 65 ° 0 min 0,000 mm 0,6 UV-I 79 W/m² -0,4 °C 1,6 km/h (1 Bft)
13.10.2016 10:08 0,0 °C 0,0 °C 97 % 1014,9 hPa 0,0 mm 0,7 km/h (0 Bft) O-NO 65 ° 0 min 0,000 mm 0,7 UV-I 93 W/m² -0,4 °C 1,6 km/h (1 Bft)
13.10.2016 10:09 0,1 °C 0,1 °C 97 % 1014,9 hPa 0,0 mm 2,4 km/h (1 Bft) O-NO 65 ° 0 min 0,000 mm 0,7 UV-I 100 W/m² -0,3 °C 3,2 km/h (1 Bft)
13.10.2016 10:10 0,1 °C 0,1 °C 97 % 1014,9 hPa 0,0 mm 0,8 km/h (0 Bft) O-NO 65 ° 0 min 0,000 mm 0,7 UV-I 105 W/m² -0,3 °C 3,2 km/h (1 Bft)
13.10.2016 10:11 0,1 °C 0,1 °C 97 % 1014,9 hPa 0,0 mm 0,9 km/h (0 Bft) O-NO 65 ° 0 min 0,000 mm 0,7 UV-I 105 W/m² -0,3 °C 1,6 km/h (1 Bft)
13.10.2016 10:12 0,1 °C 0,1 °C 97 % 1014,9 hPa 0,0 mm 1,4 km/h (1 Bft) O-NO 65 ° 0 min 0,000 mm 0,7 UV-I 100 W/m² -0,3 °C 3,2 km/h (1 Bft)
13.10.2016 10:13 0,1 °C 0,1 °C 97 % 1014,8 hPa 0,0 mm 1,0 km/h (0 Bft) O-NO 65 ° 0 min 0,000 mm 0,7 UV-I 98 W/m² -0,3 °C 1,6 km/h (1 Bft)
13.10.2016 10:14 0,1 °C 0,1 °C 97 % 1014,8 hPa 0,0 mm 2,5 km/h (1 Bft) O-NO 65 ° 0 min 0,000 mm 0,7 UV-I 100 W/m² -0,3 °C 4,8 km/h (1 Bft)
13.10.2016 10:15 0,1 °C 0,1 °C 97 % 1014,8 hPa 0,0 mm 1,7 km/h (1 Bft) O-NO 65 ° 0 min 0,000 mm 0,7 UV-I 105 W/m² -0,3 °C 3,2 km/h (1 Bft)
13.10.2016 10:16 0,2 °C 0,2 °C 97 % 1014,7 hPa 0,0 mm 2,2 km/h (1 Bft) O-NO 65 ° 0 min 0,000 mm 0,7 UV-I 102 W/m² -0,2 °C 3,2 km/h (1 Bft)
13.10.2016 10:17 0,2 °C 0,2 °C 97 % 1014,8 hPa 0,0 mm 2,1 km/h (1 Bft) NO 34 ° 0 min 0,000 mm 0,7 UV-I 98 W/m² -0,2 °C 3,2 km/h (1 Bft)
13.10.2016 10:18 0,2 °C 0,2 °C 97 % 1014,7 hPa 0,0 mm 1,7 km/h (1 Bft) NO 34 ° 0 min 0,000 mm 0,7 UV-I 91 W/m² -0,2 °C 3,2 km/h (1 Bft)
13.10.2016 10:19 0,3 °C 0,3 °C 97 % 1014,8 hPa 0,0 mm 1,9 km/h (1 Bft) NO 34 ° 0 min 0,000 mm 0,7 UV-I 90 W/m² -0,1 °C 3,2 km/h (1 Bft)
13.10.2016 10:20 0,3 °C 0,3 °C 97 % 1014,8 hPa 0,0 mm 2,2 km/h (1 Bft) NO 34 ° 0 min 0,000 mm 0,7 UV-I 86 W/m² -0,1 °C 3,2 km/h (1 Bft)
13.10.2016 10:21 0,3 °C 0,3 °C 97 % 1014,8 hPa 0,0 mm 1,8 km/h (1 Bft) NO 34 ° 0 min 0,000 mm 0,7 UV-I 86 W/m² -0,1 °C 3,2 km/h (1 Bft)
13.10.2016 10:22 0,3 °C 0,3 °C 97 % 1014,8 hPa 0,0 mm 0,9 km/h (0 Bft) NO 34 ° 0 min 0,000 mm 0,7 UV-I 83 W/m² -0,1 °C 3,2 km/h (1 Bft)
13.10.2016 10:23 0,3 °C 0,3 °C 97 % 1014,9 hPa 0,0 mm 0,5 km/h (0 Bft) NO 34 ° 0 min 0,000 mm 0,7 UV-I 88 W/m² -0,1 °C 1,6 km/h (1 Bft)
13.10.2016 10:24 0,3 °C 0,3 °C 97 % 1014,8 hPa 0,0 mm 1,4 km/h (1 Bft) NO 34 ° 0 min 0,000 mm 0,7 UV-I 95 W/m² -0,1 °C 3,2 km/h (1 Bft)
13.10.2016 10:25 0,3 °C 0,3 °C 97 % 1014,9 hPa 0,0 mm 1,6 km/h (1 Bft) NO 35 ° 0 min 0,000 mm 0,7 UV-I 97 W/m² -0,1 °C 4,8 km/h (1 Bft)
13.10.2016 10:26 0,3 °C 0,3 °C 97 % 1014,8 hPa 0,0 mm 5,3 km/h (1 Bft) NO 44 ° 0 min 0,000 mm 0,7 UV-I 90 W/m² -0,1 °C 6,4 km/h (2 Bft)
13.10.2016 10:27 0,3 °C 0,3 °C 97 % 1014,8 hPa 0,0 mm 5,0 km/h (1 Bft) NO 34 ° 0 min 0,000 mm 0,7 UV-I 88 W/m² -0,1 °C 6,4 km/h (2 Bft)
13.10.2016 10:28 0,3 °C 0,3 °C 97 % 1014,8 hPa 0,0 mm 5,0 km/h (1 Bft) N-NO 30 ° 0 min 0,000 mm 0,7 UV-I 88 W/m² -0,1 °C 8,0 km/h (2 Bft)
13.10.2016 10:29 0,3 °C 0,3 °C 97 % 1014,9 hPa 0,0 mm 4,6 km/h (1 Bft) N-NO 32 ° 0 min 0,000 mm 0,7 UV-I 84 W/m² -0,1 °C 8,0 km/h (2 Bft)
13.10.2016 10:30 0,4 °C 0,4 °C 97 % 1014,8 hPa 0,0 mm 1,5 km/h (1 Bft) N-NO 32 ° 0 min 0,000 mm 0,7 UV-I 90 W/m² -0,0 °C 3,2 km/h (1 Bft)
13.10.2016 10:31 0,3 °C 0,4 °C 97 % 1014,8 hPa 0,0 mm 2,4 km/h (1 Bft) NO 34 ° 0 min 0,000 mm 0,7 UV-I 86 W/m² -0,1 °C 4,8 km/h (1 Bft)
13.10.2016 10:32 0,4 °C 0,4 °C 97 % 1014,8 hPa 0,0 mm 1,9 km/h (1 Bft) O 79 ° 0 min 0,000 mm 0,7 UV-I 88 W/m² -0,0 °C 6,4 km/h (2 Bft)
13.10.2016 10:33 0,4 °C 0,4 °C 97 % 1014,8 hPa 0,0 mm 2,7 km/h (1 Bft) NO 49 ° 0 min 0,000 mm 0,7 UV-I 88 W/m² -0,0 °C 4,8 km/h (1 Bft)
13.10.2016 10:34 0,4 °C 0,4 °C 97 % 1014,8 hPa 0,0 mm 3,4 km/h (1 Bft) NO 45 ° 0 min 0,000 mm 0,7 UV-I 90 W/m² -0,0 °C 6,4 km/h (2 Bft)
13.10.2016 10:35 0,3 °C 0,4 °C 97 % 1014,8 hPa 0,0 mm 2,2 km/h (1 Bft) NO 45 ° 0 min 0,000 mm 0,7 UV-I 91 W/m² -0,1 °C 4,8 km/h (1 Bft)
13.10.2016 10:36 0,3 °C 0,3 °C 97 % 1014,8 hPa 0,0 mm 1,9 km/h (1 Bft) NO 45 ° 0 min 0,000 mm 0,8 UV-I 100 W/m² -0,1 °C 4,8 km/h (1 Bft)
13.10.2016 10:37 0,3 °C 0,3 °C 97 % 1014,8 hPa 0,0 mm 1,7 km/h (1 Bft) NO 45 ° 0 min 0,000 mm 0,8 UV-I 121 W/m² -0,1 °C 3,2 km/h (1 Bft)
13.10.2016 10:38 0,3 °C 0,3 °C 97 % 1014,8 hPa 0,0 mm 1,3 km/h (1 Bft) NO 45 ° 0 min 0,000 mm 0,9 UV-I 130 W/m² -0,1 °C 3,2 km/h (1 Bft)
13.10.2016 10:39 0,3 °C 0,3 °C 97 % 1014,8 hPa 0,0 mm 1,8 km/h (1 Bft) NO 46 ° 0 min 0,000 mm 0,9 UV-I 139 W/m² -0,1 °C 3,2 km/h (1 Bft)
13.10.2016 10:40 0,4 °C 0,4 °C 97 % 1014,8 hPa 0,0 mm 4,8 km/h (1 Bft) NO 56 ° 0 min 0,000 mm 0,9 UV-I 130 W/m² -0,0 °C 4,8 km/h (1 Bft)
13.10.2016 10:41 0,3 °C 0,4 °C 97 % 1014,8 hPa 0,0 mm 3,7 km/h (1 Bft) O-NO 71 ° 0 min 0,000 mm 0,9 UV-I 125 W/m² -0,1 °C 6,4 km/h (2 Bft)
13.10.2016 10:42 0,3 °C 0,4 °C 97 % 1014,8 hPa 0,0 mm 5,8 km/h (2 Bft) O-NO 59 ° 0 min 0,000 mm 0,9 UV-I 121 W/m² -0,1 °C 8,0 km/h (2 Bft)
13.10.2016 10:43 0,4 °C 0,4 °C 97 % 1014,8 hPa 0,0 mm 4,8 km/h (1 Bft) NO 49 ° 0 min 0,000 mm 0,9 UV-I 125 W/m² -0,0 °C 8,0 km/h (2 Bft)
13.10.2016 10:44 0,4 °C 0,4 °C 97 % 1014,8 hPa 0,0 mm 2,3 km/h (1 Bft) NO 43 ° 0 min 0,000 mm 0,9 UV-I 130 W/m² -0,0 °C 4,8 km/h (1 Bft)
13.10.2016 10:45 0,3 °C 0,4 °C 97 % 1014,8 hPa 0,0 mm 3,6 km/h (1 Bft) NO 50 ° 0 min 0,000 mm 0,9 UV-I 132 W/m² -0,1 °C 8,0 km/h (2 Bft)
13.10.2016 10:46 0,3 °C 0,3 °C 97 % 1014,8 hPa 0,0 mm 4,4 km/h (1 Bft) NO 43 ° 0 min 0,000 mm 0,9 UV-I 135 W/m² -0,1 °C 8,0 km/h (2 Bft)
13.10.2016 10:47 0,3 °C 0,3 °C 97 % 1014,8 hPa 0,0 mm 2,5 km/h (1 Bft) NO 45 ° 0 min 0,000 mm 0,9 UV-I 132 W/m² -0,1 °C 3,2 km/h (1 Bft)
13.10.2016 10:48 0,3 °C 0,3 °C 97 % 1014,8 hPa 0,0 mm 6,0 km/h (2 Bft) NO 41 ° 0 min 0,000 mm 0,8 UV-I 127 W/m² -0,1 °C 9,7 km/h (2 Bft)
13.10.2016 10:49 0,3 °C 0,3 °C 97 % 1014,8 hPa 0,0 mm 5,0 km/h (1 Bft) O-NO 70 ° 0 min 0,000 mm 0,8 UV-I 113 W/m² -0,1 °C 8,0 km/h (2 Bft)
13.10.2016 10:50 0,3 °C 0,3 °C 97 % 1014,8 hPa 0,0 mm 2,8 km/h (1 Bft) O-NO 69 ° 0 min 0,000 mm 0,8 UV-I 111 W/m² -0,1 °C 4,8 km/h (1 Bft)
13.10.2016 10:51 0,4 °C 0,4 °C 97 % 1014,8 hPa 0,0 mm 2,5 km/h (1 Bft) NO 53 ° 0 min 0,000 mm 0,8 UV-I 111 W/m² -0,0 °C 4,8 km/h (1 Bft)
13.10.2016 10:52 0,4 °C 0,4 °C 97 % 1014,7 hPa 0,0 mm 2,9 km/h (1 Bft) N-NW 334 ° 0 min 0,000 mm 0,8 UV-I 109 W/m² -0,0 °C 4,8 km/h (1 Bft)
13.10.2016 10:53 0,5 °C 0,5 °C 97 % 1014,8 hPa 0,0 mm 3,6 km/h (1 Bft) N 360 ° 0 min 0,000 mm 0,8 UV-I 105 W/m² 0,1 °C 6,4 km/h (2 Bft)
13.10.2016 10:54 0,5 °C 0,6 °C 97 % 1014,9 hPa 0,0 mm 3,7 km/h (1 Bft) N 5 ° 0 min 0,000 mm 0,8 UV-I 100 W/m² 0,1 °C 4,8 km/h (1 Bft)
13.10.2016 10:55 0,4 °C 0,5 °C 97 % 1014,8 hPa 0,0 mm 2,7 km/h (1 Bft) N 5 ° 0 min 0,000 mm 0,8 UV-I 100 W/m² -0,0 °C 4,8 km/h (1 Bft)
13.10.2016 10:56 0,4 °C 0,4 °C 97 % 1014,9 hPa 0,0 mm 3,9 km/h (1 Bft) O-NO 69 ° 0 min 0,000 mm 0,8 UV-I 102 W/m² -0,0 °C 6,4 km/h (2 Bft)
13.10.2016 10:57 0,3 °C 0,4 °C 97 % 1014,9 hPa 0,0 mm 4,2 km/h (1 Bft) O-NO 77 ° 0 min 0,000 mm 0,8 UV-I 100 W/m² -0,1 °C 6,4 km/h (2 Bft)
13.10.2016 10:58 0,3 °C 0,3 °C 97 % 1014,8 hPa 0,0 mm 3,2 km/h (1 Bft) O-NO 77 ° 0 min 0,000 mm 0,8 UV-I 98 W/m² -0,1 °C 4,8 km/h (1 Bft)
13.10.2016 10:59 0,3 °C 0,3 °C 97 % 1014,8 hPa 0,0 mm 3,6 km/h (1 Bft) NO 48 ° 0 min 0,000 mm 0,8 UV-I 91 W/m² -0,1 °C 4,8 km/h (1 Bft)
13.10.2016 11:00 0,3 °C 0,4 °C 97 % 1014,8 hPa 0,0 mm 2,6 km/h (1 Bft) NO 48 ° 0 min 0,025 mm 0,8 UV-I 107 W/m² -0,1 °C 4,8 km/h (1 Bft)
13.10.2016 11:01 0,4 °C 0,4 °C 97 % 1014,8 hPa 0,0 mm 3,5 km/h (1 Bft) NO 55 ° 0 min 0,000 mm 0,8 UV-I 111 W/m² -0,0 °C 11,3 km/h (2 Bft)
13.10.2016 11:02 0,4 °C 0,4 °C 97 % 1014,9 hPa 0,0 mm 3,0 km/h (1 Bft) NO 45 ° 0 min 0,000 mm 0,9 UV-I 118 W/m² -0,0 °C 4,8 km/h (1 Bft)
13.10.2016 11:03 0,4 °C 0,4 °C 97 % 1014,9 hPa 0,0 mm 3,8 km/h (1 Bft) NO 56 ° 0 min 0,000 mm 0,9 UV-I 127 W/m² -0,0 °C 6,4 km/h (2 Bft)
13.10.2016 11:04 0,4 °C 0,4 °C 97 % 1014,9 hPa 0,0 mm 6,8 km/h (2 Bft) NO 38 ° 0 min 0,000 mm 0,9 UV-I 134 W/m² -0,0 °C 9,7 km/h (2 Bft)
13.10.2016 11:05 0,3 °C 0,4 °C 97 % 1014,9 hPa 0,0 mm 6,0 km/h (2 Bft) O-NO 59 ° 0 min 0,000 mm 0,9 UV-I 134 W/m² -0,1 °C 8,0 km/h (2 Bft)
13.10.2016 11:06 0,3 °C 0,3 °C 97 % 1014,8 hPa 0,0 mm 3,6 km/h (1 Bft) NO 44 ° 0 min 0,000 mm 1,0 UV-I 146 W/m² -0,1 °C 6,4 km/h (2 Bft)
13.10.2016 11:07 0,3 °C 0,3 °C 97 % 1014,8 hPa 0,0 mm 4,2 km/h (1 Bft) N-NO 32 ° 0 min 0,000 mm 1,1 UV-I 142 W/m² -0,1 °C 6,4 km/h (2 Bft)
13.10.2016 11:08 0,3 °C 0,3 °C 97 % 1014,8 hPa 0,0 mm 4,6 km/h (1 Bft) N-NO 25 ° 0 min 0,000 mm 1,0 UV-I 148 W/m² -0,1 °C 6,4 km/h (2 Bft)
13.10.2016 11:09 0,3 °C 0,3 °C 97 % 1014,8 hPa 0,0 mm 5,0 km/h (1 Bft) NO 42 ° 0 min 0,000 mm 1,0 UV-I 155 W/m² -0,1 °C 6,4 km/h (2 Bft)
13.10.2016 11:10 0,3 °C 0,3 °C 97 % 1014,7 hPa 0,0 mm 3,3 km/h (1 Bft) NO 41 ° 0 min 0,000 mm 1,1 UV-I 156 W/m² -0,1 °C 4,8 km/h (1 Bft)
13.10.2016 11:11 0,3 °C 0,3 °C 97 % 1014,8 hPa 0,0 mm 4,2 km/h (1 Bft) N 355 ° 0 min 0,000 mm 1,1 UV-I 162 W/m² -0,1 °C 4,8 km/h (1 Bft)
13.10.2016 11:12 0,4 °C 0,4 °C 97 % 1014,8 hPa 0,0 mm 1,9 km/h (1 Bft) N-NO 26 ° 0 min 0,000 mm 1,1 UV-I 160 W/m² -0,0 °C 3,2 km/h (1 Bft)
13.10.2016 11:13 0,4 °C 0,4 °C 97 % 1014,8 hPa 0,0 mm 4,1 km/h (1 Bft) NO 39 ° 0 min 0,000 mm 1,1 UV-I 153 W/m² -0,0 °C 6,4 km/h (2 Bft)
13.10.2016 11:14 0,4 °C 0,4 °C 97 % 1014,8 hPa 0,0 mm 4,0 km/h (1 Bft) NO 44 ° 0 min 0,000 mm 1,1 UV-I 155 W/m² -0,0 °C 6,4 km/h (2 Bft)
13.10.2016 11:15 0,3 °C 0,4 °C 97 % 1014,8 hPa 0,0 mm 1,9 km/h (1 Bft) NO 45 ° 0 min 0,000 mm 1,2 UV-I 160 W/m² -0,1 °C 3,2 km/h (1 Bft)
13.10.2016 11:16 0,3 °C 0,3 °C 97 % 1014,7 hPa 0,0 mm 1,5 km/h (1 Bft) O-NO 61 ° 0 min 0,000 mm 1,3 UV-I 172 W/m² -0,1 °C 4,8 km/h (1 Bft)
13.10.2016 11:17 0,4 °C 0,4 °C 97 % 1014,7 hPa 0,0 mm 4,9 km/h (1 Bft) O-NO 61 ° 0 min 0,000 mm 1,4 UV-I 174 W/m² -0,0 °C 8,0 km/h (2 Bft)
13.10.2016 11:18 0,4 °C 0,4 °C 97 % 1014,7 hPa 0,0 mm 3,5 km/h (1 Bft) NO 55 ° 0 min 0,000 mm 1,4 UV-I 206 W/m² -0,0 °C 4,8 km/h (1 Bft)
13.10.2016 11:19 0,3 °C 0,4 °C 97 % 1014,8 hPa 0,0 mm 3,8 km/h (1 Bft) NO 43 ° 0 min 0,000 mm 1,4 UV-I 214 W/m² -0,1 °C 6,4 km/h (2 Bft)
13.10.2016 11:20 0,3 °C 0,3 °C 97 % 1014,8 hPa 0,0 mm 5,6 km/h (1 Bft) NO 38 ° 0 min 0,000 mm 1,3 UV-I 195 W/m² -0,1 °C 8,0 km/h (2 Bft)
13.10.2016 11:21 0,3 °C 0,3 °C 97 % 1014,8 hPa 0,0 mm 6,0 km/h (2 Bft) N-NO 26 ° 0 min 0,000 mm 1,2 UV-I 167 W/m² -0,1 °C 8,0 km/h (2 Bft)
13.10.2016 11:22 0,3 °C 0,3 °C 97 % 1014,8 hPa 0,0 mm 4,9 km/h (1 Bft) N-NO 32 ° 0 min 0,000 mm 1,1 UV-I 155 W/m² -0,1 °C 6,4 km/h (2 Bft)
13.10.2016 11:23 0,4 °C 0,4 °C 97 % 1014,7 hPa 0,0 mm 4,0 km/h (1 Bft) N 360 ° 0 min 0,000 mm 1,1 UV-I 153 W/m² -0,0 °C 4,8 km/h (1 Bft)
13.10.2016 11:24 0,6 °C 0,6 °C 97 % 1014,8 hPa 0,0 mm 2,7 km/h (1 Bft) NO 49 ° 0 min 0,000 mm 1,1 UV-I 153 W/m² 0,2 °C 4,8 km/h (1 Bft)
13.10.2016 11:25 0,6 °C 0,7 °C 97 % 1014,7 hPa 0,0 mm 1,6 km/h (1 Bft) NO 49 ° 0 min 0,000 mm 1,2 UV-I 156 W/m² 0,2 °C 4,8 km/h (1 Bft)
13.10.2016 11:26 0,6 °C 0,7 °C 97 % 1014,7 hPa 0,0 mm 3,7 km/h (1 Bft) N 355 ° 0 min 0,000 mm 1,2 UV-I 151 W/m² 0,2 °C 6,4 km/h (2 Bft)
13.10.2016 11:27 0,6 °C 0,6 °C 97 % 1014,7 hPa 0,0 mm 5,1 km/h (1 Bft) N 349 ° 0 min 0,000 mm 1,2 UV-I 160 W/m² 0,2 °C 6,4 km/h (2 Bft)
13.10.2016 11:28 0,7 °C 0,7 °C 97 % 1014,7 hPa 0,0 mm 6,3 km/h (2 Bft) N-NO 28 ° 0 min 0,000 mm 1,3 UV-I 156 W/m² 0,3 °C 12,9 km/h (3 Bft)
13.10.2016 11:29 0,7 °C 0,8 °C 97 % 1014,7 hPa 0,0 mm 6,6 km/h (2 Bft) N-NO 26 ° 0 min 0,000 mm 1,2 UV-I 156 W/m² 0,3 °C 9,7 km/h (2 Bft)
13.10.2016 11:30 0,6 °C 0,7 °C 97 % 1014,7 hPa 0,0 mm 2,7 km/h (1 Bft) O-NO 62 ° 0 min 0,000 mm 1,2 UV-I 148 W/m² 0,2 °C 4,8 km/h (1 Bft)
13.10.2016 11:31 0,5 °C 0,6 °C 97 % 1014,6 hPa 0,0 mm 3,4 km/h (1 Bft) N-NO 19 ° 0 min 0,000 mm 1,4 UV-I 165 W/m² 0,1 °C 4,8 km/h (1 Bft)
13.10.2016 11:32 0,6 °C 0,6 °C 97 % 1014,6 hPa 0,0 mm 5,4 km/h (1 Bft) O-NO 74 ° 0 min 0,000 mm 1,4 UV-I 174 W/m² 0,2 °C 8,0 km/h (2 Bft)
13.10.2016 11:33 0,5 °C 0,6 °C 97 % 1014,6 hPa 0,0 mm 5,2 km/h (1 Bft) NO 55 ° 0 min 0,000 mm 1,4 UV-I 174 W/m² 0,1 °C 6,4 km/h (2 Bft)
13.10.2016 11:34 0,5 °C 0,5 °C 97 % 1014,5 hPa 0,0 mm 3,2 km/h (1 Bft) NO 51 ° 0 min 0,000 mm 1,4 UV-I 186 W/m² 0,1 °C 4,8 km/h (1 Bft)
13.10.2016 11:35 0,6 °C 0,6 °C 97 % 1014,5 hPa 0,0 mm 2,6 km/h (1 Bft) NO 48 ° 0 min 0,000 mm 1,4 UV-I 169 W/m² 0,2 °C 4,8 km/h (1 Bft)
13.10.2016 11:36 0,6 °C 0,6 °C 97 % 1014,6 hPa 0,0 mm 1,5 km/h (1 Bft) NO 48 ° 0 min 0,000 mm 1,3 UV-I 172 W/m² 0,2 °C 3,2 km/h (1 Bft)
13.10.2016 11:37 0,7 °C 0,7 °C 97 % 1014,6 hPa 0,0 mm 3,6 km/h (1 Bft) N-NO 13 ° 0 min 0,000 mm 1,3 UV-I 183 W/m² 0,3 °C 6,4 km/h (2 Bft)
13.10.2016 11:38 0,7 °C 0,7 °C 97 % 1014,6 hPa 0,0 mm 3,8 km/h (1 Bft) NO 45 ° 0 min 0,000 mm 1,3 UV-I 165 W/m² 0,3 °C 4,8 km/h (1 Bft)
13.10.2016 11:39 0,6 °C 0,7 °C 97 % 1014,6 hPa 0,0 mm 4,2 km/h (1 Bft) N-NO 19 ° 0 min 0,000 mm 1,2 UV-I 155 W/m² 0,2 °C 6,4 km/h (2 Bft)
13.10.2016 11:40 0,6 °C 0,6 °C 97 % 1014,5 hPa 0,0 mm 4,2 km/h (1 Bft) NO 34 ° 0 min 0,000 mm 1,2 UV-I 158 W/m² 0,2 °C 6,4 km/h (2 Bft)
13.10.2016 11:41 0,4 °C 0,6 °C 97 % 1014,6 hPa 0,0 mm 3,8 km/h (1 Bft) N-NO 15 ° 0 min 0,000 mm 1,2 UV-I 171 W/m² -0,0 °C 4,8 km/h (1 Bft)
13.10.2016 11:42 0,4 °C 0,4 °C 97 % 1014,5 hPa 0,0 mm 4,1 km/h (1 Bft) N-NO 14 ° 0 min 0,000 mm 1,3 UV-I 188 W/m² -0,0 °C 6,4 km/h (2 Bft)
13.10.2016 11:43 0,6 °C 0,6 °C 97 % 1014,5 hPa 0,0 mm 6,0 km/h (2 Bft) NO 52 ° 0 min 0,000 mm 1,3 UV-I 193 W/m² 0,2 °C 8,0 km/h (2 Bft)
13.10.2016 11:44 0,7 °C 0,7 °C 97 % 1014,4 hPa 0,0 mm 4,2 km/h (1 Bft) NO 36 ° 0 min 0,000 mm 1,3 UV-I 197 W/m² 0,3 °C 6,4 km/h (2 Bft)
13.10.2016 11:45 0,7 °C 0,7 °C 97 % 1014,4 hPa 0,0 mm 2,4 km/h (1 Bft) NO 40 ° 0 min 0,000 mm 1,4 UV-I 204 W/m² 0,3 °C 4,8 km/h (1 Bft)
13.10.2016 11:46 0,7 °C 0,7 °C 97 % 1014,4 hPa 0,0 mm 4,7 km/h (1 Bft) NO 42 ° 0 min 0,000 mm 1,4 UV-I 202 W/m² 0,3 °C 8,0 km/h (2 Bft)
13.10.2016 11:47 0,7 °C 0,7 °C 97 % 1014,4 hPa 0,0 mm 3,5 km/h (1 Bft) O-NO 75 ° 0 min 0,000 mm 1,4 UV-I 174 W/m² 0,3 °C 6,4 km/h (2 Bft)
13.10.2016 11:48 0,7 °C 0,7 °C 97 % 1014,3 hPa 0,0 mm 4,2 km/h (1 Bft) O-NO 65 ° 0 min 0,000 mm 1,4 UV-I 174 W/m² 0,3 °C 6,4 km/h (2 Bft)
13.10.2016 11:49 0,7 °C 0,7 °C 97 % 1014,3 hPa 0,0 mm 6,6 km/h (2 Bft) N-NO 33 ° 0 min 0,000 mm 1,4 UV-I 188 W/m² 0,3 °C 9,7 km/h (2 Bft)
13.10.2016 11:50 0,7 °C 0,7 °C 97 % 1014,2 hPa 0,0 mm 6,6 km/h (2 Bft) N 9 ° 0 min 0,000 mm 1,6 UV-I 199 W/m² 0,3 °C 9,7 km/h (2 Bft)
13.10.2016 11:51 0,8 °C 0,8 °C 97 % 1014,2 hPa 0,0 mm 6,2 km/h (2 Bft) NO 42 ° 0 min 0,000 mm 1,6 UV-I 207 W/m² 0,4 °C 11,3 km/h (2 Bft)
13.10.2016 11:52 0,8 °C 0,8 °C 97 % 1014,2 hPa 0,0 mm 4,1 km/h (1 Bft) NO 38 ° 0 min 0,000 mm 1,6 UV-I 185 W/m² 0,4 °C 6,4 km/h (2 Bft)
13.10.2016 11:53 0,7 °C 0,8 °C 97 % 1014,3 hPa 0,0 mm 3,2 km/h (1 Bft) N 5 ° 0 min 0,000 mm 1,5 UV-I 183 W/m² 0,3 °C 6,4 km/h (2 Bft)
13.10.2016 11:54 0,7 °C 0,8 °C 97 % 1014,2 hPa 0,0 mm 3,8 km/h (1 Bft) O 96 ° 0 min 0,000 mm 1,5 UV-I 188 W/m² 0,3 °C 6,4 km/h (2 Bft)
13.10.2016 11:55 0,7 °C 0,7 °C 97 % 1014,2 hPa 0,0 mm 3,2 km/h (1 Bft) O-NO 70 ° 0 min 0,000 mm 1,4 UV-I 185 W/m² 0,3 °C 4,8 km/h (1 Bft)
13.10.2016 11:56 0,7 °C 0,7 °C 97 % 1014,2 hPa 0,0 mm 2,0 km/h (1 Bft) O-NO 76 ° 0 min 0,000 mm 1,5 UV-I 195 W/m² 0,3 °C 3,2 km/h (1 Bft)
13.10.2016 11:57 0,8 °C 0,8 °C 96 % 1014,2 hPa 0,0 mm 5,5 km/h (1 Bft) N-NO 24 ° 0 min 0,000 mm 1,5 UV-I 207 W/m² 0,2 °C 8,0 km/h (2 Bft)
13.10.2016 11:58 0,8 °C 0,8 °C 96 % 1014,1 hPa 0,0 mm 4,8 km/h (1 Bft) N-NW 346 ° 0 min 0,000 mm 1,5 UV-I 206 W/m² 0,2 °C 8,0 km/h (2 Bft)
13.10.2016 11:59 0,8 °C 0,8 °C 96 % 1014,2 hPa 0,0 mm 6,1 km/h (2 Bft) N-NO 32 ° 0 min 0,000 mm 1,4 UV-I 207 W/m² 0,2 °C 11,3 km/h (2 Bft)
13.10.2016 12:00 0,9 °C 0,9 °C 96 % 1014,1 hPa 0,0 mm 5,0 km/h (1 Bft) O-NO 63 ° 0 min 0,051 mm 1,3 UV-I 207 W/m² 0,3 °C 8,0 km/h (2 Bft)
13.10.2016 12:01 0,9 °C 0,9 °C 97 % 1014,2 hPa 0,0 mm 7,7 km/h (2 Bft) N-NO 33 ° 0 min 0,000 mm 1,3 UV-I 190 W/m² 0,5 °C 9,7 km/h (2 Bft)
13.10.2016 12:02 0,9 °C 0,9 °C 97 % 1014,2 hPa 0,0 mm 5,8 km/h (2 Bft) N-NO 31 ° 0 min 0,000 mm 1,2 UV-I 176 W/m² 0,5 °C 9,7 km/h (2 Bft)
13.10.2016 12:03 0,9 °C 0,9 °C 97 % 1014,2 hPa 0,0 mm 6,2 km/h (2 Bft) NO 54 ° 0 min 0,000 mm 1,1 UV-I 176 W/m² 0,5 °C 8,0 km/h (2 Bft)
13.10.2016 12:04 0,9 °C 0,9 °C 97 % 1014,1 hPa 0,0 mm 5,5 km/h (1 Bft) N-NO 18 ° 0 min 0,000 mm 1,1 UV-I 153 W/m² 0,5 °C 8,0 km/h (2 Bft)
13.10.2016 12:05 0,9 °C 0,9 °C 97 % 1014,1 hPa 0,0 mm 5,8 km/h (2 Bft) NO 56 ° 0 min 0,000 mm 1,1 UV-I 130 W/m² 0,5 °C 8,0 km/h (2 Bft)
13.10.2016 12:06 0,9 °C 0,9 °C 97 % 1014,1 hPa 0,0 mm 5,8 km/h (2 Bft) NO 53 ° 0 min 0,000 mm 1,1 UV-I 146 W/m² 0,5 °C 8,0 km/h (2 Bft)
13.10.2016 12:07 0,9 °C 0,9 °C 96 % 1014,1 hPa 0,0 mm 4,0 km/h (1 Bft) O-NO 67 ° 0 min 0,000 mm 1,1 UV-I 137 W/m² 0,3 °C 6,4 km/h (2 Bft)
13.10.2016 12:08 0,9 °C 0,9 °C 96 % 1014,1 hPa 0,0 mm 2,8 km/h (1 Bft) N-NO 16 ° 0 min 0,000 mm 1,0 UV-I 134 W/m² 0,3 °C 4,8 km/h (1 Bft)
13.10.2016 12:09 0,9 °C 0,9 °C 96 % 1014,1 hPa 0,0 mm 3,2 km/h (1 Bft) N-NO 27 ° 0 min 0,000 mm 1,1 UV-I 141 W/m² 0,3 °C 6,4 km/h (2 Bft)
13.10.2016 12:10 0,9 °C 0,9 °C 96 % 1014,1 hPa 0,0 mm 4,8 km/h (1 Bft) NO 36 ° 0 min 0,000 mm 1,1 UV-I 144 W/m² 0,3 °C 6,4 km/h (2 Bft)
13.10.2016 12:11 0,9 °C 0,9 °C 96 % 1014,2 hPa 0,0 mm 6,3 km/h (2 Bft) O 81 ° 0 min 0,000 mm 1,2 UV-I 162 W/m² 0,3 °C 11,3 km/h (2 Bft)
13.10.2016 12:12 0,9 °C 0,9 °C 96 % 1014,1 hPa 0,0 mm 5,8 km/h (2 Bft) NO 48 ° 0 min 0,000 mm 1,3 UV-I 160 W/m² 0,3 °C 11,3 km/h (2 Bft)
13.10.2016 12:13 0,9 °C 0,9 °C 96 % 1014,2 hPa 0,0 mm 7,4 km/h (2 Bft) O-NO 76 ° 0 min 0,000 mm 1,3 UV-I 167 W/m² 0,3 °C 12,9 km/h (3 Bft)
13.10.2016 12:14 0,9 °C 0,9 °C 96 % 1014,2 hPa 0,0 mm 6,3 km/h (2 Bft) O-NO 61 ° 0 min 0,000 mm 1,4 UV-I 181 W/m² 0,3 °C 12,9 km/h (3 Bft)
13.10.2016 12:15 0,9 °C 0,9 °C 96 % 1014,2 hPa 0,0 mm 5,2 km/h (1 Bft) N-NO 13 ° 0 min 0,000 mm 1,4 UV-I 190 W/m² 0,3 °C 8,0 km/h (2 Bft)
13.10.2016 12:16 0,9 °C 0,9 °C 96 % 1014,1 hPa 0,0 mm 6,0 km/h (2 Bft) N-NO 30 ° 0 min 0,000 mm 1,5 UV-I 192 W/m² 0,3 °C 8,0 km/h (2 Bft)
13.10.2016 12:17 1,0 °C 1,0 °C 96 % 1014,1 hPa 0,0 mm 4,6 km/h (1 Bft) O-NO 77 ° 0 min 0,000 mm 1,5 UV-I 197 W/m² 0,4 °C 6,4 km/h (2 Bft)
13.10.2016 12:18 1,0 °C 1,0 °C 96 % 1014,1 hPa 0,0 mm 5,6 km/h (1 Bft) O-NO 60 ° 0 min 0,000 mm 1,5 UV-I 199 W/m² 0,4 °C 8,0 km/h (2 Bft)
13.10.2016 12:19 1,0 °C 1,1 °C 96 % 1014,0 hPa 0,0 mm 5,9 km/h (2 Bft) NO 41 ° 0 min 0,000 mm 1,7 UV-I 230 W/m² 0,4 °C 9,7 km/h (2 Bft)
13.10.2016 12:20 1,1 °C 1,1 °C 96 % 1014,0 hPa 0,0 mm 5,1 km/h (1 Bft) O-NO 66 ° 0 min 0,000 mm 1,7 UV-I 262 W/m² 0,5 °C 9,7 km/h (2 Bft)
13.10.2016 12:21 1,1 °C 1,1 °C 96 % 1013,9 hPa 0,0 mm 8,2 km/h (2 Bft) NO 51 ° 0 min 0,000 mm 1,7 UV-I 292 W/m² 0,5 °C 16,1 km/h (3 Bft)
13.10.2016 12:22 1,2 °C 1,2 °C 96 % 1013,9 hPa 0,0 mm 6,7 km/h (2 Bft) O-NO 69 ° 0 min 0,000 mm 1,7 UV-I 264 W/m² 0,6 °C 14,5 km/h (3 Bft)
13.10.2016 12:23 1,1 °C 1,2 °C 96 % 1013,9 hPa 0,0 mm 6,5 km/h (2 Bft) O 86 ° 0 min 0,000 mm 1,6 UV-I 264 W/m² 0,5 °C 11,3 km/h (2 Bft)
13.10.2016 12:24 1,2 °C 1,2 °C 96 % 1013,8 hPa 0,0 mm 4,2 km/h (1 Bft) N-NO 32 ° 0 min 0,000 mm 1,7 UV-I 283 W/m² 0,6 °C 8,0 km/h (2 Bft)
13.10.2016 12:25 1,3 °C 1,3 °C 96 % 1013,8 hPa 0,0 mm 6,9 km/h (2 Bft) N-NO 18 ° 0 min 0,000 mm 1,6 UV-I 274 W/m² 0,7 °C 11,3 km/h (2 Bft)
13.10.2016 12:26 1,3 °C 1,3 °C 96 % 1013,8 hPa 0,0 mm 4,5 km/h (1 Bft) O 100 ° 0 min 0,000 mm 1,6 UV-I 255 W/m² 0,7 °C 6,4 km/h (2 Bft)
13.10.2016 12:27 1,3 °C 1,3 °C 96 % 1013,8 hPa 0,0 mm 4,8 km/h (1 Bft) NO 52 ° 0 min 0,000 mm 1,6 UV-I 274 W/m² 0,7 °C 6,4 km/h (2 Bft)
13.10.2016 12:28 1,3 °C 1,3 °C 96 % 1013,8 hPa 0,0 mm 5,9 km/h (2 Bft) O 80 ° 0 min 0,000 mm 1,6 UV-I 239 W/m² 0,7 °C 11,3 km/h (2 Bft)
13.10.2016 12:29 1,3 °C 1,3 °C 96 % 1013,7 hPa 0,0 mm 4,7 km/h (1 Bft) O-NO 75 ° 0 min 0,000 mm 1,5 UV-I 223 W/m² 0,7 °C 6,4 km/h (2 Bft)
13.10.2016 12:30 1,3 °C 1,3 °C 96 % 1013,7 hPa 0,0 mm 3,2 km/h (1 Bft) N 5 ° 0 min 0,000 mm 1,4 UV-I 206 W/m² 0,7 °C 6,4 km/h (2 Bft)
13.10.2016 12:31 1,4 °C 1,4 °C 96 % 1013,8 hPa 0,0 mm 2,4 km/h (1 Bft) O-NO 76 ° 0 min 0,000 mm 1,5 UV-I 213 W/m² 0,8 °C 4,8 km/h (1 Bft)
13.10.2016 12:32 1,5 °C 1,5 °C 96 % 1013,7 hPa 0,0 mm 6,4 km/h (2 Bft) O-NO 63 ° 0 min 0,000 mm 1,5 UV-I 221 W/m² 0,9 °C 9,7 km/h (2 Bft)
13.10.2016 12:33 1,6 °C 1,6 °C 96 % 1013,7 hPa 0,0 mm 7,8 km/h (2 Bft) O-NO 61 ° 0 min 0,000 mm 1,5 UV-I 211 W/m² 1,0 °C 11,3 km/h (2 Bft)
13.10.2016 12:34 1,5 °C 1,6 °C 96 % 1013,7 hPa 0,0 mm 4,6 km/h (1 Bft) O-NO 77 ° 0 min 0,000 mm 1,7 UV-I 234 W/m² 0,9 °C 9,7 km/h (2 Bft)
13.10.2016 12:35 1,4 °C 1,5 °C 95 % 1013,7 hPa 0,0 mm 4,0 km/h (1 Bft) NO 51 ° 0 min 0,000 mm 1,9 UV-I 258 W/m² 0,7 °C 9,7 km/h (2 Bft)
13.10.2016 12:36 1,4 °C 1,4 °C 95 % 1013,6 hPa 0,0 mm 3,2 km/h (1 Bft) NO 38 ° 0 min 0,000 mm 1,9 UV-I 251 W/m² 0,7 °C 6,4 km/h (2 Bft)
13.10.2016 12:37 1,4 °C 1,4 °C 95 % 1013,6 hPa 0,0 mm 10,2 km/h (2 Bft) NO 55 ° 0 min 0,000 mm 1,8 UV-I 241 W/m² 0,7 °C 16,1 km/h (3 Bft)
13.10.2016 12:38 1,4 °C 1,4 °C 95 % 1013,6 hPa 0,0 mm 7,8 km/h (2 Bft) O 90 ° 0 min 0,000 mm 1,8 UV-I 244 W/m² 0,7 °C 11,3 km/h (2 Bft)
13.10.2016 12:39 1,4 °C 1,4 °C 95 % 1013,6 hPa 0,0 mm 6,5 km/h (2 Bft) N-NO 17 ° 0 min 0,000 mm 1,8 UV-I 243 W/m² 0,7 °C 11,3 km/h (2 Bft)
13.10.2016 12:40 1,5 °C 1,5 °C 95 % 1013,6 hPa 0,0 mm 9,8 km/h (2 Bft) O-NO 74 ° 0 min 0,000 mm 1,7 UV-I 236 W/m² 0,8 °C 12,9 km/h (3 Bft)
13.10.2016 12:41 1,5 °C 1,6 °C 95 % 1013,6 hPa 0,0 mm 4,8 km/h (1 Bft) N-NO 27 ° 0 min 0,000 mm 1,7 UV-I 227 W/m² 0,8 °C 11,3 km/h (2 Bft)
13.10.2016 12:42 1,6 °C 1,6 °C 95 % 1013,6 hPa 0,0 mm 5,2 km/h (1 Bft) O-NO 66 ° 0 min 0,000 mm 1,8 UV-I 232 W/m² 0,9 °C 8,0 km/h (2 Bft)
13.10.2016 12:43 1,7 °C 1,7 °C 95 % 1013,6 hPa 0,0 mm 10,7 km/h (2 Bft) O-NO 73 ° 0 min 0,000 mm 1,7 UV-I 216 W/m² 1,0 °C 17,7 km/h (3 Bft)
13.10.2016 12:44 1,7 °C 1,7 °C 95 % 1013,6 hPa 0,0 mm 8,2 km/h (2 Bft) O-NO 59 ° 0 min 0,000 mm 1,6 UV-I 192 W/m² 1,0 °C 12,9 km/h (3 Bft)
13.10.2016 12:45 1,6 °C 1,7 °C 94 % 1013,6 hPa 0,0 mm 5,1 km/h (1 Bft) O 87 ° 0 min 0,000 mm 1,6 UV-I 197 W/m² 0,7 °C 9,7 km/h (2 Bft)
13.10.2016 12:46 1,6 °C 1,6 °C 94 % 1013,6 hPa 0,0 mm 6,7 km/h (2 Bft) O-NO 69 ° 0 min 0,000 mm 1,6 UV-I 202 W/m² 0,7 °C 9,7 km/h (2 Bft)
13.10.2016 12:47 1,6 °C 1,6 °C 94 % 1013,7 hPa 0,0 mm 5,3 km/h (1 Bft) NO 49 ° 0 min 0,000 mm 1,5 UV-I 211 W/m² 0,7 °C 6,4 km/h (2 Bft)
13.10.2016 12:48 1,7 °C 1,7 °C 94 % 1013,6 hPa 0,0 mm 6,0 km/h (2 Bft) O-NO 65 ° 0 min 0,000 mm 1,5 UV-I 197 W/m² 0,8 °C 14,5 km/h (3 Bft)
13.10.2016 12:49 1,8 °C 1,8 °C 94 % 1013,6 hPa 0,0 mm 5,5 km/h (1 Bft) N-NO 24 ° 0 min 0,000 mm 1,5 UV-I 192 W/m² 0,9 °C 8,0 km/h (2 Bft)
13.10.2016 12:50 1,8 °C 1,8 °C 94 % 1013,6 hPa 0,0 mm 2,6 km/h (1 Bft) N-NO 28 ° 0 min 0,000 mm 1,4 UV-I 197 W/m² 0,9 °C 4,8 km/h (1 Bft)
13.10.2016 12:51 1,8 °C 1,8 °C 94 % 1013,6 hPa 0,0 mm 3,0 km/h (1 Bft) O-NO 57 ° 0 min 0,000 mm 1,5 UV-I 220 W/m² 0,9 °C 4,8 km/h (1 Bft)
13.10.2016 12:52 1,8 °C 1,8 °C 94 % 1013,7 hPa 0,0 mm 5,0 km/h (1 Bft) N-NO 23 ° 0 min 0,000 mm 1,6 UV-I 248 W/m² 0,9 °C 8,0 km/h (2 Bft)
13.10.2016 12:53 1,8 °C 1,8 °C 94 % 1013,7 hPa 0,0 mm 3,4 km/h (1 Bft) O-NO 57 ° 0 min 0,000 mm 1,7 UV-I 262 W/m² 0,9 °C 4,8 km/h (1 Bft)
13.10.2016 12:54 1,8 °C 1,8 °C 94 % 1013,8 hPa 0,0 mm 2,9 km/h (1 Bft) O-NO 57 ° 0 min 0,000 mm 1,8 UV-I 281 W/m² 0,9 °C 4,8 km/h (1 Bft)
13.10.2016 12:55 1,8 °C 1,8 °C 94 % 1013,7 hPa 0,0 mm 3,9 km/h (1 Bft) O-NO 67 ° 0 min 0,000 mm 1,8 UV-I 292 W/m² 0,9 °C 6,4 km/h (2 Bft)
13.10.2016 12:56 1,9 °C 1,9 °C 94 % 1013,7 hPa 0,0 mm 4,1 km/h (1 Bft) NO 46 ° 0 min 0,000 mm 1,7 UV-I 276 W/m² 1,0 °C 6,4 km/h (2 Bft)
13.10.2016 12:57 2,1 °C 2,1 °C 94 % 1013,7 hPa 0,0 mm 5,0 km/h (1 Bft) O-SO 119 ° 0 min 0,000 mm 1,7 UV-I 281 W/m² 1,2 °C 11,3 km/h (2 Bft)
13.10.2016 12:58 2,0 °C 2,1 °C 94 % 1013,7 hPa 0,0 mm 5,9 km/h (2 Bft) O-NO 78 ° 0 min 0,000 mm 1,7 UV-I 257 W/m² 1,1 °C 9,7 km/h (2 Bft)
13.10.2016 12:59 2,1 °C 2,1 °C 94 % 1013,7 hPa 0,0 mm 4,9 km/h (1 Bft) O 80 ° 0 min 0,000 mm 1,9 UV-I 281 W/m² 1,2 °C 8,0 km/h (2 Bft)
13.10.2016 13:00 2,1 °C 2,1 °C 94 % 1013,7 hPa 0,0 mm 4,4 km/h (1 Bft) O 84 ° 0 min 0,076 mm 1,9 UV-I 308 W/m² 1,2 °C 6,4 km/h (2 Bft)
13.10.2016 13:01 2,1 °C 2,1 °C 94 % 1013,7 hPa 0,0 mm 4,0 km/h (1 Bft) NO 55 ° 0 min 0,000 mm 1,7 UV-I 271 W/m² 1,2 °C 6,4 km/h (2 Bft)
13.10.2016 13:02 2,1 °C 2,1 °C 94 % 1013,6 hPa 0,0 mm 3,4 km/h (1 Bft) O-NO 63 ° 0 min 0,000 mm 1,7 UV-I 237 W/m² 1,2 °C 4,8 km/h (1 Bft)
13.10.2016 13:03 2,2 °C 2,2 °C 94 % 1013,6 hPa 0,0 mm 6,6 km/h (2 Bft) O-NO 78 ° 0 min 0,000 mm 1,8 UV-I 213 W/m² 1,3 °C 11,3 km/h (2 Bft)
13.10.2016 13:04 2,3 °C 2,3 °C 94 % 1013,6 hPa 0,0 mm 6,0 km/h (2 Bft) O-SO 113 ° 0 min 0,000 mm 1,5 UV-I 218 W/m² 1,4 °C 9,7 km/h (2 Bft)
13.10.2016 13:05 2,3 °C 2,3 °C 94 % 1013,7 hPa 0,0 mm 7,6 km/h (2 Bft) O-SO 105 ° 0 min 0,000 mm 1,4 UV-I 190 W/m² 1,4 °C 12,9 km/h (3 Bft)
13.10.2016 13:06 2,3 °C 2,3 °C 94 % 1013,6 hPa 0,0 mm 3,8 km/h (1 Bft) O-NO 61 ° 0 min 0,000 mm 1,6 UV-I 248 W/m² 1,4 °C 9,7 km/h (2 Bft)
13.10.2016 13:07 2,3 °C 2,3 °C 94 % 1013,6 hPa 0,0 mm 2,1 km/h (1 Bft) O-NO 71 ° 0 min 0,000 mm 1,5 UV-I 218 W/m² 1,4 °C 4,8 km/h (1 Bft)
13.10.2016 13:08 2,2 °C 2,3 °C 93 % 1013,6 hPa 0,0 mm 4,8 km/h (1 Bft) NO 53 ° 0 min 0,000 mm 1,5 UV-I 216 W/m² 1,2 °C 8,0 km/h (2 Bft)
13.10.2016 13:09 2,2 °C 2,3 °C 94 % 1013,6 hPa 0,0 mm 2,1 km/h (1 Bft) N 355 ° 0 min 0,000 mm 1,4 UV-I 195 W/m² 1,3 °C 4,8 km/h (1 Bft)
13.10.2016 13:10 2,3 °C 2,3 °C 94 % 1013,6 hPa 0,0 mm 4,5 km/h (1 Bft) N-NO 15 ° 0 min 0,000 mm 1,4 UV-I 193 W/m² 1,4 °C 6,4 km/h (2 Bft)
13.10.2016 13:11 2,4 °C 2,4 °C 94 % 1013,6 hPa 0,0 mm 4,0 km/h (1 Bft) O 93 ° 0 min 0,000 mm 1,5 UV-I 220 W/m² 1,5 °C 6,4 km/h (2 Bft)
13.10.2016 13:12 2,4 °C 2,4 °C 94 % 1013,6 hPa 0,0 mm 6,3 km/h (2 Bft) O 82 ° 0 min 0,000 mm 1,5 UV-I 230 W/m² 1,5 °C 11,3 km/h (2 Bft)
13.10.2016 13:13 2,4 °C 2,4 °C 93 % 1013,6 hPa 0,0 mm 6,5 km/h (2 Bft) O-NO 77 ° 0 min 0,000 mm 1,5 UV-I 209 W/m² 1,4 °C 11,3 km/h (2 Bft)
13.10.2016 13:14 2,4 °C 2,4 °C 93 % 1013,5 hPa 0,0 mm 5,8 km/h (2 Bft) O 80 ° 0 min 0,000 mm 1,5 UV-I 209 W/m² 1,4 °C 9,7 km/h (2 Bft)
13.10.2016 13:15 2,4 °C 2,4 °C 93 % 1013,6 hPa 0,0 mm 6,8 km/h (2 Bft) O-NO 64 ° 0 min 0,000 mm 1,4 UV-I 195 W/m² 1,4 °C 9,7 km/h (2 Bft)
13.10.2016 13:16 2,4 °C 2,4 °C 93 % 1013,5 hPa 0,0 mm 5,0 km/h (1 Bft) O 97 ° 0 min 0,000 mm 1,3 UV-I 181 W/m² 1,4 °C 6,4 km/h (2 Bft)
13.10.2016 13:17 2,4 °C 2,4 °C 93 % 1013,5 hPa 0,0 mm 4,2 km/h (1 Bft) O-NO 64 ° 0 min 0,000 mm 1,3 UV-I 167 W/m² 1,4 °C 8,0 km/h (2 Bft)
13.10.2016 13:18 2,4 °C 2,4 °C 93 % 1013,5 hPa 0,0 mm 2,8 km/h (1 Bft) NO 46 ° 0 min 0,000 mm 1,3 UV-I 181 W/m² 1,4 °C 6,4 km/h (2 Bft)
13.10.2016 13:19 2,6 °C 2,6 °C 94 % 1013,4 hPa 0,0 mm 3,0 km/h (1 Bft) N-NO 26 ° 0 min 0,000 mm 1,4 UV-I 200 W/m² 1,7 °C 8,0 km/h (2 Bft)
13.10.2016 13:20 2,7 °C 2,7 °C 94 % 1013,4 hPa 0,0 mm 6,3 km/h (2 Bft) NO 36 ° 0 min 0,000 mm 1,3 UV-I 186 W/m² 1,8 °C 8,0 km/h (2 Bft)
13.10.2016 13:21 2,7 °C 2,7 °C 94 % 1013,4 hPa 0,0 mm 4,8 km/h (1 Bft) NO 45 ° 0 min 0,000 mm 1,3 UV-I 160 W/m² 1,8 °C 8,0 km/h (2 Bft)
13.10.2016 13:22 2,7 °C 2,8 °C 94 % 1013,4 hPa 0,0 mm 3,0 km/h (1 Bft) O 80 ° 0 min 0,000 mm 1,1 UV-I 149 W/m² 1,8 °C 4,8 km/h (1 Bft)
13.10.2016 13:23 2,8 °C 2,8 °C 94 % 1013,5 hPa 0,0 mm 2,5 km/h (1 Bft) NO 39 ° 0 min 0,000 mm 1,1 UV-I 149 W/m² 1,9 °C 3,2 km/h (1 Bft)
13.10.2016 13:24 2,8 °C 2,8 °C 94 % 1013,4 hPa 0,0 mm 3,1 km/h (1 Bft) N-NO 14 ° 0 min 0,000 mm 1,2 UV-I 162 W/m² 1,9 °C 4,8 km/h (1 Bft)
13.10.2016 13:25 2,9 °C 2,9 °C 94 % 1013,4 hPa 0,0 mm 3,2 km/h (1 Bft) O-SO 118 ° 0 min 0,000 mm 1,1 UV-I 155 W/m² 2,0 °C 8,0 km/h (2 Bft)
13.10.2016 13:26 3,0 °C 3,0 °C 94 % 1013,4 hPa 0,0 mm 3,4 km/h (1 Bft) O 86 ° 0 min 0,000 mm 1,2 UV-I 149 W/m² 2,1 °C 6,4 km/h (2 Bft)
13.10.2016 13:27 3,0 °C 3,0 °C 94 % 1013,3 hPa 0,0 mm 4,4 km/h (1 Bft) O 101 ° 0 min 0,000 mm 1,2 UV-I 172 W/m² 2,1 °C 6,4 km/h (2 Bft)
13.10.2016 13:28 2,9 °C 3,0 °C 94 % 1013,3 hPa 0,0 mm 4,6 km/h (1 Bft) O 80 ° 0 min 0,000 mm 1,3 UV-I 163 W/m² 2,0 °C 6,4 km/h (2 Bft)
13.10.2016 13:29 2,9 °C 2,9 °C 94 % 1013,3 hPa 0,0 mm 4,4 km/h (1 Bft) NO 53 ° 0 min 0,000 mm 1,3 UV-I 174 W/m² 2,0 °C 8,0 km/h (2 Bft)
13.10.2016 13:30 2,9 °C 2,9 °C 94 % 1013,4 hPa 0,0 mm 2,1 km/h (1 Bft) NO 43 ° 0 min 0,000 mm 1,3 UV-I 169 W/m² 2,0 °C 4,8 km/h (1 Bft)
13.10.2016 13:31 3,0 °C 3,0 °C 94 % 1013,4 hPa 0,0 mm 1,3 km/h (1 Bft) NO 43 ° 0 min 0,000 mm 1,3 UV-I 172 W/m² 2,1 °C 3,2 km/h (1 Bft)
13.10.2016 13:32 3,1 °C 3,1 °C 94 % 1013,4 hPa 0,0 mm 0,1 km/h (0 Bft) NO 43 ° 0 min 0,000 mm 1,3 UV-I 174 W/m² 2,2 °C 1,6 km/h (1 Bft)
13.10.2016 13:33 3,1 °C 3,1 °C 94 % 1013,4 hPa 0,0 mm 0,3 km/h (0 Bft) NO 43 ° 0 min 0,000 mm 1,3 UV-I 185 W/m² 2,2 °C 1,6 km/h (1 Bft)
13.10.2016 13:34 3,2 °C 3,2 °C 94 % 1013,4 hPa 0,0 mm 3,6 km/h (1 Bft) O-NO 69 ° 0 min 0,000 mm 1,3 UV-I 176 W/m² 2,3 °C 6,4 km/h (2 Bft)
13.10.2016 13:35 3,2 °C 3,2 °C 94 % 1013,4 hPa 0,0 mm 5,4 km/h (1 Bft) O-NO 65 ° 0 min 0,000 mm 1,4 UV-I 185 W/m² 2,3 °C 8,0 km/h (2 Bft)
13.10.2016 13:36 3,2 °C 3,2 °C 94 % 1013,4 hPa 0,0 mm 6,8 km/h (2 Bft) O-NO 58 ° 0 min 0,000 mm 1,4 UV-I 190 W/m² 2,3 °C 9,7 km/h (2 Bft)
13.10.2016 13:37 3,3 °C 3,3 °C 94 % 1013,3 hPa 0,0 mm 8,4 km/h (2 Bft) O-NO 59 ° 0 min 0,000 mm 1,4 UV-I 195 W/m² 2,4 °C 12,9 km/h (3 Bft)
13.10.2016 13:38 3,3 °C 3,3 °C 94 % 1013,3 hPa 0,0 mm 6,9 km/h (2 Bft) O-NO 65 ° 0 min 0,000 mm 1,4 UV-I 186 W/m² 2,4 °C 9,7 km/h (2 Bft)
13.10.2016 13:39 3,3 °C 3,3 °C 93 % 1013,3 hPa 0,0 mm 5,0 km/h (1 Bft) O-NO 62 ° 0 min 0,000 mm 1,4 UV-I 178 W/m² 2,3 °C 8,0 km/h (2 Bft)
13.10.2016 13:40 3,3 °C 3,3 °C 93 % 1013,3 hPa 0,0 mm 4,0 km/h (1 Bft) NO 49 ° 0 min 0,000 mm 1,4 UV-I 176 W/m² 2,3 °C 6,4 km/h (2 Bft)
13.10.2016 13:41 3,4 °C 3,4 °C 94 % 1013,3 hPa 0,0 mm 1,3 km/h (1 Bft) O-NO 62 ° 0 min 0,000 mm 1,5 UV-I 193 W/m² 2,5 °C 3,2 km/h (1 Bft)
13.10.2016 13:42 3,5 °C 3,5 °C 94 % 1013,3 hPa 0,0 mm 5,8 km/h (2 Bft) O-NO 71 ° 0 min 0,000 mm 1,8 UV-I 241 W/m² 2,6 °C 6,4 km/h (2 Bft)
13.10.2016 13:43 3,6 °C 3,6 °C 94 % 1013,2 hPa 0,0 mm 3,0 km/h (1 Bft) O-NO 69 ° 0 min 0,000 mm 1,8 UV-I 257 W/m² 2,7 °C 4,8 km/h (1 Bft)
13.10.2016 13:44 3,6 °C 3,6 °C 93 % 1013,2 hPa 0,0 mm 5,1 km/h (1 Bft) NO 56 ° 0 min 0,000 mm 1,8 UV-I 239 W/m² 2,6 °C 8,0 km/h (2 Bft)
13.10.2016 13:45 3,6 °C 3,6 °C 93 % 1013,2 hPa 0,0 mm 4,6 km/h (1 Bft) O-NO 70 ° 0 min 0,000 mm 1,7 UV-I 287 W/m² 2,6 °C 6,4 km/h (2 Bft)
13.10.2016 13:46 3,6 °C 3,6 °C 93 % 1013,2 hPa 0,0 mm 4,7 km/h (1 Bft) O 87 ° 0 min 0,000 mm 1,7 UV-I 236 W/m² 2,6 °C 6,4 km/h (2 Bft)
13.10.2016 13:47 3,7 °C 3,7 °C 93 % 1013,3 hPa 0,0 mm 6,9 km/h (2 Bft) O 100 ° 0 min 0,000 mm 1,8 UV-I 216 W/m² 2,7 °C 9,7 km/h (2 Bft)
13.10.2016 13:48 3,7 °C 3,7 °C 93 % 1013,3 hPa 0,0 mm 6,9 km/h (2 Bft) O 85 ° 0 min 0,000 mm 1,9 UV-I 290 W/m² 2,7 °C 11,3 km/h (2 Bft)
13.10.2016 13:49 3,7 °C 3,7 °C 93 % 1013,3 hPa 0,0 mm 3,6 km/h (1 Bft) SO 131 ° 1 min 0,000 mm 2,1 UV-I 315 W/m² 2,7 °C 9,7 km/h (2 Bft)
13.10.2016 13:50 3,8 °C 3,8 °C 93 % 1013,3 hPa 0,0 mm 1,1 km/h (1 Bft) O-SO 109 ° 0 min 0,000 mm 2,0 UV-I 297 W/m² 2,8 °C 3,2 km/h (1 Bft)
13.10.2016 13:51 3,9 °C 3,9 °C 94 % 1013,3 hPa 0,0 mm 1,5 km/h (1 Bft) S-SO 159 ° 0 min 0,000 mm 1,9 UV-I 279 W/m² 3,0 °C 3,2 km/h (1 Bft)
13.10.2016 13:52 4,0 °C 4,0 °C 93 % 1013,4 hPa 0,0 mm 3,8 km/h (1 Bft) NO 44 ° 1 min 0,000 mm 2,2 UV-I 327 W/m² 3,0 °C 6,4 km/h (2 Bft)
13.10.2016 13:53 4,1 °C 4,1 °C 93 % 1013,3 hPa 0,0 mm 3,8 km/h (1 Bft) NO 55 ° 1 min 0,000 mm 2,1 UV-I 323 W/m² 3,1 °C 4,8 km/h (1 Bft)
13.10.2016 13:54 4,2 °C 4,2 °C 93 % 1013,3 hPa 0,0 mm 2,2 km/h (1 Bft) O 92 ° 1 min 0,000 mm 2,1 UV-I 309 W/m² 3,2 °C 3,2 km/h (1 Bft)
13.10.2016 13:55 4,3 °C 4,3 °C 92 % 1013,3 hPa 0,0 mm 6,6 km/h (2 Bft) O-NO 76 ° 0 min 0,000 mm 2,1 UV-I 295 W/m² 3,1 °C 12,9 km/h (3 Bft)
13.10.2016 13:56 4,3 °C 4,3 °C 92 % 1013,2 hPa 0,0 mm 6,3 km/h (2 Bft) O 99 ° 1 min 0,000 mm 2,2 UV-I 320 W/m² 3,1 °C 11,3 km/h (2 Bft)
13.10.2016 13:57 4,3 °C 4,3 °C 92 % 1013,2 hPa 0,0 mm 5,4 km/h (1 Bft) NO 49 ° 0 min 0,000 mm 2,2 UV-I 278 W/m² 3,1 °C 11,3 km/h (2 Bft)
13.10.2016 13:58 4,3 °C 4,3 °C 92 % 1013,2 hPa 0,0 mm 5,5 km/h (1 Bft) O-NO 62 ° 1 min 0,000 mm 2,2 UV-I 346 W/m² 3,1 °C 8,0 km/h (2 Bft)
13.10.2016 13:59 4,4 °C 4,4 °C 92 % 1013,2 hPa 0,0 mm 2,7 km/h (1 Bft) N-NO 32 ° 0 min 0,000 mm 2,0 UV-I 297 W/m² 3,2 °C 8,0 km/h (2 Bft)
13.10.2016 14:00 4,4 °C 4,4 °C 92 % 1013,3 hPa 0,0 mm 4,2 km/h (1 Bft) O 82 ° 1 min 0,076 mm 1,9 UV-I 309 W/m² 3,2 °C 4,8 km/h (1 Bft)
13.10.2016 14:01 4,4 °C 4,5 °C 91 % 1013,3 hPa 0,0 mm 4,1 km/h (1 Bft) NO 52 ° 0 min 0,000 mm 1,9 UV-I 255 W/m² 3,1 °C 4,8 km/h (1 Bft)
13.10.2016 14:02 4,5 °C 4,5 °C 92 % 1013,2 hPa 0,0 mm 6,1 km/h (2 Bft) N-NO 26 ° 0 min 0,000 mm 2,1 UV-I 251 W/m² 3,3 °C 9,7 km/h (2 Bft)
13.10.2016 14:03 4,6 °C 4,6 °C 92 % 1013,2 hPa 0,0 mm 4,8 km/h (1 Bft) O 80 ° 0 min 0,000 mm 2,2 UV-I 251 W/m² 3,4 °C 6,4 km/h (2 Bft)
13.10.2016 14:04 4,6 °C 4,6 °C 92 % 1013,1 hPa 0,0 mm 1,9 km/h (1 Bft) O 80 ° 1 min 0,000 mm 2,1 UV-I 306 W/m² 3,4 °C 3,2 km/h (1 Bft)
13.10.2016 14:05 4,7 °C 4,7 °C 92 % 1013,1 hPa 0,0 mm 5,0 km/h (1 Bft) NO 53 ° 1 min 0,000 mm 2,2 UV-I 329 W/m² 3,5 °C 6,4 km/h (2 Bft)
13.10.2016 14:06 4,8 °C 4,8 °C 91 % 1013,0 hPa 0,0 mm 6,5 km/h (2 Bft) NO 38 ° 1 min 0,000 mm 2,0 UV-I 359 W/m² 3,5 °C 11,3 km/h (2 Bft)
13.10.2016 14:07 4,8 °C 4,8 °C 91 % 1013,0 hPa 0,0 mm 4,3 km/h (1 Bft) NO 55 ° 1 min 0,000 mm 2,2 UV-I 339 W/m² 3,5 °C 6,4 km/h (2 Bft)
13.10.2016 14:08 4,9 °C 4,9 °C 91 % 1012,9 hPa 0,0 mm 4,9 km/h (1 Bft) O-NO 62 ° 1 min 0,000 mm 2,2 UV-I 359 W/m² 3,6 °C 8,0 km/h (2 Bft)
13.10.2016 14:09 4,9 °C 4,9 °C 91 % 1012,9 hPa 0,0 mm 6,2 km/h (2 Bft) N-NO 30 ° 1 min 0,000 mm 2,0 UV-I 359 W/m² 3,6 °C 9,7 km/h (2 Bft)
13.10.2016 14:10 5,0 °C 5,0 °C 91 % 1012,9 hPa 0,0 mm 3,3 km/h (1 Bft) O-NO 65 ° 1 min 0,000 mm 2,2 UV-I 359 W/m² 3,7 °C 4,8 km/h (1 Bft)
13.10.2016 14:11 5,2 °C 5,2 °C 91 % 1012,9 hPa 0,0 mm 7,6 km/h (2 Bft) NO 49 ° 1 min 0,000 mm 2,2 UV-I 350 W/m² 3,9 °C 11,3 km/h (2 Bft)
13.10.2016 14:12 5,2 °C 5,2 °C 90 % 1012,8 hPa 0,0 mm 8,0 km/h (2 Bft) O-NO 71 ° 1 min 0,000 mm 2,2 UV-I 350 W/m² 3,7 °C 14,5 km/h (3 Bft)
13.10.2016 14:13 5,2 °C 5,2 °C 90 % 1012,9 hPa 0,0 mm 4,5 km/h (1 Bft) O 91 ° 1 min 0,000 mm 2,2 UV-I 338 W/m² 3,7 °C 9,7 km/h (2 Bft)
13.10.2016 14:14 5,2 °C 5,2 °C 90 % 1012,8 hPa 0,0 mm 4,2 km/h (1 Bft) N-NO 26 ° 1 min 0,000 mm 2,2 UV-I 352 W/m² 3,7 °C 8,0 km/h (2 Bft)
13.10.2016 14:15 5,2 °C 5,3 °C 90 % 1012,8 hPa 0,0 mm 4,4 km/h (1 Bft) NO 53 ° 1 min 0,000 mm 2,2 UV-I 348 W/m² 3,7 °C 8,0 km/h (2 Bft)
13.10.2016 14:16 5,3 °C 5,3 °C 90 % 1012,9 hPa 0,0 mm 4,4 km/h (1 Bft) O-NO 61 ° 0 min 0,000 mm 2,2 UV-I 279 W/m² 3,8 °C 8,0 km/h (2 Bft)
13.10.2016 14:17 5,4 °C 5,4 °C 90 % 1012,9 hPa 0,0 mm 8,9 km/h (2 Bft) N-NO 33 ° 1 min 0,000 mm 2,1 UV-I 302 W/m² 3,9 °C 12,9 km/h (3 Bft)
13.10.2016 14:18 5,6 °C 5,6 °C 90 % 1012,8 hPa 0,0 mm 9,0 km/h (2 Bft) O-NO 57 ° 1 min 0,000 mm 2,2 UV-I 360 W/m² 4,1 °C 14,5 km/h (3 Bft)
13.10.2016 14:19 5,6 °C 5,6 °C 89 % 1012,8 hPa 0,0 mm 6,2 km/h (2 Bft) O 84 ° 1 min 0,000 mm 2,2 UV-I 360 W/m² 3,9 °C 11,3 km/h (2 Bft)
13.10.2016 14:20 5,6 °C 5,6 °C 88 % 1012,8 hPa 0,0 mm 5,0 km/h (1 Bft) O 80 ° 1 min 0,000 mm 2,2 UV-I 355 W/m² 3,8 °C 6,4 km/h (2 Bft)
13.10.2016 14:21 5,6 °C 5,6 °C 89 % 1012,8 hPa 0,0 mm 8,0 km/h (2 Bft) NO 54 ° 1 min 0,000 mm 2,1 UV-I 355 W/m² 3,9 °C 12,9 km/h (3 Bft)
13.10.2016 14:22 5,7 °C 5,7 °C 88 % 1012,8 hPa 0,0 mm 7,7 km/h (2 Bft) O-NO 77 ° 1 min 0,000 mm 2,2 UV-I 352 W/m² 3,9 °C 14,5 km/h (3 Bft)
13.10.2016 14:23 5,7 °C 5,7 °C 88 % 1012,8 hPa 0,0 mm 6,0 km/h (2 Bft) NO 56 ° 1 min 0,000 mm 2,2 UV-I 367 W/m² 3,9 °C 12,9 km/h (3 Bft)
13.10.2016 14:24 5,7 °C 5,7 °C 88 % 1012,7 hPa 0,0 mm 4,4 km/h (1 Bft) N-NO 31 ° 1 min 0,000 mm 2,2 UV-I 378 W/m² 3,9 °C 8,0 km/h (2 Bft)
13.10.2016 14:25 5,7 °C 5,7 °C 88 % 1012,8 hPa 0,0 mm 8,6 km/h (2 Bft) SO 126 ° 0 min 0,000 mm 2,2 UV-I 246 W/m² 3,9 °C 14,5 km/h (3 Bft)
13.10.2016 14:26 5,8 °C 5,8 °C 89 % 1012,7 hPa 0,0 mm 6,7 km/h (2 Bft) O-NO 69 ° 0 min 0,000 mm 1,9 UV-I 246 W/m² 4,1 °C 9,7 km/h (2 Bft)
13.10.2016 14:27 5,8 °C 5,8 °C 88 % 1012,7 hPa 0,0 mm 5,6 km/h (1 Bft) O-NO 76 ° 1 min 0,000 mm 2,2 UV-I 339 W/m² 4,0 °C 9,7 km/h (2 Bft)
13.10.2016 14:28 5,8 °C 5,8 °C 87 % 1012,7 hPa 0,0 mm 7,0 km/h (2 Bft) O-NO 59 ° 1 min 0,000 mm 2,3 UV-I 404 W/m² 3,8 °C 12,9 km/h (3 Bft)
13.10.2016 14:29 5,8 °C 5,8 °C 87 % 1012,8 hPa 0,0 mm 9,9 km/h (2 Bft) O-NO 65 ° 1 min 0,000 mm 2,2 UV-I 390 W/m² 3,8 °C 16,1 km/h (3 Bft)
13.10.2016 14:30 5,8 °C 5,8 °C 88 % 1012,7 hPa 0,0 mm 4,2 km/h (1 Bft) NO 56 ° 1 min 0,000 mm 2,2 UV-I 366 W/m² 4,0 °C 6,4 km/h (2 Bft)
13.10.2016 14:31 5,9 °C 5,9 °C 88 % 1012,7 hPa 0,0 mm 9,4 km/h (2 Bft) O 80 ° 1 min 0,000 mm 2,2 UV-I 387 W/m² 4,1 °C 12,9 km/h (3 Bft)
13.10.2016 14:32 6,1 °C 6,1 °C 89 % 1012,8 hPa 0,0 mm 6,1 km/h (2 Bft) NO 49 ° 1 min 0,000 mm 2,1 UV-I 364 W/m² 4,4 °C 11,3 km/h (2 Bft)
13.10.2016 14:33 6,2 °C 6,2 °C 88 % 1012,8 hPa 0,0 mm 8,8 km/h (2 Bft) O-NO 67 ° 1 min 0,000 mm 2,1 UV-I 350 W/m² 4,4 °C 14,5 km/h (3 Bft)
13.10.2016 14:34 6,2 °C 6,2 °C 87 % 1012,8 hPa 0,0 mm 7,8 km/h (2 Bft) O-NO 62 ° 1 min 0,000 mm 2,1 UV-I 355 W/m² 4,2 °C 14,5 km/h (3 Bft)
13.10.2016 14:35 6,2 °C 6,2 °C 87 % 1012,8 hPa 0,0 mm 8,5 km/h (2 Bft) O-NO 72 ° 0 min 0,000 mm 1,8 UV-I 269 W/m² 4,2 °C 14,5 km/h (3 Bft)
13.10.2016 14:36 6,2 °C 6,2 °C 86 % 1012,8 hPa 0,0 mm 6,0 km/h (2 Bft) N 5 ° 0 min 0,000 mm 1,8 UV-I 262 W/m² 4,0 °C 14,5 km/h (3 Bft)
13.10.2016 14:37 6,2 °C 6,2 °C 86 % 1012,8 hPa 0,0 mm 6,4 km/h (2 Bft) O-NO 76 ° 0 min 0,000 mm 1,8 UV-I 271 W/m² 4,0 °C 11,3 km/h (2 Bft)
13.10.2016 14:38 6,2 °C 6,2 °C 86 % 1012,8 hPa 0,0 mm 9,9 km/h (2 Bft) O-NO 76 ° 1 min 0,000 mm 2,1 UV-I 369 W/m² 4,0 °C 14,5 km/h (3 Bft)
13.10.2016 14:39 6,2 °C 6,2 °C 86 % 1012,7 hPa 0,0 mm 4,9 km/h (1 Bft) O-NO 67 ° 1 min 0,000 mm 2,1 UV-I 364 W/m² 4,0 °C 6,4 km/h (2 Bft)
13.10.2016 14:40 6,2 °C 6,2 °C 87 % 1012,7 hPa 0,0 mm 4,1 km/h (1 Bft) NO 37 ° 1 min 0,000 mm 2,1 UV-I 353 W/m² 4,2 °C 6,4 km/h (2 Bft)
13.10.2016 14:41 6,2 °C 6,2 °C 86 % 1012,7 hPa 0,0 mm 4,4 km/h (1 Bft) NO 49 ° 1 min 0,000 mm 2,0 UV-I 343 W/m² 4,0 °C 6,4 km/h (2 Bft)
13.10.2016 14:42 6,2 °C 6,2 °C 86 % 1012,7 hPa 0,0 mm 4,6 km/h (1 Bft) NO 37 ° 1 min 0,000 mm 2,1 UV-I 352 W/m² 4,0 °C 8,0 km/h (2 Bft)
13.10.2016 14:43 6,2 °C 6,2 °C 86 % 1012,7 hPa 0,0 mm 8,2 km/h (2 Bft) O 87 ° 1 min 0,000 mm 2,1 UV-I 360 W/m² 4,0 °C 14,5 km/h (3 Bft)
13.10.2016 14:44 6,3 °C 6,3 °C 86 % 1012,7 hPa 0,0 mm 7,0 km/h (2 Bft) N-NO 23 ° 1 min 0,000 mm 2,1 UV-I 360 W/m² 4,1 °C 11,3 km/h (2 Bft)
13.10.2016 14:45 6,3 °C 6,3 °C 87 % 1012,8 hPa 0,0 mm 11,3 km/h (2 Bft) O 90 ° 1 min 0,000 mm 2,0 UV-I 353 W/m² 4,3 °C 14,5 km/h (3 Bft)
13.10.2016 14:46 6,4 °C 6,4 °C 86 % 1012,7 hPa 0,0 mm 6,3 km/h (2 Bft) N-NO 29 ° 1 min 0,000 mm 2,0 UV-I 343 W/m² 4,2 °C 9,7 km/h (2 Bft)
13.10.2016 14:47 6,4 °C 6,5 °C 85 % 1012,7 hPa 0,0 mm 9,5 km/h (2 Bft) N-NO 29 ° 1 min 0,000 mm 2,0 UV-I 352 W/m² 4,1 °C 16,1 km/h (3 Bft)
13.10.2016 14:48 6,5 °C 6,5 °C 85 % 1012,7 hPa 0,0 mm 6,0 km/h (2 Bft) NO 36 ° 1 min 0,000 mm 2,0 UV-I 353 W/m² 4,2 °C 11,3 km/h (2 Bft)
13.10.2016 14:49 6,4 °C 6,5 °C 85 % 1012,7 hPa 0,0 mm 10,2 km/h (2 Bft) NO 40 ° 1 min 0,000 mm 2,0 UV-I 341 W/m² 4,1 °C 14,5 km/h (3 Bft)
13.10.2016 14:50 6,4 °C 6,4 °C 84 % 1012,7 hPa 0,0 mm 7,0 km/h (2 Bft) NW 319 ° 1 min 0,000 mm 2,0 UV-I 338 W/m² 3,9 °C 9,7 km/h (2 Bft)
13.10.2016 14:51 6,5 °C 6,5 °C 85 % 1012,7 hPa 0,0 mm 7,1 km/h (2 Bft) N-NO 33 ° 1 min 0,000 mm 1,9 UV-I 329 W/m² 4,2 °C 9,7 km/h (2 Bft)
13.10.2016 14:52 6,5 °C 6,5 °C 86 % 1012,7 hPa 0,0 mm 5,8 km/h (2 Bft) NO 36 ° 1 min 0,000 mm 1,9 UV-I 327 W/m² 4,3 °C 9,7 km/h (2 Bft)
13.10.2016 14:53 6,6 °C 6,6 °C 85 % 1012,7 hPa 0,0 mm 4,9 km/h (1 Bft) NO 50 ° 1 min 0,000 mm 1,9 UV-I 329 W/m² 4,3 °C 12,9 km/h (3 Bft)
13.10.2016 14:54 6,6 °C 6,6 °C 85 % 1012,7 hPa 0,0 mm 6,0 km/h (2 Bft) NO 52 ° 1 min 0,000 mm 1,9 UV-I 329 W/m² 4,3 °C 9,7 km/h (2 Bft)
13.10.2016 14:55 6,6 °C 6,6 °C 85 % 1012,7 hPa 0,0 mm 4,7 km/h (1 Bft) NO 42 ° 1 min 0,000 mm 1,8 UV-I 308 W/m² 4,3 °C 6,4 km/h (2 Bft)
13.10.2016 14:56 6,6 °C 6,6 °C 85 % 1012,7 hPa 0,0 mm 7,3 km/h (2 Bft) O-NO 71 ° 0 min 0,000 mm 1,9 UV-I 262 W/m² 4,3 °C 12,9 km/h (3 Bft)
13.10.2016 14:57 6,6 °C 6,6 °C 85 % 1012,7 hPa 0,0 mm 6,5 km/h (2 Bft) NW 306 ° 1 min 0,000 mm 1,8 UV-I 311 W/m² 4,3 °C 9,7 km/h (2 Bft)
13.10.2016 14:58 6,7 °C 6,7 °C 86 % 1012,6 hPa 0,0 mm 2,1 km/h (1 Bft) NO 40 ° 1 min 0,000 mm 1,8 UV-I 302 W/m² 4,5 °C 3,2 km/h (1 Bft)
13.10.2016 14:59 6,7 °C 6,7 °C 85 % 1012,6 hPa 0,0 mm 6,7 km/h (2 Bft) NO 44 ° 1 min 0,000 mm 1,8 UV-I 301 W/m² 4,4 °C 12,9 km/h (3 Bft)
13.10.2016 15:00 6,7 °C 6,7 °C 84 % 1012,6 hPa 0,0 mm 11,8 km/h (2 Bft) O-NO 68 ° 1 min 0,153 mm 1,8 UV-I 278 W/m² 4,2 °C 16,1 km/h (3 Bft)
13.10.2016 15:01 6,5 °C 6,7 °C 84 % 1012,6 hPa 0,0 mm 9,6 km/h (2 Bft) O-NO 72 ° 1 min 0,000 mm 1,7 UV-I 287 W/m² 4,0 °C 12,9 km/h (3 Bft)
13.10.2016 15:02 6,4 °C 6,5 °C 84 % 1012,5 hPa 0,0 mm 8,8 km/h (2 Bft) NO 40 ° 1 min 0,000 mm 1,7 UV-I 267 W/m² 3,9 °C 11,3 km/h (2 Bft)
13.10.2016 15:03 6,4 °C 6,4 °C 84 % 1012,5 hPa 0,0 mm 6,0 km/h (2 Bft) NO 49 ° 1 min 0,000 mm 1,7 UV-I 292 W/m² 3,9 °C 9,7 km/h (2 Bft)
13.10.2016 15:04 6,4 °C 6,4 °C 85 % 1012,5 hPa 0,0 mm 4,8 km/h (1 Bft) N-NO 32 ° 1 min 0,000 mm 1,7 UV-I 285 W/m² 4,1 °C 6,4 km/h (2 Bft)
13.10.2016 15:07 6,4 °C 6,5 °C 84 % 1012,5 hPa 0,0 mm 8,5 km/h (2 Bft) N-NO 15 ° 3 min 0,000 mm 1,6 UV-I 264 W/m² 3,9 °C 14,5 km/h (3 Bft)
13.10.2016 15:08 6,4 °C 6,4 °C 84 % 1012,5 hPa 0,0 mm 5,5 km/h (1 Bft) N-NO 28 ° 1 min 0,000 mm 1,6 UV-I 262 W/m² 3,9 °C 8,0 km/h (2 Bft)
13.10.2016 15:09 6,4 °C 6,4 °C 85 % 1012,6 hPa 0,0 mm 8,8 km/h (2 Bft) O-NO 62 ° 1 min 0,000 mm 1,6 UV-I 257 W/m² 4,1 °C 14,5 km/h (3 Bft)
13.10.2016 15:10 6,4 °C 6,4 °C 85 % 1012,5 hPa 0,0 mm 8,2 km/h (2 Bft) O 79 ° 0 min 0,000 mm 1,6 UV-I 250 W/m² 4,1 °C 12,9 km/h (3 Bft)
13.10.2016 15:11 6,4 °C 6,4 °C 85 % 1012,5 hPa 0,0 mm 4,9 km/h (1 Bft) NO 44 ° 0 min 0,000 mm 1,6 UV-I 250 W/m² 4,1 °C 8,0 km/h (2 Bft)
13.10.2016 15:12 6,4 °C 6,4 °C 85 % 1012,5 hPa 0,0 mm 9,3 km/h (2 Bft) NO 40 ° 0 min 0,000 mm 1,5 UV-I 237 W/m² 4,1 °C 12,9 km/h (3 Bft)
13.10.2016 15:13 6,4 °C 6,4 °C 85 % 1012,5 hPa 0,0 mm 9,1 km/h (2 Bft) O-NO 61 ° 0 min 0,000 mm 1,5 UV-I 239 W/m² 4,1 °C 12,9 km/h (3 Bft)
13.10.2016 15:14 6,4 °C 6,4 °C 85 % 1012,4 hPa 0,0 mm 10,8 km/h (2 Bft) NO 54 ° 0 min 0,000 mm 1,5 UV-I 237 W/m² 4,1 °C 14,5 km/h (3 Bft)
13.10.2016 15:15 6,4 °C 6,4 °C 85 % 1012,5 hPa 0,0 mm 7,1 km/h (2 Bft) N-NO 23 ° 0 min 0,000 mm 1,5 UV-I 236 W/m² 4,1 °C 12,9 km/h (3 Bft)
13.10.2016 15:16 6,4 °C 6,4 °C 85 % 1012,5 hPa 0,0 mm 7,8 km/h (2 Bft) N-NO 16 ° 0 min 0,000 mm 1,4 UV-I 230 W/m² 4,1 °C 14,5 km/h (3 Bft)
13.10.2016 15:17 6,5 °C 6,5 °C 85 % 1012,4 hPa 0,0 mm 9,0 km/h (2 Bft) N 5 ° 0 min 0,000 mm 1,4 UV-I 229 W/m² 4,2 °C 12,9 km/h (3 Bft)
13.10.2016 15:18 6,4 °C 6,5 °C 85 % 1012,4 hPa 0,0 mm 9,3 km/h (2 Bft) N 350 ° 0 min 0,000 mm 1,4 UV-I 223 W/m² 4,1 °C 14,5 km/h (3 Bft)
13.10.2016 15:19 6,5 °C 6,5 °C 85 % 1012,4 hPa 0,0 mm 9,3 km/h (2 Bft) NO 41 ° 0 min 0,000 mm 1,4 UV-I 216 W/m² 4,2 °C 14,5 km/h (3 Bft)
13.10.2016 15:20 6,5 °C 6,5 °C 85 % 1012,4 hPa 0,0 mm 8,1 km/h (2 Bft) O-NO 74 ° 0 min 0,000 mm 1,4 UV-I 214 W/m² 4,2 °C 12,9 km/h (3 Bft)
13.10.2016 15:21 6,5 °C 6,5 °C 85 % 1012,4 hPa 0,0 mm 6,3 km/h (2 Bft) NO 56 ° 0 min 0,000 mm 1,4 UV-I 216 W/m² 4,2 °C 11,3 km/h (2 Bft)
13.10.2016 15:22 6,5 °C 6,5 °C 86 % 1012,4 hPa 0,0 mm 8,2 km/h (2 Bft) NO 43 ° 0 min 0,000 mm 1,3 UV-I 211 W/m² 4,3 °C 14,5 km/h (3 Bft)
13.10.2016 15:23 6,6 °C 6,6 °C 86 % 1012,4 hPa 0,0 mm 6,6 km/h (2 Bft) O-NO 72 ° 0 min 0,000 mm 1,3 UV-I 209 W/m² 4,4 °C 12,9 km/h (3 Bft)
13.10.2016 15:24 6,6 °C 6,6 °C 85 % 1012,4 hPa 0,0 mm 7,0 km/h (2 Bft) O 84 ° 0 min 0,000 mm 1,3 UV-I 204 W/m² 4,3 °C 9,7 km/h (2 Bft)
13.10.2016 15:25 6,7 °C 6,7 °C 85 % 1012,4 hPa 0,0 mm 6,8 km/h (2 Bft) O-NO 73 ° 0 min 0,000 mm 1,3 UV-I 204 W/m² 4,4 °C 12,9 km/h (3 Bft)
13.10.2016 15:26 6,7 °C 6,7 °C 85 % 1012,4 hPa 0,0 mm 6,4 km/h (2 Bft) SO 136 ° 0 min 0,000 mm 1,3 UV-I 185 W/m² 4,4 °C 11,3 km/h (2 Bft)
13.10.2016 15:27 6,6 °C 6,7 °C 84 % 1012,5 hPa 0,0 mm 9,1 km/h (2 Bft) O-NO 62 ° 0 min 0,000 mm 1,2 UV-I 188 W/m² 4,1 °C 16,1 km/h (3 Bft)
13.10.2016 15:28 6,6 °C 6,6 °C 85 % 1012,4 hPa 0,0 mm 7,2 km/h (2 Bft) O-NO 69 ° 0 min 0,000 mm 1,2 UV-I 181 W/m² 4,3 °C 12,9 km/h (3 Bft)
13.10.2016 15:29 6,6 °C 6,6 °C 85 % 1012,4 hPa 0,0 mm 4,8 km/h (1 Bft) O-NO 63 ° 0 min 0,000 mm 1,2 UV-I 181 W/m² 4,3 °C 8,0 km/h (2 Bft)
13.10.2016 15:30 6,6 °C 6,6 °C 85 % 1012,4 hPa 0,0 mm 8,6 km/h (2 Bft) O 96 ° 0 min 0,000 mm 1,2 UV-I 188 W/m² 4,3 °C 12,9 km/h (3 Bft)
13.10.2016 15:31 6,6 °C 6,7 °C 85 % 1012,4 hPa 0,0 mm 7,9 km/h (2 Bft) O-NO 74 ° 0 min 0,000 mm 1,2 UV-I 197 W/m² 4,3 °C 11,3 km/h (2 Bft)
13.10.2016 15:32 6,6 °C 6,7 °C 85 % 1012,3 hPa 0,0 mm 5,3 km/h (1 Bft) O-NO 58 ° 0 min 0,000 mm 1,2 UV-I 204 W/m² 4,3 °C 8,0 km/h (2 Bft)
13.10.2016 15:33 6,6 °C 6,6 °C 85 % 1012,3 hPa 0,0 mm 6,4 km/h (2 Bft) O 83 ° 0 min 0,000 mm 1,2 UV-I 204 W/m² 4,3 °C 12,9 km/h (3 Bft)
13.10.2016 15:34 6,6 °C 6,7 °C 85 % 1012,3 hPa 0,0 mm 10,4 km/h (2 Bft) O-SO 108 ° 0 min 0,000 mm 1,2 UV-I 186 W/m² 4,3 °C 17,7 km/h (3 Bft)
13.10.2016 15:35 6,6 °C 6,6 °C 85 % 1012,3 hPa 0,0 mm 6,3 km/h (2 Bft) O-NO 64 ° 0 min 0,000 mm 1,2 UV-I 195 W/m² 4,3 °C 12,9 km/h (3 Bft)
13.10.2016 15:36 6,6 °C 6,6 °C 86 % 1012,3 hPa 0,0 mm 8,4 km/h (2 Bft) NO 55 ° 0 min 0,000 mm 1,2 UV-I 209 W/m² 4,4 °C 14,5 km/h (3 Bft)
13.10.2016 15:37 6,6 °C 6,6 °C 85 % 1012,3 hPa 0,0 mm 6,2 km/h (2 Bft) NO 49 ° 0 min 0,000 mm 1,2 UV-I 206 W/m² 4,3 °C 9,7 km/h (2 Bft)
13.10.2016 15:38 6,7 °C 6,7 °C 86 % 1012,3 hPa 0,0 mm 6,8 km/h (2 Bft) O-SO 103 ° 0 min 0,000 mm 1,2 UV-I 204 W/m² 4,5 °C 12,9 km/h (3 Bft)
13.10.2016 15:39 6,7 °C 6,7 °C 85 % 1012,4 hPa 0,0 mm 6,6 km/h (2 Bft) O-NO 72 ° 0 min 0,000 mm 1,3 UV-I 211 W/m² 4,4 °C 16,1 km/h (3 Bft)
13.10.2016 15:40 6,6 °C 6,7 °C 85 % 1012,3 hPa 0,0 mm 7,9 km/h (2 Bft) NO 54 ° 0 min 0,000 mm 1,3 UV-I 197 W/m² 4,3 °C 14,5 km/h (3 Bft)
13.10.2016 15:41 6,7 °C 6,7 °C 85 % 1012,3 hPa 0,0 mm 6,1 km/h (2 Bft) NO 50 ° 0 min 0,000 mm 1,3 UV-I 211 W/m² 4,4 °C 9,7 km/h (2 Bft)
13.10.2016 15:42 6,7 °C 6,7 °C 85 % 1012,2 hPa 0,0 mm 5,5 km/h (1 Bft) W 270 ° 0 min 0,000 mm 1,3 UV-I 211 W/m² 4,4 °C 12,9 km/h (3 Bft)
13.10.2016 15:43 6,7 °C 6,7 °C 86 % 1012,2 hPa 0,0 mm 8,0 km/h (2 Bft) NO 51 ° 0 min 0,000 mm 1,3 UV-I 207 W/m² 4,5 °C 17,7 km/h (3 Bft)
13.10.2016 15:44 6,7 °C 6,7 °C 85 % 1012,2 hPa 0,0 mm 6,6 km/h (2 Bft) O-NO 57 ° 0 min 0,000 mm 1,3 UV-I 207 W/m² 4,4 °C 16,1 km/h (3 Bft)
13.10.2016 15:45 6,7 °C 6,7 °C 85 % 1012,2 hPa 0,0 mm 7,0 km/h (2 Bft) NO 47 ° 0 min 0,000 mm 1,2 UV-I 209 W/m² 4,4 °C 14,5 km/h (3 Bft)
13.10.2016 15:46 6,7 °C 6,7 °C 85 % 1012,2 hPa 0,0 mm 10,8 km/h (2 Bft) N 5 ° 0 min 0,000 mm 1,3 UV-I 209 W/m² 4,4 °C 16,1 km/h (3 Bft)
13.10.2016 15:47 6,7 °C 6,7 °C 85 % 1012,2 hPa 0,0 mm 8,6 km/h (2 Bft) O-NO 59 ° 0 min 0,000 mm 1,2 UV-I 202 W/m² 4,4 °C 12,9 km/h (3 Bft)
13.10.2016 15:48 6,7 °C 6,7 °C 85 % 1012,2 hPa 0,0 mm 6,4 km/h (2 Bft) NO 34 ° 0 min 0,000 mm 1,2 UV-I 197 W/m² 4,4 °C 12,9 km/h (3 Bft)
13.10.2016 15:49 6,7 °C 6,8 °C 85 % 1012,2 hPa 0,0 mm 3,4 km/h (1 Bft) O-NO 73 ° 0 min 0,000 mm 1,2 UV-I 199 W/m² 4,4 °C 6,4 km/h (2 Bft)
13.10.2016 15:50 6,8 °C 6,8 °C 85 % 1012,2 hPa 0,0 mm 4,5 km/h (1 Bft) N-NO 30 ° 0 min 0,000 mm 1,2 UV-I 199 W/m² 4,5 °C 8,0 km/h (2 Bft)
13.10.2016 15:51 6,8 °C 6,8 °C 85 % 1012,2 hPa 0,0 mm 6,4 km/h (2 Bft) O 90 ° 0 min 0,000 mm 1,2 UV-I 206 W/m² 4,5 °C 9,7 km/h (2 Bft)
13.10.2016 15:52 6,8 °C 6,9 °C 85 % 1012,2 hPa 0,0 mm 8,1 km/h (2 Bft) N-NO 17 ° 0 min 0,000 mm 1,2 UV-I 199 W/m² 4,5 °C 16,1 km/h (3 Bft)
13.10.2016 15:53 6,9 °C 6,9 °C 84 % 1012,2 hPa 0,0 mm 10,1 km/h (2 Bft) O 82 ° 0 min 0,000 mm 1,2 UV-I 165 W/m² 4,4 °C 14,5 km/h (3 Bft)
13.10.2016 15:54 6,8 °C 6,9 °C 84 % 1012,2 hPa 0,0 mm 8,0 km/h (2 Bft) N-NO 30 ° 0 min 0,000 mm 1,1 UV-I 176 W/m² 4,3 °C 16,1 km/h (3 Bft)
13.10.2016 15:55 6,8 °C 6,8 °C 84 % 1012,2 hPa 0,0 mm 4,5 km/h (1 Bft) N-NO 28 ° 0 min 0,000 mm 1,2 UV-I 190 W/m² 4,3 °C 6,4 km/h (2 Bft)
13.10.2016 15:56 6,8 °C 6,8 °C 84 % 1012,2 hPa 0,0 mm 3,8 km/h (1 Bft) N-NO 18 ° 0 min 0,000 mm 1,2 UV-I 190 W/m² 4,3 °C 8,0 km/h (2 Bft)
13.10.2016 15:57 6,8 °C 6,8 °C 84 % 1012,2 hPa 0,0 mm 5,9 km/h (2 Bft) NO 47 ° 0 min 0,000 mm 1,2 UV-I 209 W/m² 4,3 °C 9,7 km/h (2 Bft)
13.10.2016 15:58 6,9 °C 6,9 °C 85 % 1012,2 hPa 0,0 mm 5,3 km/h (1 Bft) O-NO 66 ° 0 min 0,000 mm 1,2 UV-I 207 W/m² 4,6 °C 12,9 km/h (3 Bft)
13.10.2016 15:59 6,9 °C 6,9 °C 84 % 1012,2 hPa 0,0 mm 7,9 km/h (2 Bft) NO 45 ° 0 min 0,000 mm 1,1 UV-I 142 W/m² 4,4 °C 12,9 km/h (3 Bft)
13.10.2016 16:00 6,9 °C 6,9 °C 85 % 1012,3 hPa 0,0 mm 7,2 km/h (2 Bft) O-NO 73 ° 0 min 0,101 mm 1,0 UV-I 139 W/m² 4,6 °C 11,3 km/h (2 Bft)
13.10.2016 16:01 7,0 °C 7,0 °C 84 % 1012,2 hPa 0,0 mm 9,0 km/h (2 Bft) O-NO 64 ° 0 min 0,000 mm 1,0 UV-I 139 W/m² 4,5 °C 16,1 km/h (3 Bft)
13.10.2016 16:02 7,0 °C 7,0 °C 84 % 1012,2 hPa 0,0 mm 12,1 km/h (2 Bft) O-NO 57 ° 0 min 0,000 mm 1,1 UV-I 153 W/m² 4,5 °C 22,5 km/h (4 Bft)
13.10.2016 16:03 6,9 °C 7,0 °C 83 % 1012,2 hPa 0,0 mm 7,4 km/h (2 Bft) O-NO 70 ° 0 min 0,000 mm 1,0 UV-I 151 W/m² 4,2 °C 12,9 km/h (3 Bft)
13.10.2016 16:04 6,9 °C 6,9 °C 83 % 1012,2 hPa 0,0 mm 9,3 km/h (2 Bft) NO 49 ° 0 min 0,000 mm 1,0 UV-I 171 W/m² 4,2 °C 17,7 km/h (3 Bft)
13.10.2016 16:05 6,9 °C 6,9 °C 83 % 1012,2 hPa 0,0 mm 5,4 km/h (1 Bft) NO 53 ° 0 min 0,000 mm 1,0 UV-I 142 W/m² 4,2 °C 8,0 km/h (2 Bft)
13.10.2016 16:06 6,9 °C 6,9 °C 83 % 1012,2 hPa 0,0 mm 12,1 km/h (2 Bft) O-NO 75 ° 0 min 0,000 mm 1,0 UV-I 151 W/m² 4,2 °C 17,7 km/h (3 Bft)
13.10.2016 16:07 6,9 °C 6,9 °C 83 % 1012,2 hPa 0,0 mm 9,8 km/h (2 Bft) O-NO 59 ° 0 min 0,000 mm 1,0 UV-I 162 W/m² 4,2 °C 14,5 km/h (3 Bft)
13.10.2016 16:08 6,9 °C 6,9 °C 84 % 1012,2 hPa 0,0 mm 9,1 km/h (2 Bft) O-NO 70 ° 0 min 0,000 mm 1,0 UV-I 144 W/m² 4,4 °C 12,9 km/h (3 Bft)
13.10.2016 16:09 6,9 °C 6,9 °C 84 % 1012,2 hPa 0,0 mm 4,2 km/h (1 Bft) O-NO 57 ° 0 min 0,000 mm 1,0 UV-I 135 W/m² 4,4 °C 8,0 km/h (2 Bft)
13.10.2016 16:10 6,9 °C 6,9 °C 84 % 1012,2 hPa 0,0 mm 4,2 km/h (1 Bft) O-NO 74 ° 0 min 0,000 mm 0,9 UV-I 132 W/m² 4,4 °C 8,0 km/h (2 Bft)
13.10.2016 16:11 6,9 °C 6,9 °C 84 % 1012,2 hPa 0,0 mm 8,1 km/h (2 Bft) O-NO 76 ° 0 min 0,000 mm 0,9 UV-I 137 W/m² 4,4 °C 11,3 km/h (2 Bft)
13.10.2016 16:12 6,9 °C 6,9 °C 84 % 1012,2 hPa 0,0 mm 6,2 km/h (2 Bft) O-NO 67 ° 0 min 0,000 mm 1,0 UV-I 151 W/m² 4,4 °C 8,0 km/h (2 Bft)
13.10.2016 16:13 6,9 °C 6,9 °C 84 % 1012,2 hPa 0,0 mm 5,2 km/h (1 Bft) N-NO 28 ° 0 min 0,000 mm 1,0 UV-I 188 W/m² 4,4 °C 8,0 km/h (2 Bft)
13.10.2016 16:14 6,9 °C 6,9 °C 84 % 1012,2 hPa 0,0 mm 5,8 km/h (2 Bft) NO 36 ° 0 min 0,000 mm 1,0 UV-I 178 W/m² 4,4 °C 9,7 km/h (2 Bft)
13.10.2016 16:15 7,0 °C 7,0 °C 84 % 1012,2 hPa 0,0 mm 3,4 km/h (1 Bft) O-NO 65 ° 0 min 0,000 mm 1,0 UV-I 186 W/m² 4,5 °C 4,8 km/h (1 Bft)
13.10.2016 16:16 7,0 °C 7,1 °C 84 % 1012,3 hPa 0,0 mm 2,6 km/h (1 Bft) O 81 ° 0 min 0,000 mm 1,0 UV-I 167 W/m² 4,5 °C 4,8 km/h (1 Bft)
13.10.2016 16:17 7,1 °C 7,1 °C 84 % 1012,3 hPa 0,0 mm 4,0 km/h (1 Bft) N-NO 31 ° 0 min 0,000 mm 1,0 UV-I 144 W/m² 4,6 °C 6,4 km/h (2 Bft)
13.10.2016 16:18 7,1 °C 7,2 °C 85 % 1012,3 hPa 0,0 mm 3,8 km/h (1 Bft) NO 42 ° 0 min 0,000 mm 0,9 UV-I 139 W/m² 4,8 °C 4,8 km/h (1 Bft)
13.10.2016 16:19 7,2 °C 7,2 °C 84 % 1012,3 hPa 0,0 mm 3,6 km/h (1 Bft) O-NO 67 ° 0 min 0,000 mm 0,9 UV-I 137 W/m² 4,7 °C 8,0 km/h (2 Bft)
13.10.2016 16:20 7,2 °C 7,2 °C 83 % 1012,3 hPa 0,0 mm 4,9 km/h (1 Bft) N-NO 32 ° 0 min 0,000 mm 0,9 UV-I 134 W/m² 4,5 °C 8,0 km/h (2 Bft)
13.10.2016 16:21 7,2 °C 7,2 °C 84 % 1012,3 hPa 0,0 mm 7,5 km/h (2 Bft) N-NW 345 ° 0 min 0,000 mm 0,9 UV-I 130 W/m² 4,7 °C 9,7 km/h (2 Bft)
13.10.2016 16:22 7,2 °C 7,2 °C 83 % 1012,3 hPa 0,0 mm 6,5 km/h (2 Bft) O 96 ° 0 min 0,000 mm 0,9 UV-I 120 W/m² 4,5 °C 8,0 km/h (2 Bft)
13.10.2016 16:23 7,2 °C 7,2 °C 83 % 1012,3 hPa 0,0 mm 3,3 km/h (1 Bft) O-NO 65 ° 0 min 0,000 mm 0,9 UV-I 116 W/m² 4,5 °C 6,4 km/h (2 Bft)
13.10.2016 16:24 7,2 °C 7,2 °C 84 % 1012,3 hPa 0,0 mm 5,3 km/h (1 Bft) O-NO 67 ° 0 min 0,000 mm 0,8 UV-I 113 W/m² 4,7 °C 8,0 km/h (2 Bft)
13.10.2016 16:25 7,2 °C 7,2 °C 84 % 1012,3 hPa 0,0 mm 7,1 km/h (2 Bft) O-NO 78 ° 0 min 0,000 mm 0,8 UV-I 109 W/m² 4,7 °C 9,7 km/h (2 Bft)
13.10.2016 16:26 7,2 °C 7,2 °C 83 % 1012,3 hPa 0,0 mm 5,0 km/h (1 Bft) O-NO 64 ° 0 min 0,000 mm 0,8 UV-I 105 W/m² 4,5 °C 8,0 km/h (2 Bft)
13.10.2016 16:27 7,2 °C 7,2 °C 84 % 1012,3 hPa 0,0 mm 5,8 km/h (2 Bft) O-SO 117 ° 0 min 0,000 mm 0,8 UV-I 104 W/m² 4,7 °C 8,0 km/h (2 Bft)
13.10.2016 16:28 7,2 °C 7,2 °C 84 % 1012,2 hPa 0,0 mm 5,7 km/h (1 Bft) NO 46 ° 0 min 0,000 mm 0,8 UV-I 104 W/m² 4,7 °C 9,7 km/h (2 Bft)
13.10.2016 16:29 7,2 °C 7,2 °C 84 % 1012,3 hPa 0,0 mm 5,4 km/h (1 Bft) NO 35 ° 0 min 0,000 mm 0,8 UV-I 100 W/m² 4,7 °C 12,9 km/h (3 Bft)
13.10.2016 16:30 7,1 °C 7,2 °C 84 % 1012,2 hPa 0,0 mm 7,5 km/h (2 Bft) O-NO 58 ° 0 min 0,000 mm 0,8 UV-I 100 W/m² 4,6 °C 9,7 km/h (2 Bft)
13.10.2016 16:31 7,2 °C 7,2 °C 84 % 1012,2 hPa 0,0 mm 4,6 km/h (1 Bft) NO 40 ° 0 min 0,000 mm 0,8 UV-I 100 W/m² 4,7 °C 6,4 km/h (2 Bft)
13.10.2016 16:32 7,1 °C 7,2 °C 84 % 1012,2 hPa 0,0 mm 7,6 km/h (2 Bft) NO 42 ° 0 min 0,000 mm 0,7 UV-I 100 W/m² 4,6 °C 14,5 km/h (3 Bft)
13.10.2016 16:33 7,2 °C 7,2 °C 83 % 1012,2 hPa 0,0 mm 5,6 km/h (1 Bft) NO 46 ° 0 min 0,000 mm 0,7 UV-I 100 W/m² 4,5 °C 9,7 km/h (2 Bft)
13.10.2016 16:34 7,2 °C 7,2 °C 84 % 1012,2 hPa 0,0 mm 6,3 km/h (2 Bft) N-NO 32 ° 0 min 0,000 mm 0,7 UV-I 100 W/m² 4,7 °C 8,0 km/h (2 Bft)
13.10.2016 16:35 7,2 °C 7,2 °C 84 % 1012,2 hPa 0,0 mm 4,8 km/h (1 Bft) O-NO 67 ° 0 min 0,000 mm 0,7 UV-I 100 W/m² 4,7 °C 6,4 km/h (2 Bft)
13.10.2016 16:36 7,2 °C 7,2 °C 84 % 1012,2 hPa 0,0 mm 3,5 km/h (1 Bft) N 355 ° 0 min 0,000 mm 0,7 UV-I 102 W/m² 4,7 °C 6,4 km/h (2 Bft)
13.10.2016 16:37 7,2 °C 7,2 °C 84 % 1012,2 hPa 0,0 mm 3,8 km/h (1 Bft) O-NO 69 ° 0 min 0,000 mm 0,7 UV-I 102 W/m² 4,7 °C 6,4 km/h (2 Bft)
13.10.2016 16:38 7,2 °C 7,2 °C 84 % 1012,1 hPa 0,0 mm 6,6 km/h (2 Bft) N-NO 28 ° 0 min 0,000 mm 0,7 UV-I 102 W/m² 4,7 °C 9,7 km/h (2 Bft)
13.10.2016 16:39 7,3 °C 7,3 °C 83 % 1012,2 hPa 0,0 mm 10,7 km/h (2 Bft) O-NO 66 ° 0 min 0,000 mm 0,7 UV-I 102 W/m² 4,6 °C 14,5 km/h (3 Bft)
13.10.2016 16:40 7,3 °C 7,3 °C 83 % 1012,2 hPa 0,0 mm 6,4 km/h (2 Bft) NO 40 ° 0 min 0,000 mm 0,7 UV-I 100 W/m² 4,6 °C 8,0 km/h (2 Bft)
13.10.2016 16:41 7,3 °C 7,3 °C 83 % 1012,2 hPa 0,0 mm 8,4 km/h (2 Bft) NO 37 ° 0 min 0,000 mm 0,7 UV-I 100 W/m² 4,6 °C 14,5 km/h (3 Bft)
13.10.2016 16:42 7,3 °C 7,3 °C 83 % 1012,2 hPa 0,0 mm 8,3 km/h (2 Bft) N-NO 29 ° 0 min 0,000 mm 0,7 UV-I 98 W/m² 4,6 °C 11,3 km/h (2 Bft)
13.10.2016 16:43 7,3 °C 7,3 °C 83 % 1012,3 hPa 0,0 mm 6,8 km/h (2 Bft) NO 41 ° 0 min 0,000 mm 0,7 UV-I 97 W/m² 4,6 °C 11,3 km/h (2 Bft)
13.10.2016 16:44 7,3 °C 7,3 °C 83 % 1012,3 hPa 0,0 mm 7,7 km/h (2 Bft) O-NO 67 ° 0 min 0,000 mm 0,7 UV-I 95 W/m² 4,6 °C 12,9 km/h (3 Bft)
13.10.2016 16:45 7,3 °C 7,3 °C 83 % 1012,3 hPa 0,0 mm 8,2 km/h (2 Bft) O 79 ° 0 min 0,000 mm 0,7 UV-I 95 W/m² 4,6 °C 14,5 km/h (3 Bft)
13.10.2016 16:46 7,3 °C 7,3 °C 83 % 1012,3 hPa 0,0 mm 5,5 km/h (1 Bft) O-NO 58 ° 0 min 0,000 mm 0,7 UV-I 93 W/m² 4,6 °C 12,9 km/h (3 Bft)
13.10.2016 16:47 7,3 °C 7,3 °C 83 % 1012,2 hPa 0,0 mm 5,6 km/h (1 Bft) N-NO 31 ° 0 min 0,000 mm 0,6 UV-I 93 W/m² 4,6 °C 12,9 km/h (3 Bft)
13.10.2016 16:48 7,3 °C 7,3 °C 83 % 1012,2 hPa 0,0 mm 4,1 km/h (1 Bft) N-NO 26 ° 0 min 0,000 mm 0,6 UV-I 91 W/m² 4,6 °C 8,0 km/h (2 Bft)
13.10.2016 16:49 7,3 °C 7,3 °C 83 % 1012,2 hPa 0,0 mm 4,6 km/h (1 Bft) O 82 ° 0 min 0,000 mm 0,6 UV-I 91 W/m² 4,6 °C 9,7 km/h (2 Bft)
13.10.2016 16:50 7,3 °C 7,3 °C 83 % 1012,2 hPa 0,0 mm 9,1 km/h (2 Bft) O 83 ° 0 min 0,000 mm 0,6 UV-I 91 W/m² 4,6 °C 14,5 km/h (3 Bft)
13.10.2016 16:51 7,3 °C 7,3 °C 83 % 1012,2 hPa 0,0 mm 5,5 km/h (1 Bft) NO 55 ° 0 min 0,000 mm 0,6 UV-I 91 W/m² 4,6 °C 8,0 km/h (2 Bft)
13.10.2016 16:52 7,3 °C 7,3 °C 83 % 1012,2 hPa 0,0 mm 5,3 km/h (1 Bft) NO 46 ° 0 min 0,000 mm 0,6 UV-I 88 W/m² 4,6 °C 8,0 km/h (2 Bft)
13.10.2016 16:53 7,3 °C 7,3 °C 83 % 1012,2 hPa 0,0 mm 4,9 km/h (1 Bft) O-NO 78 ° 0 min 0,000 mm 0,6 UV-I 88 W/m² 4,6 °C 12,9 km/h (3 Bft)
13.10.2016 16:54 7,3 °C 7,3 °C 83 % 1012,2 hPa 0,0 mm 6,6 km/h (2 Bft) O-NO 61 ° 0 min 0,000 mm 0,6 UV-I 86 W/m² 4,6 °C 14,5 km/h (3 Bft)
13.10.2016 16:55 7,2 °C 7,3 °C 83 % 1012,2 hPa 0,0 mm 7,8 km/h (2 Bft) O-NO 75 ° 0 min 0,000 mm 0,6 UV-I 84 W/m² 4,5 °C 12,9 km/h (3 Bft)
13.10.2016 16:56 7,2 °C 7,3 °C 83 % 1012,2 hPa 0,0 mm 3,1 km/h (1 Bft) O-NO 63 ° 0 min 0,000 mm 0,6 UV-I 84 W/m² 4,5 °C 4,8 km/h (1 Bft)
13.10.2016 16:57 7,3 °C 7,3 °C 84 % 1012,2 hPa 0,0 mm 4,4 km/h (1 Bft) NO 37 ° 0 min 0,000 mm 0,6 UV-I 83 W/m² 4,8 °C 8,0 km/h (2 Bft)
13.10.2016 16:58 7,3 °C 7,3 °C 84 % 1012,2 hPa 0,0 mm 6,0 km/h (2 Bft) NO 55 ° 0 min 0,000 mm 0,5 UV-I 83 W/m² 4,8 °C 12,9 km/h (3 Bft)
13.10.2016 16:59 7,3 °C 7,3 °C 83 % 1012,2 hPa 0,0 mm 3,7 km/h (1 Bft) N-NO 32 ° 0 min 0,000 mm 0,5 UV-I 83 W/m² 4,6 °C 4,8 km/h (1 Bft)
13.10.2016 17:00 7,3 °C 7,3 °C 84 % 1012,2 hPa 0,0 mm 2,1 km/h (1 Bft) NO 46 ° 0 min 0,051 mm 0,5 UV-I 83 W/m² 4,8 °C 4,8 km/h (1 Bft)
13.10.2016 17:01 7,2 °C 7,3 °C 84 % 1012,2 hPa 0,0 mm 2,7 km/h (1 Bft) NO 35 ° 0 min 0,000 mm 0,5 UV-I 83 W/m² 4,7 °C 6,4 km/h (2 Bft)
13.10.2016 17:02 7,2 °C 7,3 °C 84 % 1012,2 hPa 0,0 mm 4,2 km/h (1 Bft) NO 56 ° 0 min 0,000 mm 0,5 UV-I 81 W/m² 4,7 °C 4,8 km/h (1 Bft)
13.10.2016 17:03 7,3 °C 7,3 °C 84 % 1012,2 hPa 0,0 mm 3,7 km/h (1 Bft) N-NO 26 ° 0 min 0,000 mm 0,5 UV-I 81 W/m² 4,8 °C 4,8 km/h (1 Bft)
13.10.2016 17:04 7,3 °C 7,3 °C 84 % 1012,2 hPa 0,0 mm 5,9 km/h (2 Bft) O-NO 71 ° 0 min 0,000 mm 0,5 UV-I 79 W/m² 4,8 °C 14,5 km/h (3 Bft)
13.10.2016 17:05 7,3 °C 7,3 °C 83 % 1012,2 hPa 0,0 mm 9,5 km/h (2 Bft) O-NO 77 ° 0 min 0,000 mm 0,5 UV-I 77 W/m² 4,6 °C 12,9 km/h (3 Bft)
13.10.2016 17:06 7,3 °C 7,3 °C 84 % 1012,2 hPa 0,0 mm 4,2 km/h (1 Bft) NO 55 ° 0 min 0,000 mm 0,5 UV-I 77 W/m² 4,8 °C 8,0 km/h (2 Bft)
13.10.2016 17:07 7,2 °C 7,3 °C 83 % 1012,2 hPa 0,0 mm 4,6 km/h (1 Bft) NO 34 ° 0 min 0,000 mm 0,5 UV-I 77 W/m² 4,5 °C 8,0 km/h (2 Bft)
13.10.2016 17:08 7,2 °C 7,2 °C 84 % 1012,2 hPa 0,0 mm 3,4 km/h (1 Bft) O-NO 57 ° 0 min 0,000 mm 0,5 UV-I 77 W/m² 4,7 °C 6,4 km/h (2 Bft)
13.10.2016 17:09 7,2 °C 7,2 °C 84 % 1012,1 hPa 0,0 mm 6,8 km/h (2 Bft) N-NO 19 ° 0 min 0,000 mm 0,5 UV-I 74 W/m² 4,7 °C 9,7 km/h (2 Bft)
13.10.2016 17:10 7,2 °C 7,2 °C 84 % 1012,1 hPa 0,0 mm 6,2 km/h (2 Bft) O-SO 116 ° 0 min 0,000 mm 0,5 UV-I 74 W/m² 4,7 °C 9,7 km/h (2 Bft)
13.10.2016 17:11 7,2 °C 7,2 °C 83 % 1012,1 hPa 0,0 mm 2,5 km/h (1 Bft) O-NO 63 ° 0 min 0,000 mm 0,5 UV-I 72 W/m² 4,5 °C 4,8 km/h (1 Bft)
13.10.2016 17:12 7,2 °C 7,2 °C 84 % 1012,1 hPa 0,0 mm 3,9 km/h (1 Bft) NO 38 ° 0 min 0,000 mm 0,0 UV-I 70 W/m² 4,7 °C 6,4 km/h (2 Bft)
13.10.2016 17:13 7,2 °C 7,2 °C 84 % 1012,1 hPa 0,0 mm 4,5 km/h (1 Bft) O-NO 78 ° 0 min 0,000 mm 0,0 UV-I 69 W/m² 4,7 °C 6,4 km/h (2 Bft)
13.10.2016 17:14 7,2 °C 7,2 °C 83 % 1012,1 hPa 0,0 mm 4,1 km/h (1 Bft) O-NO 68 ° 0 min 0,000 mm 0,0 UV-I 67 W/m² 4,5 °C 6,4 km/h (2 Bft)
13.10.2016 17:15 7,1 °C 7,2 °C 84 % 1012,1 hPa 0,0 mm 6,0 km/h (2 Bft) NO 52 ° 0 min 0,000 mm 0,0 UV-I 63 W/m² 4,6 °C 11,3 km/h (2 Bft)
13.10.2016 17:16 7,1 °C 7,2 °C 83 % 1012,0 hPa 0,0 mm 7,3 km/h (2 Bft) NO 51 ° 0 min 0,000 mm 0,0 UV-I 62 W/m² 4,4 °C 9,7 km/h (2 Bft)
13.10.2016 17:17 7,1 °C 7,1 °C 83 % 1012,0 hPa 0,0 mm 8,3 km/h (2 Bft) NO 52 ° 0 min 0,000 mm 0,0 UV-I 62 W/m² 4,4 °C 11,3 km/h (2 Bft)
13.10.2016 17:18 7,1 °C 7,1 °C 83 % 1012,0 hPa 0,0 mm 6,9 km/h (2 Bft) N 355 ° 0 min 0,000 mm 0,0 UV-I 62 W/m² 4,4 °C 11,3 km/h (2 Bft)
13.10.2016 17:19 7,1 °C 7,1 °C 83 % 1012,0 hPa 0,0 mm 7,4 km/h (2 Bft) O-NO 74 ° 0 min 0,000 mm 0,0 UV-I 60 W/m² 4,4 °C 12,9 km/h (3 Bft)
13.10.2016 17:20 7,1 °C 7,1 °C 83 % 1012,0 hPa 0,0 mm 6,1 km/h (2 Bft) N-NO 27 ° 0 min 0,000 mm 0,0 UV-I 60 W/m² 4,4 °C 9,7 km/h (2 Bft)
13.10.2016 17:21 7,1 °C 7,1 °C 84 % 1012,1 hPa 0,0 mm 3,5 km/h (1 Bft) NO 55 ° 0 min 0,000 mm 0,0 UV-I 58 W/m² 4,6 °C 4,8 km/h (1 Bft)
13.10.2016 17:22 7,1 °C 7,1 °C 83 % 1012,0 hPa 0,0 mm 5,1 km/h (1 Bft) NO 35 ° 0 min 0,000 mm 0,0 UV-I 58 W/m² 4,4 °C 9,7 km/h (2 Bft)
13.10.2016 17:23 7,0 °C 7,1 °C 84 % 1012,0 hPa 0,0 mm 4,0 km/h (1 Bft) O-SO 115 ° 0 min 0,000 mm 0,0 UV-I 58 W/m² 4,5 °C 6,4 km/h (2 Bft)
13.10.2016 17:24 7,0 °C 7,0 °C 84 % 1012,1 hPa 0,0 mm 3,3 km/h (1 Bft) NO 53 ° 0 min 0,000 mm 0,0 UV-I 58 W/m² 4,5 °C 4,8 km/h (1 Bft)
13.10.2016 17:25 6,9 °C 7,0 °C 84 % 1012,2 hPa 0,0 mm 4,1 km/h (1 Bft) O 85 ° 0 min 0,000 mm 0,0 UV-I 58 W/m² 4,4 °C 6,4 km/h (2 Bft)
13.10.2016 17:26 6,9 °C 6,9 °C 84 % 1012,2 hPa 0,0 mm 3,3 km/h (1 Bft) O-NO 65 ° 0 min 0,000 mm 0,0 UV-I 58 W/m² 4,4 °C 4,8 km/h (1 Bft)
13.10.2016 17:27 6,9 °C 7,0 °C 84 % 1012,2 hPa 0,0 mm 4,9 km/h (1 Bft) NO 55 ° 0 min 0,000 mm 0,0 UV-I 56 W/m² 4,4 °C 6,4 km/h (2 Bft)
13.10.2016 17:28 6,9 °C 6,9 °C 84 % 1012,1 hPa 0,0 mm 5,0 km/h (1 Bft) NO 42 ° 0 min 0,000 mm 0,0 UV-I 56 W/m² 4,4 °C 6,4 km/h (2 Bft)
13.10.2016 17:29 6,9 °C 6,9 °C 84 % 1012,1 hPa 0,0 mm 5,0 km/h (1 Bft) O-NO 57 ° 0 min 0,000 mm 0,0 UV-I 54 W/m² 4,4 °C 8,0 km/h (2 Bft)
13.10.2016 17:30 6,9 °C 6,9 °C 84 % 1012,1 hPa 0,0 mm 5,7 km/h (1 Bft) N-NO 24 ° 0 min 0,000 mm 0,0 UV-I 54 W/m² 4,4 °C 6,4 km/h (2 Bft)
13.10.2016 17:31 6,9 °C 6,9 °C 84 % 1012,0 hPa 0,0 mm 3,0 km/h (1 Bft) N-NO 24 ° 0 min 0,000 mm 0,0 UV-I 54 W/m² 4,4 °C 4,8 km/h (1 Bft)
13.10.2016 17:32 6,9 °C 6,9 °C 84 % 1012,0 hPa 0,0 mm 4,5 km/h (1 Bft) N-NO 27 ° 0 min 0,000 mm 0,0 UV-I 53 W/m² 4,4 °C 8,0 km/h (2 Bft)
13.10.2016 17:33 6,8 °C 6,9 °C 84 % 1012,0 hPa 0,0 mm 4,5 km/h (1 Bft) O-NO 58 ° 0 min 0,000 mm 0,0 UV-I 49 W/m² 4,3 °C 6,4 km/h (2 Bft)
13.10.2016 17:34 6,9 °C 6,9 °C 85 % 1012,1 hPa 0,0 mm 1,6 km/h (1 Bft) O-NO 58 ° 0 min 0,000 mm 0,0 UV-I 47 W/m² 4,6 °C 3,2 km/h (1 Bft)
13.10.2016 17:35 6,8 °C 6,9 °C 85 % 1012,1 hPa 0,0 mm 5,2 km/h (1 Bft) NO 38 ° 0 min 0,000 mm 0,0 UV-I 46 W/m² 4,5 °C 9,7 km/h (2 Bft)
13.10.2016 17:36 6,8 °C 6,8 °C 84 % 1012,2 hPa 0,0 mm 6,4 km/h (2 Bft) NO 34 ° 0 min 0,000 mm 0,0 UV-I 46 W/m² 4,3 °C 9,7 km/h (2 Bft)
13.10.2016 17:37 6,8 °C 6,8 °C 85 % 1012,2 hPa 0,0 mm 4,8 km/h (1 Bft) O 85 ° 0 min 0,000 mm 0,0 UV-I 46 W/m² 4,5 °C 6,4 km/h (2 Bft)
13.10.2016 17:38 6,8 °C 6,8 °C 84 % 1012,1 hPa 0,0 mm 3,8 km/h (1 Bft) N-NO 30 ° 0 min 0,000 mm 0,0 UV-I 42 W/m² 4,3 °C 8,0 km/h (2 Bft)
13.10.2016 17:39 6,8 °C 6,8 °C 84 % 1012,2 hPa 0,0 mm 5,5 km/h (1 Bft) NO 55 ° 0 min 0,000 mm 0,0 UV-I 44 W/m² 4,3 °C 6,4 km/h (2 Bft)
13.10.2016 17:40 6,8 °C 6,8 °C 85 % 1012,2 hPa 0,0 mm 3,8 km/h (1 Bft) NO 53 ° 0 min 0,000 mm 0,0 UV-I 44 W/m² 4,5 °C 6,4 km/h (2 Bft)
13.10.2016 17:41 6,7 °C 6,8 °C 85 % 1012,2 hPa 0,0 mm 2,5 km/h (1 Bft) NO 51 ° 0 min 0,000 mm 0,0 UV-I 44 W/m² 4,4 °C 4,8 km/h (1 Bft)
13.10.2016 17:42 6,7 °C 6,8 °C 85 % 1012,2 hPa 0,0 mm 1,9 km/h (1 Bft) NO 39 ° 0 min 0,000 mm 0,0 UV-I 44 W/m² 4,4 °C 3,2 km/h (1 Bft)
13.10.2016 17:43 6,7 °C 6,7 °C 85 % 1012,2 hPa 0,0 mm 2,0 km/h (1 Bft) NO 44 ° 0 min 0,000 mm 0,0 UV-I 42 W/m² 4,4 °C 4,8 km/h (1 Bft)
13.10.2016 17:44 6,7 °C 6,7 °C 85 % 1012,2 hPa 0,0 mm 3,3 km/h (1 Bft) N 360 ° 0 min 0,000 mm 0,0 UV-I 40 W/m² 4,4 °C 4,8 km/h (1 Bft)
13.10.2016 17:45 6,6 °C 6,7 °C 86 % 1012,2 hPa 0,0 mm 4,3 km/h (1 Bft) NO 53 ° 0 min 0,000 mm 0,0 UV-I 39 W/m² 4,4 °C 8,0 km/h (2 Bft)
13.10.2016 17:46 6,6 °C 6,6 °C 85 % 1012,1 hPa 0,0 mm 5,0 km/h (1 Bft) O-NO 62 ° 0 min 0,000 mm 0,0 UV-I 37 W/m² 4,3 °C 8,0 km/h (2 Bft)
13.10.2016 17:47 6,5 °C 6,6 °C 86 % 1012,2 hPa 0,0 mm 2,7 km/h (1 Bft) O-NO 62 ° 0 min 0,000 mm 0,0 UV-I 35 W/m² 4,3 °C 3,2 km/h (1 Bft)
13.10.2016 17:48 6,4 °C 6,6 °C 86 % 1012,2 hPa 0,0 mm 3,6 km/h (1 Bft) NO 47 ° 0 min 0,000 mm 0,0 UV-I 35 W/m² 4,2 °C 6,4 km/h (2 Bft)
13.10.2016 17:49 6,4 °C 6,5 °C 86 % 1012,2 hPa 0,0 mm 1,0 km/h (0 Bft) NO 47 ° 0 min 0,000 mm 0,0 UV-I 33 W/m² 4,2 °C 3,2 km/h (1 Bft)
13.10.2016 17:50 6,4 °C 6,4 °C 86 % 1012,2 hPa 0,0 mm 4,2 km/h (1 Bft) O-NO 74 ° 0 min 0,000 mm 0,0 UV-I 32 W/m² 4,2 °C 6,4 km/h (2 Bft)
13.10.2016 17:51 6,3 °C 6,4 °C 86 % 1012,3 hPa 0,0 mm 2,4 km/h (1 Bft) O-NO 72 ° 0 min 0,000 mm 0,0 UV-I 32 W/m² 4,1 °C 4,8 km/h (1 Bft)
13.10.2016 17:52 6,3 °C 6,3 °C 86 % 1012,3 hPa 0,0 mm 0,6 km/h (0 Bft) O-NO 72 ° 0 min 0,000 mm 0,0 UV-I 30 W/m² 4,1 °C 1,6 km/h (1 Bft)
13.10.2016 17:53 6,3 °C 6,3 °C 87 % 1012,2 hPa 0,0 mm 1,5 km/h (1 Bft) O-NO 72 ° 0 min 0,000 mm 0,0 UV-I 30 W/m² 4,3 °C 3,2 km/h (1 Bft)
13.10.2016 17:54 6,3 °C 6,3 °C 86 % 1012,2 hPa 0,0 mm 1,6 km/h (1 Bft) O-NO 72 ° 0 min 0,000 mm 0,0 UV-I 28 W/m² 4,1 °C 3,2 km/h (1 Bft)
13.10.2016 17:55 6,3 °C 6,3 °C 86 % 1012,3 hPa 0,0 mm 2,7 km/h (1 Bft) O-NO 72 ° 0 min 0,000 mm 0,0 UV-I 28 W/m² 4,1 °C 4,8 km/h (1 Bft)
13.10.2016 17:56 6,2 °C 6,3 °C 87 % 1012,3 hPa 0,0 mm 0,7 km/h (0 Bft) O-NO 72 ° 0 min 0,000 mm 0,0 UV-I 26 W/m² 4,2 °C 1,6 km/h (1 Bft)
13.10.2016 17:57 6,2 °C 6,2 °C 87 % 1012,2 hPa 0,0 mm 0,0 km/h (0 Bft) O-NO 72 ° 0 min 0,000 mm 0,0 UV-I 26 W/m² 4,2 °C 0,0 km/h (0 Bft)
13.10.2016 17:58 6,1 °C 6,2 °C 87 % 1012,2 hPa 0,0 mm 0,3 km/h (0 Bft) O-NO 72 ° 0 min 0,000 mm 0,0 UV-I 26 W/m² 4,1 °C 1,6 km/h (1 Bft)
13.10.2016 17:59 6,1 °C 6,2 °C 87 % 1012,2 hPa 0,0 mm 0,6 km/h (0 Bft) O 80 ° 0 min 0,000 mm 0,0 UV-I 25 W/m² 4,1 °C 3,2 km/h (1 Bft)
13.10.2016 18:00 6,1 °C 6,1 °C 87 % 1012,2 hPa 0,0 mm 2,9 km/h (1 Bft) NO 56 ° 0 min 0,000 mm 0,0 UV-I 25 W/m² 4,1 °C 4,8 km/h (1 Bft)
13.10.2016 18:01 6,1 °C 6,1 °C 87 % 1012,2 hPa 0,0 mm 1,6 km/h (1 Bft) NO 56 ° 0 min 0,025 mm 0,0 UV-I 23 W/m² 4,1 °C 3,2 km/h (1 Bft)
13.10.2016 18:02 6,1 °C 6,1 °C 87 % 1012,2 hPa 0,0 mm 1,3 km/h (1 Bft) NO 56 ° 0 min 0,001 mm 0,0 UV-I 21 W/m² 4,1 °C 1,6 km/h (1 Bft)
13.10.2016 18:03 6,0 °C 6,1 °C 88 % 1012,2 hPa 0,0 mm 0,5 km/h (0 Bft) NO 56 ° 0 min 0,000 mm 0,0 UV-I 19 W/m² 4,2 °C 1,6 km/h (1 Bft)
13.10.2016 18:04 6,0 °C 6,0 °C 87 % 1012,2 hPa 0,0 mm 3,4 km/h (1 Bft) NO 55 ° 0 min 0,000 mm 0,0 UV-I 19 W/m² 4,0 °C 4,8 km/h (1 Bft)
13.10.2016 18:05 5,9 °C 6,0 °C 88 % 1012,2 hPa 0,0 mm 2,4 km/h (1 Bft) O-NO 57 ° 0 min 0,000 mm 0,0 UV-I 18 W/m² 4,1 °C 3,2 km/h (1 Bft)
13.10.2016 18:06 5,9 °C 6,0 °C 88 % 1012,1 hPa 0,0 mm 1,3 km/h (1 Bft) O-NO 57 ° 0 min 0,000 mm 0,0 UV-I 18 W/m² 4,1 °C 1,6 km/h (1 Bft)
13.10.2016 18:07 5,9 °C 5,9 °C 87 % 1012,1 hPa 0,0 mm 2,7 km/h (1 Bft) O-NO 64 ° 0 min 0,000 mm 0,0 UV-I 16 W/m² 3,9 °C 6,4 km/h (2 Bft)
13.10.2016 18:08 5,8 °C 5,9 °C 88 % 1012,1 hPa 0,0 mm 1,3 km/h (1 Bft) O-NO 64 ° 0 min 0,000 mm 0,0 UV-I 16 W/m² 4,0 °C 3,2 km/h (1 Bft)
13.10.2016 18:09 5,8 °C 5,8 °C 88 % 1012,1 hPa 0,0 mm 1,4 km/h (1 Bft) O-NO 64 ° 0 min 0,000 mm 0,0 UV-I 14 W/m² 4,0 °C 1,6 km/h (1 Bft)
13.10.2016 18:10 5,8 °C 5,8 °C 87 % 1012,1 hPa 0,0 mm 1,9 km/h (1 Bft) O-NO 64 ° 0 min 0,000 mm 0,0 UV-I 14 W/m² 3,8 °C 3,2 km/h (1 Bft)
13.10.2016 18:11 5,8 °C 5,8 °C 88 % 1012,1 hPa 0,0 mm 1,1 km/h (1 Bft) O-NO 64 ° 0 min 0,000 mm 0,0 UV-I 12 W/m² 4,0 °C 3,2 km/h (1 Bft)
13.10.2016 18:12 5,8 °C 5,8 °C 88 % 1012,1 hPa 0,0 mm 1,1 km/h (1 Bft) O-NO 64 ° 0 min 0,000 mm 0,0 UV-I 12 W/m² 4,0 °C 3,2 km/h (1 Bft)
13.10.2016 18:13 5,7 °C 5,8 °C 88 % 1012,1 hPa 0,0 mm 0,1 km/h (0 Bft) O-NO 64 ° 0 min 0,000 mm 0,0 UV-I 12 W/m² 3,9 °C 1,6 km/h (1 Bft)
13.10.2016 18:14 5,7 °C 5,7 °C 88 % 1012,1 hPa 0,0 mm 0,0 km/h (0 Bft) O-NO 64 ° 0 min 0,000 mm 0,0 UV-I 11 W/m² 3,9 °C 0,0 km/h (0 Bft)
13.10.2016 18:15 5,7 °C 5,7 °C 88 % 1012,0 hPa 0,0 mm 0,1 km/h (0 Bft) O-NO 64 ° 0 min 0,000 mm 0,0 UV-I 11 W/m² 3,9 °C 1,6 km/h (1 Bft)
13.10.2016 18:16 5,6 °C 5,7 °C 88 % 1012,0 hPa 0,0 mm 0,0 km/h (0 Bft) O-NO 64 ° 0 min 0,000 mm 0,0 UV-I 9 W/m² 3,8 °C 0,0 km/h (0 Bft)
13.10.2016 18:17 5,6 °C 5,6 °C 88 % 1012,1 hPa 0,0 mm 0,7 km/h (0 Bft) O-NO 64 ° 0 min 0,000 mm 0,0 UV-I 9 W/m² 3,8 °C 1,6 km/h (1 Bft)
13.10.2016 18:18 5,5 °C 5,6 °C 88 % 1012,1 hPa 0,0 mm 0,1 km/h (0 Bft) O-NO 64 ° 0 min 0,000 mm 0,0 UV-I 9 W/m² 3,7 °C 1,6 km/h (1 Bft)
13.10.2016 18:19 5,5 °C 5,5 °C 89 % 1012,1 hPa 0,0 mm 0,3 km/h (0 Bft) O-NO 64 ° 0 min 0,000 mm 0,0 UV-I 7 W/m² 3,8 °C 1,6 km/h (1 Bft)
13.10.2016 18:20 5,5 °C 5,5 °C 89 % 1012,1 hPa 0,0 mm 0,3 km/h (0 Bft) O-NO 64 ° 0 min 0,000 mm 0,0 UV-I 7 W/m² 3,8 °C 1,6 km/h (1 Bft)
13.10.2016 18:21 5,4 °C 5,5 °C 89 % 1012,1 hPa 0,0 mm 0,8 km/h (0 Bft) O-NO 64 ° 0 min 0,000 mm 0,0 UV-I 7 W/m² 3,7 °C 1,6 km/h (1 Bft)
13.10.2016 18:22 5,4 °C 5,4 °C 89 % 1012,1 hPa 0,0 mm 3,3 km/h (1 Bft) O 94 ° 0 min 0,000 mm 0,0 UV-I 5 W/m² 3,7 °C 4,8 km/h (1 Bft)
13.10.2016 18:23 5,4 °C 5,4 °C 89 % 1012,1 hPa 0,0 mm 1,3 km/h (1 Bft) O 94 ° 0 min 0,000 mm 0,0 UV-I 5 W/m² 3,7 °C 3,2 km/h (1 Bft)
13.10.2016 18:24 5,4 °C 5,4 °C 89 % 1012,1 hPa 0,0 mm 0,0 km/h (0 Bft) O 94 ° 0 min 0,000 mm 0,0 UV-I 5 W/m² 3,7 °C 0,0 km/h (0 Bft)
13.10.2016 18:25 5,3 °C 5,4 °C 89 % 1012,1 hPa 0,0 mm 0,0 km/h (0 Bft) O 94 ° 0 min 0,000 mm 0,0 UV-I 0 W/m² 3,6 °C 0,0 km/h (0 Bft)
13.10.2016 18:26 5,3 °C 5,4 °C 89 % 1012,1 hPa 0,0 mm 0,0 km/h (0 Bft) O 94 ° 0 min 0,000 mm 0,0 UV-I 0 W/m² 3,6 °C 0,0 km/h (0 Bft)
13.10.2016 18:27 5,3 °C 5,3 °C 89 % 1012,1 hPa 0,0 mm 0,0 km/h (0 Bft) O 94 ° 0 min 0,000 mm 0,0 UV-I 0 W/m² 3,6 °C 0,0 km/h (0 Bft)
13.10.2016 18:28 5,3 °C 5,3 °C 89 % 1012,1 hPa 0,0 mm 0,0 km/h (0 Bft) O 94 ° 0 min 0,000 mm 0,0 UV-I 0 W/m² 3,6 °C 0,0 km/h (0 Bft)
13.10.2016 18:29 5,2 °C 5,3 °C 89 % 1012,1 hPa 0,0 mm 0,0 km/h (0 Bft) O 94 ° 0 min 0,000 mm 0,0 UV-I 0 W/m² 3,5 °C 0,0 km/h (0 Bft)
13.10.2016 18:30 5,2 °C 5,3 °C 89 % 1012,1 hPa 0,0 mm 0,0 km/h (0 Bft) O 94 ° 0 min 0,000 mm 0,0 UV-I 0 W/m² 3,5 °C 0,0 km/h (0 Bft)
13.10.2016 18:31 5,2 °C 5,2 °C 89 % 1012,1 hPa 0,0 mm 1,1 km/h (1 Bft) O 94 ° 0 min 0,000 mm 0,0 UV-I 0 W/m² 3,5 °C 1,6 km/h (1 Bft)
13.10.2016 18:32 5,1 °C 5,2 °C 89 % 1012,1 hPa 0,0 mm 0,1 km/h (0 Bft) O 94 ° 0 min 0,000 mm 0,0 UV-I 0 W/m² 3,4 °C 1,6 km/h (1 Bft)
13.10.2016 18:33 5,0 °C 5,1 °C 90 % 1012,1 hPa 0,0 mm 0,0 km/h (0 Bft) O 94 ° 0 min 0,000 mm 0,0 UV-I 0 W/m² 3,5 °C 0,0 km/h (0 Bft)
13.10.2016 18:34 4,9 °C 5,0 °C 89 % 1012,1 hPa 0,0 mm 0,0 km/h (0 Bft) O 94 ° 0 min 0,000 mm 0,0 UV-I 0 W/m² 3,2 °C 0,0 km/h (0 Bft)
13.10.2016 18:35 4,8 °C 4,9 °C 90 % 1012,0 hPa 0,0 mm 0,1 km/h (0 Bft) O 94 ° 0 min 0,000 mm 0,0 UV-I 0 W/m² 3,3 °C 1,6 km/h (1 Bft)
13.10.2016 18:36 4,8 °C 4,8 °C 89 % 1012,1 hPa 0,0 mm 0,6 km/h (0 Bft) O 94 ° 0 min 0,000 mm 0,0 UV-I 0 W/m² 3,1 °C 1,6 km/h (1 Bft)
13.10.2016 18:37 4,8 °C 4,8 °C 90 % 1012,0 hPa 0,0 mm 0,5 km/h (0 Bft) O 94 ° 0 min 0,000 mm 0,0 UV-I 0 W/m² 3,3 °C 1,6 km/h (1 Bft)
13.10.2016 18:38 4,8 °C 4,8 °C 91 % 1012,0 hPa 0,0 mm 0,0 km/h (0 Bft) O 94 ° 0 min 0,000 mm 0,0 UV-I 0 W/m² 3,5 °C 0,0 km/h (0 Bft)
13.10.2016 18:39 4,8 °C 4,8 °C 91 % 1012,0 hPa 0,0 mm 0,1 km/h (0 Bft) O 94 ° 0 min 0,000 mm 0,0 UV-I 0 W/m² 3,5 °C 1,6 km/h (1 Bft)
13.10.2016 18:40 4,8 °C 4,8 °C 91 % 1012,0 hPa 0,0 mm 0,1 km/h (0 Bft) O 94 ° 0 min 0,000 mm 0,0 UV-I 0 W/m² 3,5 °C 1,6 km/h (1 Bft)
13.10.2016 18:41 4,7 °C 4,8 °C 91 % 1012,0 hPa 0,0 mm 0,2 km/h (0 Bft) O 94 ° 0 min 0,000 mm 0,0 UV-I 0 W/m² 3,4 °C 1,6 km/h (1 Bft)
13.10.2016 18:42 4,7 °C 4,7 °C 91 % 1012,0 hPa 0,0 mm 0,0 km/h (0 Bft) O 94 ° 0 min 0,000 mm 0,0 UV-I 0 W/m² 3,4 °C 0,0 km/h (0 Bft)
13.10.2016 18:43 4,6 °C 4,7 °C 91 % 1012,0 hPa 0,0 mm 0,0 km/h (0 Bft) O 94 ° 0 min 0,000 mm 0,0 UV-I 0 W/m² 3,3 °C 0,0 km/h (0 Bft)
13.10.2016 18:44 4,6 °C 4,6 °C 91 % 1012,0 hPa 0,0 mm 0,0 km/h (0 Bft) O 94 ° 0 min 0,000 mm 0,0 UV-I 0 W/m² 3,3 °C 0,0 km/h (0 Bft)
13.10.2016 18:45 4,6 °C 4,6 °C 91 % 1011,9 hPa 0,0 mm 0,9 km/h (0 Bft) O 94 ° 0 min 0,000 mm 0,0 UV-I 0 W/m² 3,3 °C 1,6 km/h (1 Bft)
13.10.2016 18:46 4,6 °C 4,6 °C 91 % 1011,9 hPa 0,0 mm 0,9 km/h (0 Bft) O 94 ° 0 min 0,000 mm 0,0 UV-I 0 W/m² 3,3 °C 1,6 km/h (1 Bft)
13.10.2016 18:47 4,5 °C 4,6 °C 91 % 1011,9 hPa 0,0 mm 0,1 km/h (0 Bft) O 94 ° 0 min 0,000 mm 0,0 UV-I 0 W/m² 3,2 °C 1,6 km/h (1 Bft)
13.10.2016 18:48 4,5 °C 4,5 °C 91 % 1011,9 hPa 0,0 mm 0,6 km/h (0 Bft) O 94 ° 0 min 0,000 mm 0,0 UV-I 0 W/m² 3,2 °C 1,6 km/h (1 Bft)
13.10.2016 18:49 4,5 °C 4,5 °C 92 % 1011,9 hPa 0,0 mm 0,3 km/h (0 Bft) O 94 ° 0 min 0,000 mm 0,0 UV-I 0 W/m² 3,3 °C 1,6 km/h (1 Bft)
13.10.2016 18:50 4,6 °C 4,6 °C 92 % 1011,9 hPa 0,0 mm 0,9 km/h (0 Bft) O 94 ° 0 min 0,000 mm 0,0 UV-I 0 W/m² 3,4 °C 1,6 km/h (1 Bft)
13.10.2016 18:51 4,6 °C 4,6 °C 92 % 1011,9 hPa 0,0 mm 1,0 km/h (0 Bft) O 94 ° 0 min 0,000 mm 0,0 UV-I 0 W/m² 3,4 °C 1,6 km/h (1 Bft)
13.10.2016 18:52 4,6 °C 4,6 °C 92 % 1011,9 hPa 0,0 mm 0,6 km/h (0 Bft) O 94 ° 0 min 0,000 mm 0,0 UV-I 0 W/m² 3,4 °C 1,6 km/h (1 Bft)
13.10.2016 18:53 4,6 °C 4,7 °C 91 % 1011,9 hPa 0,0 mm 0,0 km/h (0 Bft) O 94 ° 0 min 0,000 mm 0,0 UV-I 0 W/m² 3,3 °C 0,0 km/h (0 Bft)
13.10.2016 18:54 4,4 °C 4,6 °C 90 % 1012,0 hPa 0,0 mm 0,0 km/h (0 Bft) O 94 ° 0 min 0,000 mm 0,0 UV-I 0 W/m² 2,9 °C 0,0 km/h (0 Bft)
13.10.2016 18:55 4,4 °C 4,4 °C 91 % 1012,0 hPa 0,0 mm 0,0 km/h (0 Bft) O 94 ° 0 min 0,000 mm 0,0 UV-I 0 W/m² 3,1 °C 0,0 km/h (0 Bft)
13.10.2016 18:56 4,4 °C 4,4 °C 91 % 1012,0 hPa 0,0 mm 0,1 km/h (0 Bft) O 94 ° 0 min 0,000 mm 0,0 UV-I 0 W/m² 3,1 °C 1,6 km/h (1 Bft)
13.10.2016 18:57 4,4 °C 4,4 °C 92 % 1012,0 hPa 0,0 mm 0,6 km/h (0 Bft) O 94 ° 0 min 0,000 mm 0,0 UV-I 0 W/m² 3,2 °C 1,6 km/h (1 Bft)
13.10.2016 18:58 4,3 °C 4,4 °C 92 % 1012,0 hPa 0,0 mm 1,2 km/h (1 Bft) O 94 ° 0 min 0,000 mm 0,0 UV-I 0 W/m² 3,1 °C 1,6 km/h (1 Bft)
13.10.2016 18:59 4,3 °C 4,4 °C 92 % 1012,1 hPa 0,0 mm 1,8 km/h (1 Bft) O 94 ° 0 min 0,000 mm 0,0 UV-I 0 W/m² 3,1 °C 3,2 km/h (1 Bft)
13.10.2016 19:00 4,3 °C 4,3 °C 92 % 1012,1 hPa 0,0 mm 0,5 km/h (0 Bft) O 94 ° 0 min 0,000 mm 0,0 UV-I 0 W/m² 3,1 °C 1,6 km/h (1 Bft)
13.10.2016 19:01 4,4 °C 4,4 °C 92 % 1012,1 hPa 0,0 mm 0,8 km/h (0 Bft) O 94 ° 0 min 0,000 mm 0,0 UV-I 0 W/m² 3,2 °C 1,6 km/h (1 Bft)
13.10.2016 19:02 4,4 °C 4,4 °C 92 % 1012,0 hPa 0,0 mm 0,3 km/h (0 Bft) O 94 ° 0 min 0,000 mm 0,0 UV-I 0 W/m² 3,2 °C 1,6 km/h (1 Bft)
13.10.2016 19:03 4,4 °C 4,4 °C 92 % 1012,1 hPa 0,0 mm 0,0 km/h (0 Bft) O 94 ° 0 min 0,000 mm 0,0 UV-I 0 W/m² 3,2 °C 0,0 km/h (0 Bft)
13.10.2016 19:04 4,4 °C 4,4 °C 92 % 1012,1 hPa 0,0 mm 0,1 km/h (0 Bft) O 94 ° 0 min 0,000 mm 0,0 UV-I 0 W/m² 3,2 °C 1,6 km/h (1 Bft)
13.10.2016 19:05 4,5 °C 4,5 °C 92 % 1012,1 hPa 0,0 mm 0,0 km/h (0 Bft) O 94 ° 0 min 0,000 mm 0,0 UV-I 0 W/m² 3,3 °C 0,0 km/h (0 Bft)
13.10.2016 19:06 4,4 °C 4,5 °C 92 % 1012,1 hPa 0,0 mm 0,0 km/h (0 Bft) O 94 ° 0 min 0,000 mm 0,0 UV-I 0 W/m² 3,2 °C 0,0 km/h (0 Bft)
13.10.2016 19:07 4,4 °C 4,4 °C 91 % 1012,1 hPa 0,0 mm 0,0 km/h (0 Bft) O 94 ° 0 min 0,000 mm 0,0 UV-I 0 W/m² 3,1 °C 0,0 km/h (0 Bft)
13.10.2016 19:08 4,3 °C 4,4 °C 91 % 1012,1 hPa 0,0 mm 0,3 km/h (0 Bft) O 94 ° 0 min 0,000 mm 0,0 UV-I 0 W/m² 3,0 °C 1,6 km/h (1 Bft)
13.10.2016 19:09 4,3 °C 4,3 °C 91 % 1012,0 hPa 0,0 mm 1,3 km/h (1 Bft) O 94 ° 0 min 0,000 mm 0,0 UV-I 0 W/m² 3,0 °C 1,6 km/h (1 Bft)
13.10.2016 19:10 4,3 °C 4,3 °C 92 % 1012,0 hPa 0,0 mm 1,0 km/h (0 Bft) O 94 ° 0 min 0,000 mm 0,0 UV-I 0 W/m² 3,1 °C 1,6 km/h (1 Bft)
13.10.2016 19:11 4,3 °C 4,3 °C 92 % 1012,0 hPa 0,0 mm 0,5 km/h (0 Bft) O 94 ° 0 min 0,000 mm 0,0 UV-I 0 W/m² 3,1 °C 1,6 km/h (1 Bft)
13.10.2016 19:12 4,3 °C 4,3 °C 92 % 1012,0 hPa 0,0 mm 1,1 km/h (1 Bft) O 94 ° 0 min 0,000 mm 0,0 UV-I 0 W/m² 3,1 °C 1,6 km/h (1 Bft)
13.10.2016 19:13 4,3 °C 4,3 °C 92 % 1012,0 hPa 0,0 mm 2,0 km/h (1 Bft) O 94 ° 0 min 0,000 mm 0,0 UV-I 0 W/m² 3,1 °C 3,2 km/h (1 Bft)
13.10.2016 19:14 4,3 °C 4,4 °C 92 % 1012,0 hPa 0,0 mm 2,2 km/h (1 Bft) O 94 ° 0 min 0,000 mm 0,0 UV-I 0 W/m² 3,1 °C 3,2 km/h (1 Bft)
13.10.2016 19:15 4,3 °C 4,4 °C 92 % 1012,0 hPa 0,0 mm 0,1 km/h (0 Bft) O 94 ° 0 min 0,000 mm 0,0 UV-I 0 W/m² 3,1 °C 1,6 km/h (1 Bft)
13.10.2016 19:16 4,3 °C 4,3 °C 92 % 1012,1 hPa 0,0 mm 0,9 km/h (0 Bft) O 94 ° 0 min 0,000 mm 0,0 UV-I 0 W/m² 3,1 °C 1,6 km/h (1 Bft)
13.10.2016 19:17 4,3 °C 4,3 °C 92 % 1012,1 hPa 0,0 mm 0,1 km/h (0 Bft) O 94 ° 0 min 0,000 mm 0,0 UV-I 0 W/m² 3,1 °C 1,6 km/h (1 Bft)
13.10.2016 19:18 4,3 °C 4,4 °C 92 % 1012,1 hPa 0,0 mm 0,4 km/h (0 Bft) O 94 ° 0 min 0,000 mm 0,0 UV-I 0 W/m² 3,1 °C 1,6 km/h (1 Bft)
13.10.2016 19:19 4,3 °C 4,3 °C 92 % 1012,1 hPa 0,0 mm 1,3 km/h (1 Bft) O 94 ° 0 min 0,000 mm 0,0 UV-I 0 W/m² 3,1 °C 1,6 km/h (1 Bft)
13.10.2016 19:20 4,4 °C 4,4 °C 92 % 1012,1 hPa 0,0 mm 1,0 km/h (0 Bft) O 94 ° 0 min 0,000 mm 0,0 UV-I 0 W/m² 3,2 °C 1,6 km/h (1 Bft)
13.10.2016 19:21 4,3 °C 4,4 °C 92 % 1012,1 hPa 0,0 mm 0,9 km/h (0 Bft) O 94 ° 0 min 0,000 mm 0,0 UV-I 0 W/m² 3,1 °C 1,6 km/h (1 Bft)
13.10.2016 19:22 4,3 °C 4,4 °C 92 % 1012,1 hPa 0,0 mm 0,1 km/h (0 Bft) O 94 ° 0 min 0,000 mm 0,0 UV-I 0 W/m² 3,1 °C 1,6 km/h (1 Bft)
13.10.2016 19:23 4,3 °C 4,3 °C 92 % 1012,1 hPa 0,0 mm 1,1 km/h (1 Bft) O 94 ° 0 min 0,000 mm 0,0 UV-I 0 W/m² 3,1 °C 1,6 km/h (1 Bft)
13.10.2016 19:24 4,3 °C 4,3 °C 92 % 1012,1 hPa 0,0 mm 0,2 km/h (0 Bft) O 94 ° 0 min 0,000 mm 0,0 UV-I 0 W/m² 3,1 °C 1,6 km/h (1 Bft)
13.10.2016 19:25 4,2 °C 4,3 °C 92 % 1012,1 hPa 0,0 mm 0,0 km/h (0 Bft) O 94 ° 0 min 0,000 mm 0,0 UV-I 0 W/m² 3,0 °C 0,0 km/h (0 Bft)
13.10.2016 19:26 4,2 °C 4,2 °C 92 % 1012,1 hPa 0,0 mm 0,0 km/h (0 Bft) O 94 ° 0 min 0,000 mm 0,0 UV-I 0 W/m² 3,0 °C 0,0 km/h (0 Bft)
13.10.2016 19:27 4,1 °C 4,2 °C 92 % 1012,1 hPa 0,0 mm 0,0 km/h (0 Bft) O 94 ° 0 min 0,000 mm 0,0 UV-I 0 W/m² 2,9 °C 0,0 km/h (0 Bft)
13.10.2016 19:28 3,9 °C 4,1 °C 92 % 1012,1 hPa 0,0 mm 0,0 km/h (0 Bft) O 94 ° 0 min 0,000 mm 0,0 UV-I 0 W/m² 2,7 °C 0,0 km/h (0 Bft)
13.10.2016 19:29 3,9 °C 3,9 °C 92 % 1012,0 hPa 0,0 mm 0,0 km/h (0 Bft) O 94 ° 0 min 0,000 mm 0,0 UV-I 0 W/m² 2,7 °C 0,0 km/h (0 Bft)
13.10.2016 19:30 3,9 °C 3,9 °C 92 % 1012,0 hPa 0,0 mm 0,0 km/h (0 Bft) O 94 ° 0 min 0,000 mm 0,0 UV-I 0 W/m² 2,7 °C 0,0 km/h (0 Bft)
13.10.2016 19:31 3,8 °C 3,9 °C 93 % 1012,1 hPa 0,0 mm 0,0 km/h (0 Bft) O 94 ° 0 min 0,000 mm 0,0 UV-I 0 W/m² 2,8 °C 0,0 km/h (0 Bft)
13.10.2016 19:32 3,8 °C 3,8 °C 92 % 1012,1 hPa 0,0 mm 0,0 km/h (0 Bft) O 94 ° 0 min 0,000 mm 0,0 UV-I 0 W/m² 2,6 °C 0,0 km/h (0 Bft)
13.10.2016 19:33 3,7 °C 3,8 °C 92 % 1012,1 hPa 0,0 mm 0,0 km/h (0 Bft) O 94 ° 0 min 0,000 mm 0,0 UV-I 0 W/m² 2,5 °C 0,0 km/h (0 Bft)
13.10.2016 19:34 3,6 °C 3,7 °C 92 % 1012,1 hPa 0,0 mm 0,0 km/h (0 Bft) O 94 ° 0 min 0,000 mm 0,0 UV-I 0 W/m² 2,4 °C 0,0 km/h (0 Bft)
13.10.2016 19:35 3,6 °C 3,6 °C 93 % 1012,1 hPa 0,0 mm 0,1 km/h (0 Bft) O 94 ° 0 min 0,000 mm 0,0 UV-I 0 W/m² 2,6 °C 1,6 km/h (1 Bft)
13.10.2016 19:36 3,4 °C 3,6 °C 93 % 1012,2 hPa 0,0 mm 0,4 km/h (0 Bft) O 94 ° 0 min 0,000 mm 0,0 UV-I 0 W/m² 2,4 °C 1,6 km/h (1 Bft)
13.10.2016 19:37 3,4 °C 3,4 °C 93 % 1012,2 hPa 0,0 mm 0,0 km/h (0 Bft) O 94 ° 0 min 0,000 mm 0,0 UV-I 0 W/m² 2,4 °C 0,0 km/h (0 Bft)
13.10.2016 19:38 3,4 °C 3,4 °C 93 % 1012,2 hPa 0,0 mm 0,0 km/h (0 Bft) O 94 ° 0 min 0,000 mm 0,0 UV-I 0 W/m² 2,4 °C 0,0 km/h (0 Bft)
13.10.2016 19:39 3,3 °C 3,4 °C 93 % 1012,2 hPa 0,0 mm 0,0 km/h (0 Bft) O 94 ° 0 min 0,000 mm 0,0 UV-I 0 W/m² 2,3 °C 0,0 km/h (0 Bft)
13.10.2016 19:40 3,3 °C 3,4 °C 93 % 1012,2 hPa 0,0 mm 0,4 km/h (0 Bft) O 94 ° 0 min 0,000 mm 0,0 UV-I 0 W/m² 2,3 °C 1,6 km/h (1 Bft)
13.10.2016 19:41 3,3 °C 3,4 °C 93 % 1012,2 hPa 0,0 mm 0,0 km/h (0 Bft) O 94 ° 0 min 0,000 mm 0,0 UV-I 0 W/m² 2,3 °C 0,0 km/h (0 Bft)
13.10.2016 19:42 3,3 °C 3,3 °C 93 % 1012,3 hPa 0,0 mm 0,0 km/h (0 Bft) O 94 ° 0 min 0,000 mm 0,0 UV-I 0 W/m² 2,3 °C 0,0 km/h (0 Bft)
13.10.2016 19:43 3,3 °C 3,3 °C 93 % 1012,2 hPa 0,0 mm 0,0 km/h (0 Bft) O 94 ° 0 min 0,000 mm 0,0 UV-I 0 W/m² 2,3 °C 0,0 km/h (0 Bft)
13.10.2016 19:44 3,3 °C 3,3 °C 94 % 1012,2 hPa 0,0 mm 0,0 km/h (0 Bft) O 94 ° 0 min 0,000 mm 0,0 UV-I 0 W/m² 2,4 °C 0,0 km/h (0 Bft)
13.10.2016 19:45 3,3 °C 3,3 °C 94 % 1012,2 hPa 0,0 mm 0,2 km/h (0 Bft) O 94 ° 0 min 0,000 mm 0,0 UV-I 0 W/m² 2,4 °C 1,6 km/h (1 Bft)
13.10.2016 19:46 3,3 °C 3,3 °C 94 % 1012,2 hPa 0,0 mm 1,1 km/h (1 Bft) O 94 ° 0 min 0,000 mm 0,0 UV-I 0 W/m² 2,4 °C 1,6 km/h (1 Bft)
13.10.2016 19:47 3,4 °C 3,4 °C 94 % 1012,2 hPa 0,0 mm 1,9 km/h (1 Bft) O 94 ° 0 min 0,000 mm 0,0 UV-I 0 W/m² 2,5 °C 3,2 km/h (1 Bft)
13.10.2016 19:48 3,6 °C 3,6 °C 95 % 1012,2 hPa 0,0 mm 2,4 km/h (1 Bft) O 94 ° 0 min 0,000 mm 0,0 UV-I 0 W/m² 2,9 °C 3,2 km/h (1 Bft)
13.10.2016 19:49 3,7 °C 3,7 °C 95 % 1012,2 hPa 0,0 mm 2,7 km/h (1 Bft) O 94 ° 0 min 0,000 mm 0,0 UV-I 0 W/m² 3,0 °C 3,2 km/h (1 Bft)
13.10.2016 19:50 3,8 °C 3,8 °C 95 % 1012,2 hPa 0,0 mm 2,4 km/h (1 Bft) O 94 ° 0 min 0,000 mm 0,0 UV-I 0 W/m² 3,1 °C 4,8 km/h (1 Bft)
13.10.2016 19:51 3,8 °C 3,8 °C 95 % 1012,2 hPa 0,0 mm 1,7 km/h (1 Bft) O 94 ° 0 min 0,000 mm 0,0 UV-I 0 W/m² 3,1 °C 3,2 km/h (1 Bft)
13.10.2016 19:52 3,9 °C 3,9 °C 94 % 1012,2 hPa 0,0 mm 0,1 km/h (0 Bft) O 94 ° 0 min 0,000 mm 0,0 UV-I 0 W/m² 3,0 °C 1,6 km/h (1 Bft)
13.10.2016 19:53 3,9 °C 3,9 °C 94 % 1012,2 hPa 0,0 mm 0,0 km/h (0 Bft) O 94 ° 0 min 0,000 mm 0,0 UV-I 0 W/m² 3,0 °C 0,0 km/h (0 Bft)
13.10.2016 19:54 3,9 °C 3,9 °C 94 % 1012,2 hPa 0,0 mm 0,0 km/h (0 Bft) O 94 ° 0 min 0,000 mm 0,0 UV-I 0 W/m² 3,0 °C 0,0 km/h (0 Bft)
13.10.2016 19:55 3,9 °C 3,9 °C 94 % 1012,2 hPa 0,0 mm 0,3 km/h (0 Bft) O 94 ° 0 min 0,000 mm 0,0 UV-I 0 W/m² 3,0 °C 1,6 km/h (1 Bft)
13.10.2016 19:56 3,9 °C 3,9 °C 94 % 1012,2 hPa 0,0 mm 1,2 km/h (1 Bft) O 94 ° 0 min 0,000 mm 0,0 UV-I 0 W/m² 3,0 °C 3,2 km/h (1 Bft)
13.10.2016 19:57 3,9 °C 3,9 °C 93 % 1012,2 hPa 0,0 mm 0,3 km/h (0 Bft) O 94 ° 0 min 0,000 mm 0,0 UV-I 0 W/m² 2,9 °C 1,6 km/h (1 Bft)
13.10.2016 19:58 3,8 °C 3,9 °C 93 % 1012,2 hPa 0,0 mm 0,1 km/h (0 Bft) O 94 ° 0 min 0,000 mm 0,0 UV-I 0 W/m² 2,8 °C 1,6 km/h (1 Bft)
13.10.2016 19:59 3,7 °C 3,8 °C 93 % 1012,2 hPa 0,0 mm 0,5 km/h (0 Bft) O 94 ° 0 min 0,000 mm 0,0 UV-I 0 W/m² 2,7 °C 1,6 km/h (1 Bft)
13.10.2016 20:00 3,6 °C 3,7 °C 93 % 1012,2 hPa 0,0 mm 0,0 km/h (0 Bft) O 94 ° 0 min 0,000 mm 0,0 UV-I 0 W/m² 2,6 °C 0,0 km/h (0 Bft)
13.10.2016 20:01 3,6 °C 3,6 °C 93 % 1012,2 hPa 0,0 mm 0,8 km/h (0 Bft) O 94 ° 0 min 0,000 mm 0,0 UV-I 0 W/m² 2,6 °C 1,6 km/h (1 Bft)
13.10.2016 20:02 3,6 °C 3,6 °C 93 % 1012,2 hPa 0,0 mm 1,4 km/h (1 Bft) O 94 ° 0 min 0,000 mm 0,0 UV-I 0 W/m² 2,6 °C 3,2 km/h (1 Bft)
13.10.2016 20:03 3,6 °C 3,6 °C 94 % 1012,2 hPa 0,0 mm 2,1 km/h (1 Bft) O 94 ° 0 min 0,000 mm 0,0 UV-I 0 W/m² 2,7 °C 3,2 km/h (1 Bft)
13.10.2016 20:04 3,6 °C 3,6 °C 94 % 1012,1 hPa 0,0 mm 2,3 km/h (1 Bft) O 94 ° 0 min 0,000 mm 0,0 UV-I 0 W/m² 2,7 °C 3,2 km/h (1 Bft)
13.10.2016 20:05 3,7 °C 3,7 °C 94 % 1012,1 hPa 0,0 mm 2,7 km/h (1 Bft) O 94 ° 0 min 0,000 mm 0,0 UV-I 0 W/m² 2,8 °C 3,2 km/h (1 Bft)
13.10.2016 20:06 3,8 °C 3,8 °C 94 % 1012,1 hPa 0,0 mm 2,4 km/h (1 Bft) O 94 ° 0 min 0,000 mm 0,0 UV-I 0 W/m² 2,9 °C 3,2 km/h (1 Bft)
13.10.2016 20:07 3,8 °C 3,8 °C 94 % 1012,1 hPa 0,0 mm 3,0 km/h (1 Bft) O 95 ° 0 min 0,000 mm 0,0 UV-I 0 W/m² 2,9 °C 4,8 km/h (1 Bft)
13.10.2016 20:08 3,8 °C 3,8 °C 94 % 1012,1 hPa 0,0 mm 2,9 km/h (1 Bft) O 95 ° 0 min 0,000 mm 0,0 UV-I 0 W/m² 2,9 °C 4,8 km/h (1 Bft)
13.10.2016 20:09 3,8 °C 3,8 °C 94 % 1012,1 hPa 0,0 mm 2,4 km/h (1 Bft) O 96 ° 0 min 0,000 mm 0,0 UV-I 0 W/m² 2,9 °C 3,2 km/h (1 Bft)
13.10.2016 20:10 3,8 °C 3,8 °C 94 % 1012,0 hPa 0,0 mm 1,7 km/h (1 Bft) O 96 ° 0 min 0,000 mm 0,0 UV-I 0 W/m² 2,9 °C 3,2 km/h (1 Bft)
13.10.2016 20:11 3,9 °C 3,9 °C 94 % 1012,1 hPa 0,0 mm 0,9 km/h (0 Bft) O 96 ° 0 min 0,000 mm 0,0 UV-I 0 W/m² 3,0 °C 3,2 km/h (1 Bft)
13.10.2016 20:12 3,9 °C 3,9 °C 94 % 1012,1 hPa 0,0 mm 0,3 km/h (0 Bft) O 96 ° 0 min 0,000 mm 0,0 UV-I 0 W/m² 3,0 °C 1,6 km/h (1 Bft)
13.10.2016 20:13 3,9 °C 4,0 °C 94 % 1012,0 hPa 0,0 mm 2,7 km/h (1 Bft) O 96 ° 0 min 0,000 mm 0,0 UV-I 0 W/m² 3,0 °C 3,2 km/h (1 Bft)
13.10.2016 20:14 3,9 °C 3,9 °C 94 % 1012,0 hPa 0,0 mm 1,7 km/h (1 Bft) O 96 ° 0 min 0,000 mm 0,0 UV-I 0 W/m² 3,0 °C 3,2 km/h (1 Bft)
13.10.2016 20:15 3,9 °C 3,9 °C 94 % 1012,0 hPa 0,0 mm 0,3 km/h (0 Bft) O 96 ° 0 min 0,000 mm 0,0 UV-I 0 W/m² 3,0 °C 1,6 km/h (1 Bft)
13.10.2016 20:16 3,8 °C 3,9 °C 93 % 1012,0 hPa 0,0 mm 0,0 km/h (0 Bft) O 96 ° 0 min 0,000 mm 0,0 UV-I 0 W/m² 2,8 °C 0,0 km/h (0 Bft)
13.10.2016 20:17 3,7 °C 3,8 °C 93 % 1012,1 hPa 0,0 mm 0,0 km/h (0 Bft) O 96 ° 0 min 0,000 mm 0,0 UV-I 0 W/m² 2,7 °C 0,0 km/h (0 Bft)
13.10.2016 20:18 3,6 °C 3,7 °C 92 % 1012,0 hPa 0,0 mm 0,1 km/h (0 Bft) O 96 ° 0 min 0,000 mm 0,0 UV-I 0 W/m² 2,4 °C 1,6 km/h (1 Bft)
13.10.2016 20:19 3,4 °C 3,6 °C 92 % 1012,1 hPa 0,0 mm 0,2 km/h (0 Bft) O 96 ° 0 min 0,000 mm 0,0 UV-I 0 W/m² 2,2 °C 1,6 km/h (1 Bft)
13.10.2016 20:20 3,3 °C 3,4 °C 92 % 1012,1 hPa 0,0 mm 0,0 km/h (0 Bft) O 96 ° 0 min 0,000 mm 0,0 UV-I 0 W/m² 2,1 °C 0,0 km/h (0 Bft)
13.10.2016 20:21 3,2 °C 3,3 °C 93 % 1012,1 hPa 0,0 mm 0,7 km/h (0 Bft) O 96 ° 0 min 0,000 mm 0,0 UV-I 0 W/m² 2,2 °C 1,6 km/h (1 Bft)
13.10.2016 20:22 3,1 °C 3,2 °C 93 % 1012,1 hPa 0,0 mm 0,1 km/h (0 Bft) O 96 ° 0 min 0,000 mm 0,0 UV-I 0 W/m² 2,1 °C 1,6 km/h (1 Bft)
13.10.2016 20:23 3,0 °C 3,1 °C 93 % 1012,1 hPa 0,0 mm 0,0 km/h (0 Bft) O 96 ° 0 min 0,000 mm 0,0 UV-I 0 W/m² 2,0 °C 0,0 km/h (0 Bft)
13.10.2016 20:24 2,9 °C 3,0 °C 93 % 1012,1 hPa 0,0 mm 0,0 km/h (0 Bft) O 96 ° 0 min 0,000 mm 0,0 UV-I 0 W/m² 1,9 °C 0,0 km/h (0 Bft)
13.10.2016 20:25 2,8 °C 2,9 °C 93 % 1012,1 hPa 0,0 mm 0,0 km/h (0 Bft) O 96 ° 0 min 0,000 mm 0,0 UV-I 0 W/m² 1,8 °C 0,0 km/h (0 Bft)
13.10.2016 20:26 2,8 °C 2,8 °C 94 % 1012,1 hPa 0,0 mm 0,0 km/h (0 Bft) O 96 ° 0 min 0,000 mm 0,0 UV-I 0 W/m² 1,9 °C 0,0 km/h (0 Bft)
13.10.2016 20:27 2,8 °C 2,8 °C 94 % 1012,1 hPa 0,0 mm 0,0 km/h (0 Bft) O 96 ° 0 min 0,000 mm 0,0 UV-I 0 W/m² 1,9 °C 0,0 km/h (0 Bft)
13.10.2016 20:28 2,8 °C 2,8 °C 94 % 1012,1 hPa 0,0 mm 0,5 km/h (0 Bft) O 96 ° 0 min 0,000 mm 0,0 UV-I 0 W/m² 1,9 °C 1,6 km/h (1 Bft)
13.10.2016 20:29 2,9 °C 2,9 °C 94 % 1012,2 hPa 0,0 mm 0,4 km/h (0 Bft) O 96 ° 0 min 0,000 mm 0,0 UV-I 0 W/m² 2,0 °C 1,6 km/h (1 Bft)
13.10.2016 20:30 2,9 °C 2,9 °C 94 % 1012,2 hPa 0,0 mm 0,1 km/h (0 Bft) O 96 ° 0 min 0,000 mm 0,0 UV-I 0 W/m² 2,0 °C 1,6 km/h (1 Bft)
13.10.2016 20:31 3,0 °C 3,0 °C 95 % 1012,1 hPa 0,0 mm 0,0 km/h (0 Bft) O 96 ° 0 min 0,000 mm 0,0 UV-I 0 W/m² 2,3 °C 0,0 km/h (0 Bft)
13.10.2016 20:32 3,1 °C 3,1 °C 95 % 1012,1 hPa 0,0 mm 0,0 km/h (0 Bft) O 96 ° 0 min 0,000 mm 0,0 UV-I 0 W/m² 2,4 °C 0,0 km/h (0 Bft)
13.10.2016 20:33 3,1 °C 3,1 °C 95 % 1012,2 hPa 0,0 mm 0,4 km/h (0 Bft) O 96 ° 0 min 0,000 mm 0,0 UV-I 0 W/m² 2,4 °C 3,2 km/h (1 Bft)
13.10.2016 20:34 3,1 °C 3,1 °C 95 % 1012,1 hPa 0,0 mm 1,5 km/h (1 Bft) O 96 ° 0 min 0,000 mm 0,0 UV-I 0 W/m² 2,4 °C 3,2 km/h (1 Bft)
13.10.2016 20:35 3,1 °C 3,1 °C 95 % 1012,1 hPa 0,0 mm 0,6 km/h (0 Bft) O 96 ° 0 min 0,000 mm 0,0 UV-I 0 W/m² 2,4 °C 1,6 km/h (1 Bft)
13.10.2016 20:36 3,1 °C 3,1 °C 94 % 1012,1 hPa 0,0 mm 0,2 km/h (0 Bft) O 96 ° 0 min 0,000 mm 0,0 UV-I 0 W/m² 2,2 °C 1,6 km/h (1 Bft)
13.10.2016 20:37 3,0 °C 3,1 °C 94 % 1012,1 hPa 0,0 mm 1,4 km/h (1 Bft) O 96 ° 0 min 0,000 mm 0,0 UV-I 0 W/m² 2,1 °C 3,2 km/h (1 Bft)
13.10.2016 20:38 2,9 °C 3,0 °C 94 % 1012,1 hPa 0,0 mm 0,1 km/h (0 Bft) O 96 ° 0 min 0,000 mm 0,0 UV-I 0 W/m² 2,0 °C 1,6 km/h (1 Bft)
13.10.2016 20:39 2,8 °C 2,9 °C 94 % 1012,1 hPa 0,0 mm 0,0 km/h (0 Bft) O 96 ° 0 min 0,000 mm 0,0 UV-I 0 W/m² 1,9 °C 0,0 km/h (0 Bft)
13.10.2016 20:40 2,7 °C 2,8 °C 94 % 1012,1 hPa 0,0 mm 0,0 km/h (0 Bft) O 96 ° 0 min 0,000 mm 0,0 UV-I 0 W/m² 1,8 °C 0,0 km/h (0 Bft)
13.10.2016 20:41 2,7 °C 2,8 °C 94 % 1012,1 hPa 0,0 mm 0,3 km/h (0 Bft) O 96 ° 0 min 0,000 mm 0,0 UV-I 0 W/m² 1,8 °C 1,6 km/h (1 Bft)
13.10.2016 20:42 2,8 °C 2,8 °C 94 % 1012,1 hPa 0,0 mm 1,1 km/h (1 Bft) O 96 ° 0 min 0,000 mm 0,0 UV-I 0 W/m² 1,9 °C 1,6 km/h (1 Bft)
13.10.2016 20:43 2,8 °C 2,8 °C 94 % 1012,1 hPa 0,0 mm 0,8 km/h (0 Bft) O 96 ° 0 min 0,000 mm 0,0 UV-I 0 W/m² 1,9 °C 1,6 km/h (1 Bft)
13.10.2016 20:44 2,8 °C 2,8 °C 94 % 1012,1 hPa 0,0 mm 0,2 km/h (0 Bft) O 96 ° 0 min 0,000 mm 0,0 UV-I 0 W/m² 1,9 °C 1,6 km/h (1 Bft)
13.10.2016 20:45 2,9 °C 2,9 °C 95 % 1012,1 hPa 0,0 mm 0,6 km/h (0 Bft) O 96 ° 0 min 0,000 mm 0,0 UV-I 0 W/m² 2,2 °C 1,6 km/h (1 Bft)
13.10.2016 20:46 2,9 °C 2,9 °C 95 % 1012,1 hPa 0,0 mm 1,6 km/h (1 Bft) O 96 ° 0 min 0,000 mm 0,0 UV-I 0 W/m² 2,2 °C 3,2 km/h (1 Bft)
13.10.2016 20:47 2,9 °C 2,9 °C 95 % 1012,1 hPa 0,0 mm 0,2 km/h (0 Bft) O 96 ° 0 min 0,000 mm 0,0 UV-I 0 W/m² 2,2 °C 1,6 km/h (1 Bft)
13.10.2016 20:48 2,8 °C 2,9 °C 95 % 1012,0 hPa 0,0 mm 0,4 km/h (0 Bft) O 96 ° 0 min 0,000 mm 0,0 UV-I 0 W/m² 2,1 °C 1,6 km/h (1 Bft)
13.10.2016 20:49 2,8 °C 2,8 °C 95 % 1012,0 hPa 0,0 mm 1,9 km/h (1 Bft) O 96 ° 0 min 0,000 mm 0,0 UV-I 0 W/m² 2,1 °C 3,2 km/h (1 Bft)
13.10.2016 20:50 2,7 °C 2,8 °C 94 % 1012,1 hPa 0,0 mm 0,3 km/h (0 Bft) O 96 ° 0 min 0,000 mm 0,0 UV-I 0 W/m² 1,8 °C 1,6 km/h (1 Bft)
13.10.2016 20:51 2,7 °C 2,7 °C 94 % 1012,1 hPa 0,0 mm 0,0 km/h (0 Bft) O 96 ° 0 min 0,000 mm 0,0 UV-I 0 W/m² 1,8 °C 0,0 km/h (0 Bft)
13.10.2016 20:52 2,6 °C 2,7 °C 94 % 1012,1 hPa 0,0 mm 0,0 km/h (0 Bft) O 96 ° 0 min 0,000 mm 0,0 UV-I 0 W/m² 1,7 °C 0,0 km/h (0 Bft)
13.10.2016 20:53 2,6 °C 2,6 °C 94 % 1012,0 hPa 0,0 mm 0,0 km/h (0 Bft) O 96 ° 0 min 0,000 mm 0,0 UV-I 0 W/m² 1,7 °C 0,0 km/h (0 Bft)
13.10.2016 20:54 2,6 °C 2,6 °C 94 % 1012,0 hPa 0,0 mm 0,0 km/h (0 Bft) O 96 ° 0 min 0,000 mm 0,0 UV-I 0 W/m² 1,7 °C 0,0 km/h (0 Bft)
13.10.2016 20:55 2,5 °C 2,6 °C 94 % 1012,0 hPa 0,0 mm 0,0 km/h (0 Bft) O 96 ° 0 min 0,000 mm 0,0 UV-I 0 W/m² 1,6 °C 0,0 km/h (0 Bft)
13.10.2016 20:56 2,5 °C 2,6 °C 95 % 1012,0 hPa 0,0 mm 0,0 km/h (0 Bft) O 96 ° 0 min 0,000 mm 0,0 UV-I 0 W/m² 1,8 °C 0,0 km/h (0 Bft)
13.10.2016 20:57 2,5 °C 2,5 °C 94 % 1012,0 hPa 0,0 mm 0,0 km/h (0 Bft) O 96 ° 0 min 0,000 mm 0,0 UV-I 0 W/m² 1,6 °C 0,0 km/h (0 Bft)
13.10.2016 20:58 2,5 °C 2,6 °C 95 % 1012,0 hPa 0,0 mm 0,0 km/h (0 Bft) O 96 ° 0 min 0,000 mm 0,0 UV-I 0 W/m² 1,8 °C 0,0 km/h (0 Bft)
13.10.2016 20:59 2,6 °C 2,6 °C 95 % 1012,0 hPa 0,0 mm 0,0 km/h (0 Bft) O 96 ° 0 min 0,000 mm 0,0 UV-I 0 W/m² 1,9 °C 0,0 km/h (0 Bft)
13.10.2016 21:00 2,5 °C 2,6 °C 95 % 1012,1 hPa 0,0 mm 0,0 km/h (0 Bft) O 96 ° 0 min 0,000 mm 0,0 UV-I 0 W/m² 1,8 °C 0,0 km/h (0 Bft)
13.10.2016 21:01 2,4 °C 2,5 °C 94 % 1012,1 hPa 0,0 mm 0,0 km/h (0 Bft) O 96 ° 0 min 0,000 mm 0,0 UV-I 0 W/m² 1,5 °C 0,0 km/h (0 Bft)
13.10.2016 21:02 2,4 °C 2,4 °C 94 % 1012,0 hPa 0,0 mm 0,0 km/h (0 Bft) O 96 ° 0 min 0,000 mm 0,0 UV-I 0 W/m² 1,5 °C 0,0 km/h (0 Bft)
13.10.2016 21:03 2,4 °C 2,4 °C 94 % 1012,1 hPa 0,0 mm 0,0 km/h (0 Bft) O 96 ° 0 min 0,000 mm 0,0 UV-I 0 W/m² 1,5 °C 0,0 km/h (0 Bft)
13.10.2016 21:04 2,4 °C 2,4 °C 94 % 1012,0 hPa 0,0 mm 0,0 km/h (0 Bft) O 96 ° 0 min 0,000 mm 0,0 UV-I 0 W/m² 1,5 °C 0,0 km/h (0 Bft)
13.10.2016 21:05 2,4 °C 2,4 °C 94 % 1012,0 hPa 0,0 mm 0,2 km/h (0 Bft) O 96 ° 0 min 0,000 mm 0,0 UV-I 0 W/m² 1,5 °C 1,6 km/h (1 Bft)
13.10.2016 21:06 2,4 °C 2,4 °C 95 % 1012,0 hPa 0,0 mm 0,0 km/h (0 Bft) O 96 ° 0 min 0,000 mm 0,0 UV-I 0 W/m² 1,7 °C 0,0 km/h (0 Bft)
13.10.2016 21:07 2,4 °C 2,4 °C 95 % 1012,0 hPa 0,0 mm 0,0 km/h (0 Bft) O 96 ° 0 min 0,000 mm 0,0 UV-I 0 W/m² 1,7 °C 0,0 km/h (0 Bft)
13.10.2016 21:08 2,4 °C 2,4 °C 95 % 1012,0 hPa 0,0 mm 0,0 km/h (0 Bft) O 96 ° 0 min 0,000 mm 0,0 UV-I 0 W/m² 1,7 °C 0,0 km/h (0 Bft)
13.10.2016 21:09 2,5 °C 2,5 °C 95 % 1011,9 hPa 0,0 mm 0,0 km/h (0 Bft) O 96 ° 0 min 0,000 mm 0,0 UV-I 0 W/m² 1,8 °C 0,0 km/h (0 Bft)
13.10.2016 21:10 2,6 °C 2,6 °C 95 % 1011,9 hPa 0,0 mm 0,3 km/h (0 Bft) O 96 ° 0 min 0,000 mm 0,0 UV-I 0 W/m² 1,9 °C 1,6 km/h (1 Bft)
13.10.2016 21:11 2,6 °C 2,6 °C 95 % 1012,0 hPa 0,0 mm 0,0 km/h (0 Bft) O 96 ° 0 min 0,000 mm 0,0 UV-I 0 W/m² 1,9 °C 0,0 km/h (0 Bft)
13.10.2016 21:12 2,5 °C 2,6 °C 95 % 1012,0 hPa 0,0 mm 0,0 km/h (0 Bft) O 96 ° 0 min 0,000 mm 0,0 UV-I 0 W/m² 1,8 °C 0,0 km/h (0 Bft)
13.10.2016 21:13 2,5 °C 2,5 °C 95 % 1012,0 hPa 0,0 mm 1,3 km/h (1 Bft) O 96 ° 0 min 0,000 mm 0,0 UV-I 0 W/m² 1,8 °C 3,2 km/h (1 Bft)
13.10.2016 21:14 2,6 °C 2,6 °C 95 % 1012,0 hPa 0,0 mm 0,4 km/h (0 Bft) O 96 ° 0 min 0,000 mm 0,0 UV-I 0 W/m² 1,9 °C 1,6 km/h (1 Bft)
13.10.2016 21:15 2,6 °C 2,6 °C 95 % 1011,9 hPa 0,0 mm 0,3 km/h (0 Bft) O 96 ° 0 min 0,000 mm 0,0 UV-I 0 W/m² 1,9 °C 1,6 km/h (1 Bft)
13.10.2016 21:16 2,7 °C 2,7 °C 95 % 1012,0 hPa 0,0 mm 0,8 km/h (0 Bft) O 96 ° 0 min 0,000 mm 0,0 UV-I 0 W/m² 2,0 °C 1,6 km/h (1 Bft)
13.10.2016 21:17 2,6 °C 2,7 °C 95 % 1012,0 hPa 0,0 mm 0,1 km/h (0 Bft) O 96 ° 0 min 0,000 mm 0,0 UV-I 0 W/m² 1,9 °C 1,6 km/h (1 Bft)
13.10.2016 21:18 2,5 °C 2,6 °C 95 % 1011,9 hPa 0,0 mm 0,0 km/h (0 Bft) O 96 ° 0 min 0,000 mm 0,0 UV-I 0 W/m² 1,8 °C 0,0 km/h (0 Bft)
13.10.2016 21:19 2,4 °C 2,5 °C 95 % 1011,9 hPa 0,0 mm 0,7 km/h (0 Bft) O 96 ° 0 min 0,000 mm 0,0 UV-I 0 W/m² 1,7 °C 1,6 km/h (1 Bft)
13.10.2016 21:20 2,4 °C 2,4 °C 95 % 1012,0 hPa 0,0 mm 0,1 km/h (0 Bft) O 96 ° 0 min 0,000 mm 0,0 UV-I 0 W/m² 1,7 °C 1,6 km/h (1 Bft)
13.10.2016 21:21 2,4 °C 2,4 °C 95 % 1012,0 hPa 0,0 mm 0,0 km/h (0 Bft) O 96 ° 0 min 0,000 mm 0,0 UV-I 0 W/m² 1,7 °C 0,0 km/h (0 Bft)
13.10.2016 21:22 2,3 °C 2,4 °C 95 % 1012,0 hPa 0,0 mm 0,0 km/h (0 Bft) O 96 ° 0 min 0,000 mm 0,0 UV-I 0 W/m² 1,6 °C 0,0 km/h (0 Bft)
13.10.2016 21:23 2,3 °C 2,3 °C 95 % 1012,0 hPa 0,0 mm 0,0 km/h (0 Bft) O 96 ° 0 min 0,000 mm 0,0 UV-I 0 W/m² 1,6 °C 0,0 km/h (0 Bft)
13.10.2016 21:24 2,4 °C 2,4 °C 95 % 1012,0 hPa 0,0 mm 0,3 km/h (0 Bft) O 96 ° 0 min 0,000 mm 0,0 UV-I 0 W/m² 1,7 °C 1,6 km/h (1 Bft)
13.10.2016 21:25 2,6 °C 2,6 °C 95 % 1011,9 hPa 0,0 mm 1,1 km/h (1 Bft) O 96 ° 0 min 0,000 mm 0,0 UV-I 0 W/m² 1,9 °C 1,6 km/h (1 Bft)
13.10.2016 21:26 2,7 °C 2,7 °C 95 % 1012,0 hPa 0,0 mm 2,0 km/h (1 Bft) O 96 ° 0 min 0,000 mm 0,0 UV-I 0 W/m² 2,0 °C 3,2 km/h (1 Bft)
13.10.2016 21:27 2,8 °C 2,8 °C 96 % 1011,9 hPa 0,0 mm 1,6 km/h (1 Bft) O 96 ° 0 min 0,000 mm 0,0 UV-I 0 W/m² 2,2 °C 3,2 km/h (1 Bft)
13.10.2016 21:28 2,9 °C 2,9 °C 96 % 1011,9 hPa 0,0 mm 0,1 km/h (0 Bft) O 96 ° 0 min 0,000 mm 0,0 UV-I 0 W/m² 2,3 °C 1,6 km/h (1 Bft)
13.10.2016 21:29 2,9 °C 2,9 °C 96 % 1011,9 hPa 0,0 mm 1,7 km/h (1 Bft) O 96 ° 0 min 0,000 mm 0,0 UV-I 0 W/m² 2,3 °C 3,2 km/h (1 Bft)
13.10.2016 21:30 2,9 °C 2,9 °C 96 % 1011,9 hPa 0,0 mm 1,7 km/h (1 Bft) O 96 ° 0 min 0,000 mm 0,0 UV-I 0 W/m² 2,3 °C 3,2 km/h (1 Bft)
13.10.2016 21:31 3,0 °C 3,0 °C 96 % 1011,9 hPa 0,0 mm 2,2 km/h (1 Bft) O 96 ° 0 min 0,000 mm 0,0 UV-I 0 W/m² 2,4 °C 3,2 km/h (1 Bft)
13.10.2016 21:32 3,0 °C 3,0 °C 96 % 1011,9 hPa 0,0 mm 2,2 km/h (1 Bft) O 96 ° 0 min 0,000 mm 0,0 UV-I 0 W/m² 2,4 °C 3,2 km/h (1 Bft)
13.10.2016 21:33 3,1 °C 3,1 °C 96 % 1012,0 hPa 0,0 mm 1,6 km/h (1 Bft) O 96 ° 0 min 0,000 mm 0,0 UV-I 0 W/m² 2,5 °C 3,2 km/h (1 Bft)
13.10.2016 21:34 3,1 °C 3,1 °C 96 % 1011,9 hPa 0,0 mm 1,3 km/h (1 Bft) O 96 ° 0 min 0,000 mm 0,0 UV-I 0 W/m² 2,5 °C 3,2 km/h (1 Bft)
13.10.2016 21:35 3,1 °C 3,2 °C 96 % 1011,9 hPa 0,0 mm 0,8 km/h (0 Bft) O 96 ° 0 min 0,000 mm 0,0 UV-I 0 W/m² 2,5 °C 1,6 km/h (1 Bft)
13.10.2016 21:36 3,2 °C 3,2 °C 96 % 1011,9 hPa 0,0 mm 0,5 km/h (0 Bft) O 96 ° 0 min 0,000 mm 0,0 UV-I 0 W/m² 2,6 °C 1,6 km/h (1 Bft)
13.10.2016 21:37 3,2 °C 3,2 °C 96 % 1011,8 hPa 0,0 mm 0,5 km/h (0 Bft) O 96 ° 0 min 0,000 mm 0,0 UV-I 0 W/m² 2,6 °C 1,6 km/h (1 Bft)
13.10.2016 21:38 3,2 °C 3,2 °C 96 % 1011,8 hPa 0,0 mm 0,0 km/h (0 Bft) O 96 ° 0 min 0,000 mm 0,0 UV-I 0 W/m² 2,6 °C 0,0 km/h (0 Bft)
13.10.2016 21:39 3,2 °C 3,2 °C 96 % 1011,8 hPa 0,0 mm 0,0 km/h (0 Bft) O 96 ° 0 min 0,000 mm 0,0 UV-I 0 W/m² 2,6 °C 0,0 km/h (0 Bft)
13.10.2016 21:40 3,1 °C 3,2 °C 95 % 1011,8 hPa 0,0 mm 0,0 km/h (0 Bft) O 96 ° 0 min 0,000 mm 0,0 UV-I 0 W/m² 2,4 °C 0,0 km/h (0 Bft)
13.10.2016 21:41 3,0 °C 3,1 °C 95 % 1011,8 hPa 0,0 mm 0,1 km/h (0 Bft) O 96 ° 0 min 0,000 mm 0,0 UV-I 0 W/m² 2,3 °C 1,6 km/h (1 Bft)
13.10.2016 21:42 2,9 °C 3,0 °C 95 % 1011,8 hPa 0,0 mm 0,1 km/h (0 Bft) O 96 ° 0 min 0,000 mm 0,0 UV-I 0 W/m² 2,2 °C 1,6 km/h (1 Bft)
13.10.2016 21:43 2,8 °C 2,9 °C 95 % 1011,8 hPa 0,0 mm 0,0 km/h (0 Bft) O 96 ° 0 min 0,000 mm 0,0 UV-I 0 W/m² 2,1 °C 0,0 km/h (0 Bft)
13.10.2016 21:44 2,7 °C 2,8 °C 95 % 1011,8 hPa 0,0 mm 0,0 km/h (0 Bft) O 96 ° 0 min 0,000 mm 0,0 UV-I 0 W/m² 2,0 °C 0,0 km/h (0 Bft)
13.10.2016 21:45 2,7 °C 2,7 °C 94 % 1011,8 hPa 0,0 mm 0,0 km/h (0 Bft) O 96 ° 0 min 0,000 mm 0,0 UV-I 0 W/m² 1,8 °C 0,0 km/h (0 Bft)
13.10.2016 21:46 2,6 °C 2,7 °C 94 % 1011,8 hPa 0,0 mm 0,6 km/h (0 Bft) O 96 ° 0 min 0,000 mm 0,0 UV-I 0 W/m² 1,7 °C 1,6 km/h (1 Bft)
13.10.2016 21:47 2,6 °C 2,6 °C 94 % 1011,8 hPa 0,0 mm 1,5 km/h (1 Bft) O 96 ° 0 min 0,000 mm 0,0 UV-I 0 W/m² 1,7 °C 4,8 km/h (1 Bft)
13.10.2016 21:48 2,6 °C 2,6 °C 95 % 1011,8 hPa 0,0 mm 1,6 km/h (1 Bft) O 96 ° 0 min 0,000 mm 0,0 UV-I 0 W/m² 1,9 °C 3,2 km/h (1 Bft)
13.10.2016 21:49 2,6 °C 2,6 °C 95 % 1011,8 hPa 0,0 mm 0,1 km/h (0 Bft) O 96 ° 0 min 0,000 mm 0,0 UV-I 0 W/m² 1,9 °C 1,6 km/h (1 Bft)
13.10.2016 21:50 2,7 °C 2,7 °C 95 % 1011,8 hPa 0,0 mm 1,1 km/h (1 Bft) O 96 ° 0 min 0,000 mm 0,0 UV-I 0 W/m² 2,0 °C 3,2 km/h (1 Bft)
13.10.2016 21:51 2,6 °C 2,7 °C 95 % 1011,8 hPa 0,0 mm 1,5 km/h (1 Bft) O 96 ° 0 min 0,000 mm 0,0 UV-I 0 W/m² 1,9 °C 3,2 km/h (1 Bft)
13.10.2016 21:52 2,4 °C 2,6 °C 95 % 1011,9 hPa 0,0 mm 0,2 km/h (0 Bft) O 96 ° 0 min 0,000 mm 0,0 UV-I 0 W/m² 1,7 °C 1,6 km/h (1 Bft)
13.10.2016 21:53 2,3 °C 2,4 °C 94 % 1011,9 hPa 0,0 mm 0,3 km/h (0 Bft) O 96 ° 0 min 0,000 mm 0,0 UV-I 0 W/m² 1,4 °C 1,6 km/h (1 Bft)
13.10.2016 21:54 2,3 °C 2,3 °C 94 % 1011,9 hPa 0,0 mm 0,0 km/h (0 Bft) O 96 ° 0 min 0,000 mm 0,0 UV-I 0 W/m² 1,4 °C 0,0 km/h (0 Bft)
13.10.2016 21:55 2,3 °C 2,3 °C 95 % 1011,9 hPa 0,0 mm 0,1 km/h (0 Bft) O 96 ° 0 min 0,000 mm 0,0 UV-I 0 W/m² 1,6 °C 1,6 km/h (1 Bft)
13.10.2016 21:56 2,3 °C 2,3 °C 95 % 1011,9 hPa 0,0 mm 0,0 km/h (0 Bft) O 96 ° 0 min 0,000 mm 0,0 UV-I 0 W/m² 1,6 °C 0,0 km/h (0 Bft)
13.10.2016 21:57 2,3 °C 2,3 °C 95 % 1011,9 hPa 0,0 mm 0,0 km/h (0 Bft) O 96 ° 0 min 0,000 mm 0,0 UV-I 0 W/m² 1,6 °C 0,0 km/h (0 Bft)
13.10.2016 21:58 2,3 °C 2,3 °C 95 % 1011,8 hPa 0,0 mm 0,1 km/h (0 Bft) O 96 ° 0 min 0,000 mm 0,0 UV-I 0 W/m² 1,6 °C 1,6 km/h (1 Bft)
13.10.2016 21:59 2,5 °C 2,5 °C 95 % 1011,9 hPa 0,0 mm 1,3 km/h (1 Bft) O 96 ° 0 min 0,000 mm 0,0 UV-I 0 W/m² 1,8 °C 1,6 km/h (1 Bft)
13.10.2016 22:00 2,7 °C 2,7 °C 96 % 1011,9 hPa 0,0 mm 0,6 km/h (0 Bft) O 96 ° 0 min 0,000 mm 0,0 UV-I 0 W/m² 2,1 °C 1,6 km/h (1 Bft)
13.10.2016 22:01 2,6 °C 2,7 °C 96 % 1011,9 hPa 0,0 mm 0,0 km/h (0 Bft) O 96 ° 0 min 0,000 mm 0,0 UV-I 0 W/m² 2,0 °C 0,0 km/h (0 Bft)
13.10.2016 22:02 2,6 °C 2,6 °C 95 % 1011,8 hPa 0,0 mm 0,0 km/h (0 Bft) O 96 ° 0 min 0,000 mm 0,0 UV-I 0 W/m² 1,9 °C 0,0 km/h (0 Bft)
13.10.2016 22:03 2,5 °C 2,6 °C 95 % 1011,8 hPa 0,0 mm 0,0 km/h (0 Bft) O 96 ° 0 min 0,000 mm 0,0 UV-I 0 W/m² 1,8 °C 0,0 km/h (0 Bft)
13.10.2016 22:04 2,5 °C 2,6 °C 95 % 1011,9 hPa 0,0 mm 0,0 km/h (0 Bft) O 96 ° 0 min 0,000 mm 0,0 UV-I 0 W/m² 1,8 °C 0,0 km/h (0 Bft)
13.10.2016 22:05 2,4 °C 2,5 °C 95 % 1011,9 hPa 0,0 mm 0,0 km/h (0 Bft) O 96 ° 0 min 0,000 mm 0,0 UV-I 0 W/m² 1,7 °C 0,0 km/h (0 Bft)
13.10.2016 22:06 2,4 °C 2,4 °C 95 % 1011,9 hPa 0,0 mm 0,0 km/h (0 Bft) O 96 ° 0 min 0,000 mm 0,0 UV-I 0 W/m² 1,7 °C 0,0 km/h (0 Bft)
13.10.2016 22:07 2,4 °C 2,4 °C 95 % 1011,9 hPa 0,0 mm 0,0 km/h (0 Bft) O 96 ° 0 min 0,000 mm 0,0 UV-I 0 W/m² 1,7 °C 0,0 km/h (0 Bft)
13.10.2016 22:08 2,4 °C 2,4 °C 95 % 1011,9 hPa 0,0 mm 0,0 km/h (0 Bft) O 96 ° 0 min 0,000 mm 0,0 UV-I 0 W/m² 1,7 °C 0,0 km/h (0 Bft)
13.10.2016 22:09 2,4 °C 2,4 °C 95 % 1012,0 hPa 0,0 mm 0,0 km/h (0 Bft) O 96 ° 0 min 0,000 mm 0,0 UV-I 0 W/m² 1,7 °C 0,0 km/h (0 Bft)
13.10.2016 22:10 2,4 °C 2,4 °C 95 % 1011,9 hPa 0,0 mm 0,0 km/h (0 Bft) O 96 ° 0 min 0,000 mm 0,0 UV-I 0 W/m² 1,7 °C 0,0 km/h (0 Bft)
13.10.2016 22:11 2,4 °C 2,4 °C 95 % 1011,9 hPa 0,0 mm 0,0 km/h (0 Bft) O 96 ° 0 min 0,000 mm 0,0 UV-I 0 W/m² 1,7 °C 0,0 km/h (0 Bft)
13.10.2016 22:12 2,4 °C 2,4 °C 95 % 1011,9 hPa 0,0 mm 0,0 km/h (0 Bft) O 96 ° 0 min 0,000 mm 0,0 UV-I 0 W/m² 1,7 °C 0,0 km/h (0 Bft)
13.10.2016 22:13 2,4 °C 2,4 °C 95 % 1011,9 hPa 0,0 mm 0,0 km/h (0 Bft) O 96 ° 0 min 0,000 mm 0,0 UV-I 0 W/m² 1,7 °C 0,0 km/h (0 Bft)
13.10.2016 22:14 2,4 °C 2,4 °C 95 % 1011,9 hPa 0,0 mm 0,0 km/h (0 Bft) O 96 ° 0 min 0,000 mm 0,0 UV-I 0 W/m² 1,7 °C 0,0 km/h (0 Bft)
13.10.2016 22:15 2,4 °C 2,4 °C 95 % 1012,0 hPa 0,0 mm 0,0 km/h (0 Bft) O 96 ° 0 min 0,000 mm 0,0 UV-I 0 W/m² 1,7 °C 0,0 km/h (0 Bft)
13.10.2016 22:16 2,3 °C 2,4 °C 95 % 1012,0 hPa 0,0 mm 0,0 km/h (0 Bft) O 96 ° 0 min 0,000 mm 0,0 UV-I 0 W/m² 1,6 °C 0,0 km/h (0 Bft)
13.10.2016 22:17 2,4 °C 2,4 °C 95 % 1011,9 hPa 0,0 mm 0,0 km/h (0 Bft) O 96 ° 0 min 0,000 mm 0,0 UV-I 0 W/m² 1,7 °C 0,0 km/h (0 Bft)
13.10.2016 22:18 2,4 °C 2,4 °C 95 % 1011,9 hPa 0,0 mm 0,0 km/h (0 Bft) O 96 ° 0 min 0,000 mm 0,0 UV-I 0 W/m² 1,7 °C 0,0 km/h (0 Bft)
13.10.2016 22:19 2,4 °C 2,4 °C 95 % 1012,0 hPa 0,0 mm 0,0 km/h (0 Bft) O 96 ° 0 min 0,000 mm 0,0 UV-I 0 W/m² 1,7 °C 0,0 km/h (0 Bft)
13.10.2016 22:20 2,4 °C 2,4 °C 95 % 1012,0 hPa 0,0 mm 0,0 km/h (0 Bft) O 96 ° 0 min 0,000 mm 0,0 UV-I 0 W/m² 1,7 °C 0,0 km/h (0 Bft)
13.10.2016 22:21 2,4 °C 2,4 °C 95 % 1012,0 hPa 0,0 mm 0,0 km/h (0 Bft) O 96 ° 0 min 0,000 mm 0,0 UV-I 0 W/m² 1,7 °C 0,0 km/h (0 Bft)
13.10.2016 22:22 2,4 °C 2,4 °C 95 % 1012,0 hPa 0,0 mm 0,0 km/h (0 Bft) O 96 ° 0 min 0,000 mm 0,0 UV-I 0 W/m² 1,7 °C 0,0 km/h (0 Bft)
13.10.2016 22:23 2,6 °C 2,6 °C 95 % 1012,0 hPa 0,0 mm 0,0 km/h (0 Bft) O 96 ° 0 min 0,000 mm 0,0 UV-I 0 W/m² 1,9 °C 0,0 km/h (0 Bft)
13.10.2016 22:24 2,5 °C 2,6 °C 95 % 1012,0 hPa 0,0 mm 0,0 km/h (0 Bft) O 96 ° 0 min 0,000 mm 0,0 UV-I 0 W/m² 1,8 °C 0,0 km/h (0 Bft)
13.10.2016 22:25 2,5 °C 2,6 °C 95 % 1012,0 hPa 0,0 mm 0,0 km/h (0 Bft) O 96 ° 0 min 0,000 mm 0,0 UV-I 0 W/m² 1,8 °C 0,0 km/h (0 Bft)
13.10.2016 22:26 2,5 °C 2,5 °C 95 % 1012,0 hPa 0,0 mm 0,0 km/h (0 Bft) O 96 ° 0 min 0,000 mm 0,0 UV-I 0 W/m² 1,8 °C 0,0 km/h (0 Bft)
13.10.2016 22:27 2,5 °C 2,6 °C 95 % 1012,1 hPa 0,0 mm 0,0 km/h (0 Bft) O 96 ° 0 min 0,000 mm 0,0 UV-I 0 W/m² 1,8 °C 0,0 km/h (0 Bft)
13.10.2016 22:28 2,7 °C 2,7 °C 95 % 1012,0 hPa 0,0 mm 0,0 km/h (0 Bft) O 96 ° 0 min 0,000 mm 0,0 UV-I 0 W/m² 2,0 °C 0,0 km/h (0 Bft)
13.10.2016 22:29 2,9 °C 2,9 °C 96 % 1012,0 hPa 0,0 mm 0,0 km/h (0 Bft) O 96 ° 0 min 0,000 mm 0,0 UV-I 0 W/m² 2,3 °C 0,0 km/h (0 Bft)
13.10.2016 22:30 3,1 °C 3,1 °C 96 % 1012,0 hPa 0,0 mm 1,0 km/h (0 Bft) O 96 ° 0 min 0,000 mm 0,0 UV-I 0 W/m² 2,5 °C 3,2 km/h (1 Bft)
13.10.2016 22:31 3,2 °C 3,2 °C 96 % 1012,0 hPa 0,0 mm 2,3 km/h (1 Bft) O 96 ° 0 min 0,000 mm 0,0 UV-I 0 W/m² 2,6 °C 3,2 km/h (1 Bft)
13.10.2016 22:32 3,2 °C 3,2 °C 96 % 1012,0 hPa 0,0 mm 0,9 km/h (0 Bft) O 96 ° 0 min 0,000 mm 0,0 UV-I 0 W/m² 2,6 °C 1,6 km/h (1 Bft)
13.10.2016 22:33 3,3 °C 3,3 °C 96 % 1011,9 hPa 0,0 mm 0,7 km/h (0 Bft) O 96 ° 0 min 0,000 mm 0,0 UV-I 0 W/m² 2,7 °C 3,2 km/h (1 Bft)
13.10.2016 22:34 3,3 °C 3,3 °C 96 % 1012,0 hPa 0,0 mm 0,0 km/h (0 Bft) O 96 ° 0 min 0,000 mm 0,0 UV-I 0 W/m² 2,7 °C 0,0 km/h (0 Bft)
13.10.2016 22:35 3,1 °C 3,3 °C 96 % 1012,1 hPa 0,0 mm 0,0 km/h (0 Bft) O 96 ° 0 min 0,000 mm 0,0 UV-I 0 W/m² 2,5 °C 0,0 km/h (0 Bft)
13.10.2016 22:36 2,9 °C 3,1 °C 95 % 1012,1 hPa 0,0 mm 0,0 km/h (0 Bft) O 96 ° 0 min 0,000 mm 0,0 UV-I 0 W/m² 2,2 °C 0,0 km/h (0 Bft)
13.10.2016 22:37 2,8 °C 2,9 °C 95 % 1012,1 hPa 0,0 mm 0,0 km/h (0 Bft) O 96 ° 0 min 0,000 mm 0,0 UV-I 0 W/m² 2,1 °C 0,0 km/h (0 Bft)
13.10.2016 22:38 2,7 °C 2,8 °C 95 % 1012,1 hPa 0,0 mm 0,0 km/h (0 Bft) O 96 ° 0 min 0,000 mm 0,0 UV-I 0 W/m² 2,0 °C 0,0 km/h (0 Bft)
13.10.2016 22:39 2,8 °C 2,8 °C 95 % 1012,1 hPa 0,0 mm 0,0 km/h (0 Bft) O 96 ° 0 min 0,000 mm 0,0 UV-I 0 W/m² 2,1 °C 0,0 km/h (0 Bft)
13.10.2016 22:40 3,0 °C 3,0 °C 95 % 1012,1 hPa 0,0 mm 0,0 km/h (0 Bft) O 96 ° 0 min 0,000 mm 0,0 UV-I 0 W/m² 2,3 °C 0,0 km/h (0 Bft)
13.10.2016 22:41 3,1 °C 3,1 °C 96 % 1012,1 hPa 0,0 mm 0,0 km/h (0 Bft) O 96 ° 0 min 0,000 mm 0,0 UV-I 0 W/m² 2,5 °C 0,0 km/h (0 Bft)
13.10.2016 22:42 3,2 °C 3,2 °C 96 % 1012,1 hPa 0,0 mm 0,0 km/h (0 Bft) O 96 ° 0 min 0,000 mm 0,0 UV-I 0 W/m² 2,6 °C 0,0 km/h (0 Bft)
13.10.2016 22:43 3,3 °C 3,3 °C 96 % 1012,1 hPa 0,0 mm 0,0 km/h (0 Bft) O 96 ° 0 min 0,000 mm 0,0 UV-I 0 W/m² 2,7 °C 0,0 km/h (0 Bft)
13.10.2016 22:44 3,4 °C 3,4 °C 96 % 1012,1 hPa 0,0 mm 0,0 km/h (0 Bft) O 96 ° 0 min 0,000 mm 0,0 UV-I 0 W/m² 2,8 °C 0,0 km/h (0 Bft)
13.10.2016 22:45 3,5 °C 3,5 °C 96 % 1012,1 hPa 0,0 mm 0,0 km/h (0 Bft) O 96 ° 0 min 0,000 mm 0,0 UV-I 0 W/m² 2,9 °C 0,0 km/h (0 Bft)
13.10.2016 22:46 3,6 °C 3,6 °C 96 % 1012,1 hPa 0,0 mm 0,0 km/h (0 Bft) O 96 ° 0 min 0,000 mm 0,0 UV-I 0 W/m² 3,0 °C 0,0 km/h (0 Bft)
13.10.2016 22:47 3,6 °C 3,6 °C 96 % 1012,1 hPa 0,0 mm 0,0 km/h (0 Bft) O 96 ° 0 min 0,000 mm 0,0 UV-I 0 W/m² 3,0 °C 0,0 km/h (0 Bft)
13.10.2016 22:48 3,6 °C 3,6 °C 96 % 1012,1 hPa 0,0 mm 0,0 km/h (0 Bft) O 96 ° 0 min 0,000 mm 0,0 UV-I 0 W/m² 3,0 °C 0,0 km/h (0 Bft)
13.10.2016 22:49 3,7 °C 3,7 °C 96 % 1012,1 hPa 0,0 mm 0,0 km/h (0 Bft) O 96 ° 0 min 0,000 mm 0,0 UV-I 0 W/m² 3,1 °C 0,0 km/h (0 Bft)
13.10.2016 22:50 3,7 °C 3,7 °C 96 % 1012,1 hPa 0,0 mm 0,0 km/h (0 Bft) O 96 ° 0 min 0,000 mm 0,0 UV-I 0 W/m² 3,1 °C 0,0 km/h (0 Bft)
13.10.2016 22:51 3,6 °C 3,7 °C 96 % 1012,1 hPa 0,0 mm 0,0 km/h (0 Bft) O 96 ° 0 min 0,000 mm 0,0 UV-I 0 W/m² 3,0 °C 0,0 km/h (0 Bft)
13.10.2016 22:52 3,4 °C 3,6 °C 96 % 1012,1 hPa 0,0 mm 0,0 km/h (0 Bft) O 96 ° 0 min 0,000 mm 0,0 UV-I 0 W/m² 2,8 °C 0,0 km/h (0 Bft)
13.10.2016 22:53 3,3 °C 3,4 °C 95 % 1012,2 hPa 0,0 mm 0,0 km/h (0 Bft) O 96 ° 0 min 0,000 mm 0,0 UV-I 0 W/m² 2,6 °C 0,0 km/h (0 Bft)
13.10.2016 22:54 3,2 °C 3,3 °C 95 % 1012,1 hPa 0,0 mm 0,0 km/h (0 Bft) O 96 ° 0 min 0,000 mm 0,0 UV-I 0 W/m² 2,5 °C 0,0 km/h (0 Bft)
13.10.2016 22:55 3,1 °C 3,2 °C 95 % 1012,1 hPa 0,0 mm 0,0 km/h (0 Bft) O 96 ° 0 min 0,000 mm 0,0 UV-I 0 W/m² 2,4 °C 0,0 km/h (0 Bft)
13.10.2016 22:56 3,1 °C 3,1 °C 94 % 1012,1 hPa 0,0 mm 0,0 km/h (0 Bft) O 96 ° 0 min 0,000 mm 0,0 UV-I 0 W/m² 2,2 °C 0,0 km/h (0 Bft)
13.10.2016 22:57 3,0 °C 3,1 °C 94 % 1012,1 hPa 0,0 mm 0,0 km/h (0 Bft) O 96 ° 0 min 0,000 mm 0,0 UV-I 0 W/m² 2,1 °C 0,0 km/h (0 Bft)
13.10.2016 22:58 3,0 °C 3,0 °C 95 % 1012,1 hPa 0,0 mm 0,0 km/h (0 Bft) O 96 ° 0 min 0,000 mm 0,0 UV-I 0 W/m² 2,3 °C 0,0 km/h (0 Bft)
13.10.2016 22:59 3,0 °C 3,0 °C 95 % 1012,1 hPa 0,0 mm 0,0 km/h (0 Bft) O 96 ° 0 min 0,000 mm 0,0 UV-I 0 W/m² 2,3 °C 0,0 km/h (0 Bft)
13.10.2016 23:00 3,2 °C 3,2 °C 95 % 1012,1 hPa 0,0 mm 0,0 km/h (0 Bft) O 96 ° 0 min 0,000 mm 0,0 UV-I 0 W/m² 2,5 °C 0,0 km/h (0 Bft)
13.10.2016 23:01 3,3 °C 3,3 °C 96 % 1012,1 hPa 0,0 mm 0,0 km/h (0 Bft) O 96 ° 0 min 0,000 mm 0,0 UV-I 0 W/m² 2,7 °C 0,0 km/h (0 Bft)
13.10.2016 23:02 3,3 °C 3,4 °C 96 % 1012,2 hPa 0,0 mm 0,0 km/h (0 Bft) O 96 ° 0 min 0,000 mm 0,0 UV-I 0 W/m² 2,7 °C 0,0 km/h (0 Bft)
13.10.2016 23:03 3,3 °C 3,3 °C 96 % 1012,2 hPa 0,0 mm 0,0 km/h (0 Bft) O 96 ° 0 min 0,000 mm 0,0 UV-I 0 W/m² 2,7 °C 0,0 km/h (0 Bft)
13.10.2016 23:04 3,2 °C 3,3 °C 95 % 1012,2 hPa 0,0 mm 0,0 km/h (0 Bft) O 96 ° 0 min 0,000 mm 0,0 UV-I 0 W/m² 2,5 °C 0,0 km/h (0 Bft)
13.10.2016 23:05 3,1 °C 3,2 °C 95 % 1012,2 hPa 0,0 mm 0,0 km/h (0 Bft) O 96 ° 0 min 0,000 mm 0,0 UV-I 0 W/m² 2,4 °C 0,0 km/h (0 Bft)
13.10.2016 23:06 3,0 °C 3,1 °C 95 % 1012,2 hPa 0,0 mm 0,0 km/h (0 Bft) O 96 ° 0 min 0,000 mm 0,0 UV-I 0 W/m² 2,3 °C 0,0 km/h (0 Bft)
13.10.2016 23:07 2,9 °C 3,0 °C 95 % 1012,2 hPa 0,0 mm 0,0 km/h (0 Bft) O 96 ° 0 min 0,000 mm 0,0 UV-I 0 W/m² 2,2 °C 0,0 km/h (0 Bft)
13.10.2016 23:08 2,9 °C 2,9 °C 95 % 1012,1 hPa 0,0 mm 0,0 km/h (0 Bft) O 96 ° 0 min 0,000 mm 0,0 UV-I 0 W/m² 2,2 °C 0,0 km/h (0 Bft)
13.10.2016 23:09 2,9 °C 2,9 °C 95 % 1012,1 hPa 0,0 mm 0,0 km/h (0 Bft) O 96 ° 0 min 0,000 mm 0,0 UV-I 0 W/m² 2,2 °C 0,0 km/h (0 Bft)
13.10.2016 23:10 2,9 °C 2,9 °C 95 % 1012,2 hPa 0,0 mm 0,0 km/h (0 Bft) O 96 ° 0 min 0,000 mm 0,0 UV-I 0 W/m² 2,2 °C 0,0 km/h (0 Bft)
13.10.2016 23:11 2,9 °C 2,9 °C 95 % 1012,2 hPa 0,0 mm 0,0 km/h (0 Bft) O 96 ° 0 min 0,000 mm 0,0 UV-I 0 W/m² 2,2 °C 0,0 km/h (0 Bft)
13.10.2016 23:12 2,9 °C 2,9 °C 95 % 1012,2 hPa 0,0 mm 0,0 km/h (0 Bft) O 96 ° 0 min 0,000 mm 0,0 UV-I 0 W/m² 2,2 °C 0,0 km/h (0 Bft)
13.10.2016 23:13 2,9 °C 2,9 °C 95 % 1012,2 hPa 0,0 mm 0,0 km/h (0 Bft) O 96 ° 0 min 0,000 mm 0,0 UV-I 0 W/m² 2,2 °C 0,0 km/h (0 Bft)
13.10.2016 23:14 2,9 °C 2,9 °C 95 % 1012,1 hPa 0,0 mm 0,0 km/h (0 Bft) O 96 ° 0 min 0,000 mm 0,0 UV-I 0 W/m² 2,2 °C 0,0 km/h (0 Bft)
13.10.2016 23:15 2,8 °C 2,9 °C 95 % 1012,1 hPa 0,0 mm 0,0 km/h (0 Bft) O 96 ° 0 min 0,000 mm 0,0 UV-I 0 W/m² 2,1 °C 0,0 km/h (0 Bft)
13.10.2016 23:16 2,8 °C 2,8 °C 95 % 1012,1 hPa 0,0 mm 0,0 km/h (0 Bft) O 96 ° 0 min 0,000 mm 0,0 UV-I 0 W/m² 2,1 °C 0,0 km/h (0 Bft)
13.10.2016 23:17 2,8 °C 2,8 °C 95 % 1012,1 hPa 0,0 mm 0,0 km/h (0 Bft) O 96 ° 0 min 0,000 mm 0,0 UV-I 0 W/m² 2,1 °C 0,0 km/h (0 Bft)
13.10.2016 23:18 2,8 °C 2,8 °C 95 % 1012,1 hPa 0,0 mm 0,0 km/h (0 Bft) O 96 ° 0 min 0,000 mm 0,0 UV-I 0 W/m² 2,1 °C 0,0 km/h (0 Bft)
13.10.2016 23:19 2,9 °C 2,9 °C 95 % 1012,1 hPa 0,0 mm 0,0 km/h (0 Bft) O 96 ° 0 min 0,000 mm 0,0 UV-I 0 W/m² 2,2 °C 0,0 km/h (0 Bft)
13.10.2016 23:20 2,9 °C 2,9 °C 95 % 1012,2 hPa 0,0 mm 0,0 km/h (0 Bft) O 96 ° 0 min 0,000 mm 0,0 UV-I 0 W/m² 2,2 °C 0,0 km/h (0 Bft)
13.10.2016 23:21 2,8 °C 2,9 °C 95 % 1012,1 hPa 0,0 mm 0,0 km/h (0 Bft) O 96 ° 0 min 0,000 mm 0,0 UV-I 0 W/m² 2,1 °C 0,0 km/h (0 Bft)
13.10.2016 23:22 2,8 °C 2,9 °C 95 % 1012,1 hPa 0,0 mm 0,0 km/h (0 Bft) O 96 ° 0 min 0,000 mm 0,0 UV-I 0 W/m² 2,1 °C 0,0 km/h (0 Bft)
13.10.2016 23:23 2,8 °C 2,8 °C 95 % 1012,1 hPa 0,0 mm 0,0 km/h (0 Bft) O 96 ° 0 min 0,000 mm 0,0 UV-I 0 W/m² 2,1 °C 0,0 km/h (0 Bft)
13.10.2016 23:24 2,8 °C 2,8 °C 95 % 1012,2 hPa 0,0 mm 0,0 km/h (0 Bft) O 96 ° 0 min 0,000 mm 0,0 UV-I 0 W/m² 2,1 °C 0,0 km/h (0 Bft)
13.10.2016 23:25 2,8 °C 2,8 °C 95 % 1012,2 hPa 0,0 mm 0,0 km/h (0 Bft) O 96 ° 0 min 0,000 mm 0,0 UV-I 0 W/m² 2,1 °C 0,0 km/h (0 Bft)
13.10.2016 23:26 2,8 °C 2,8 °C 95 % 1012,1 hPa 0,0 mm 0,0 km/h (0 Bft) O 96 ° 0 min 0,000 mm 0,0 UV-I 0 W/m² 2,1 °C 0,0 km/h (0 Bft)
13.10.2016 23:27 2,8 °C 2,8 °C 95 % 1012,2 hPa 0,0 mm 0,0 km/h (0 Bft) O 96 ° 0 min 0,000 mm 0,0 UV-I 0 W/m² 2,1 °C 0,0 km/h (0 Bft)
13.10.2016 23:28 2,8 °C 2,8 °C 95 % 1012,2 hPa 0,0 mm 0,0 km/h (0 Bft) O 96 ° 0 min 0,000 mm 0,0 UV-I 0 W/m² 2,1 °C 0,0 km/h (0 Bft)
13.10.2016 23:29 2,8 °C 2,8 °C 95 % 1012,2 hPa 0,0 mm 0,0 km/h (0 Bft) O 96 ° 0 min 0,000 mm 0,0 UV-I 0 W/m² 2,1 °C 0,0 km/h (0 Bft)
13.10.2016 23:30 2,8 °C 2,8 °C 95 % 1012,2 hPa 0,0 mm 0,0 km/h (0 Bft) O 96 ° 0 min 0,000 mm 0,0 UV-I 0 W/m² 2,1 °C 0,0 km/h (0 Bft)
13.10.2016 23:31 2,8 °C 2,8 °C 95 % 1012,2 hPa 0,0 mm 0,0 km/h (0 Bft) O 96 ° 0 min 0,000 mm 0,0 UV-I 0 W/m² 2,1 °C 0,0 km/h (0 Bft)
13.10.2016 23:32 2,8 °C 2,8 °C 95 % 1012,2 hPa 0,0 mm 0,0 km/h (0 Bft) O 96 ° 0 min 0,000 mm 0,0 UV-I 0 W/m² 2,1 °C 0,0 km/h (0 Bft)
13.10.2016 23:33 2,8 °C 2,8 °C 95 % 1012,2 hPa 0,0 mm 0,0 km/h (0 Bft) O 96 ° 0 min 0,000 mm 0,0 UV-I 0 W/m² 2,1 °C 0,0 km/h (0 Bft)
13.10.2016 23:34 2,7 °C 2,8 °C 95 % 1012,2 hPa 0,0 mm 0,0 km/h (0 Bft) O 96 ° 0 min 0,000 mm 0,0 UV-I 0 W/m² 2,0 °C 0,0 km/h (0 Bft)
13.10.2016 23:35 2,7 °C 2,8 °C 95 % 1012,2 hPa 0,0 mm 0,0 km/h (0 Bft) O 96 ° 0 min 0,000 mm 0,0 UV-I 0 W/m² 2,0 °C 0,0 km/h (0 Bft)
13.10.2016 23:36 2,7 °C 2,8 °C 95 % 1012,2 hPa 0,0 mm 0,0 km/h (0 Bft) O 96 ° 0 min 0,000 mm 0,0 UV-I 0 W/m² 2,0 °C 0,0 km/h (0 Bft)
13.10.2016 23:37 2,8 °C 2,8 °C 95 % 1012,2 hPa 0,0 mm 0,0 km/h (0 Bft) O 96 ° 0 min 0,000 mm 0,0 UV-I 0 W/m² 2,1 °C 0,0 km/h (0 Bft)
13.10.2016 23:38 2,8 °C 2,8 °C 95 % 1012,2 hPa 0,0 mm 0,0 km/h (0 Bft) O 96 ° 0 min 0,000 mm 0,0 UV-I 0 W/m² 2,1 °C 0,0 km/h (0 Bft)
13.10.2016 23:39 2,8 °C 2,8 °C 96 % 1012,3 hPa 0,0 mm 0,0 km/h (0 Bft) O 96 ° 0 min 0,000 mm 0,0 UV-I 0 W/m² 2,2 °C 0,0 km/h (0 Bft)
13.10.2016 23:40 2,9 °C 2,9 °C 96 % 1012,2 hPa 0,0 mm 0,0 km/h (0 Bft) O 96 ° 0 min 0,000 mm 0,0 UV-I 0 W/m² 2,3 °C 0,0 km/h (0 Bft)
13.10.2016 23:41 2,9 °C 2,9 °C 96 % 1012,2 hPa 0,0 mm 0,0 km/h (0 Bft) O 96 ° 0 min 0,000 mm 0,0 UV-I 0 W/m² 2,3 °C 0,0 km/h (0 Bft)
13.10.2016 23:42 2,9 °C 2,9 °C 96 % 1012,2 hPa 0,0 mm 0,0 km/h (0 Bft) O 96 ° 0 min 0,000 mm 0,0 UV-I 0 W/m² 2,3 °C 0,0 km/h (0 Bft)
13.10.2016 23:43 2,9 °C 2,9 °C 96 % 1012,2 hPa 0,0 mm 0,0 km/h (0 Bft) O 96 ° 0 min 0,000 mm 0,0 UV-I 0 W/m² 2,3 °C 0,0 km/h (0 Bft)
13.10.2016 23:44 2,8 °C 2,9 °C 96 % 1012,2 hPa 0,0 mm 0,0 km/h (0 Bft) O 96 ° 0 min 0,000 mm 0,0 UV-I 0 W/m² 2,2 °C 0,0 km/h (0 Bft)
13.10.2016 23:45 2,8 °C 2,8 °C 95 % 1012,2 hPa 0,0 mm 0,0 km/h (0 Bft) O 96 ° 0 min 0,000 mm 0,0 UV-I 0 W/m² 2,1 °C 0,0 km/h (0 Bft)
13.10.2016 23:46 2,8 °C 2,8 °C 95 % 1012,3 hPa 0,0 mm 0,0 km/h (0 Bft) O 96 ° 0 min 0,000 mm 0,0 UV-I 0 W/m² 2,1 °C 0,0 km/h (0 Bft)
13.10.2016 23:47 2,7 °C 2,8 °C 95 % 1012,3 hPa 0,0 mm 0,0 km/h (0 Bft) O 96 ° 0 min 0,000 mm 0,0 UV-I 0 W/m² 2,0 °C 0,0 km/h (0 Bft)
13.10.2016 23:48 2,8 °C 2,8 °C 95 % 1012,3 hPa 0,0 mm 0,0 km/h (0 Bft) O 96 ° 0 min 0,000 mm 0,0 UV-I 0 W/m² 2,1 °C 0,0 km/h (0 Bft)
13.10.2016 23:49 2,8 °C 2,8 °C 95 % 1012,2 hPa 0,0 mm 0,0 km/h (0 Bft) O 96 ° 0 min 0,000 mm 0,0 UV-I 0 W/m² 2,1 °C 0,0 km/h (0 Bft)
13.10.2016 23:50 2,8 °C 2,8 °C 95 % 1012,2 hPa 0,0 mm 0,0 km/h (0 Bft) O 96 ° 0 min 0,000 mm 0,0 UV-I 0 W/m² 2,1 °C 0,0 km/h (0 Bft)
13.10.2016 23:51 2,8 °C 2,8 °C 96 % 1012,2 hPa 0,0 mm 0,0 km/h (0 Bft) O 96 ° 0 min 0,000 mm 0,0 UV-I 0 W/m² 2,2 °C 0,0 km/h (0 Bft)
13.10.2016 23:52 2,8 °C 2,8 °C 96 % 1012,3 hPa 0,0 mm 0,0 km/h (0 Bft) O 96 ° 0 min 0,000 mm 0,0 UV-I 0 W/m² 2,2 °C 0,0 km/h (0 Bft)
13.10.2016 23:53 2,8 °C 2,9 °C 96 % 1012,3 hPa 0,0 mm 0,0 km/h (0 Bft) O 96 ° 0 min 0,000 mm 0,0 UV-I 0 W/m² 2,2 °C 0,0 km/h (0 Bft)
13.10.2016 23:54 2,8 °C 2,9 °C 96 % 1012,3 hPa 0,0 mm 0,0 km/h (0 Bft) O 96 ° 0 min 0,000 mm 0,0 UV-I 0 W/m² 2,2 °C 0,0 km/h (0 Bft)
13.10.2016 23:55 2,8 °C 2,9 °C 96 % 1012,2 hPa 0,0 mm 0,0 km/h (0 Bft) O 96 ° 0 min 0,000 mm 0,0 UV-I 0 W/m² 2,2 °C 0,0 km/h (0 Bft)
13.10.2016 23:56 2,8 °C 2,9 °C 96 % 1012,3 hPa 0,0 mm 0,0 km/h (0 Bft) O 96 ° 0 min 0,000 mm 0,0 UV-I 0 W/m² 2,2 °C 0,0 km/h (0 Bft)
13.10.2016 23:57 2,8 °C 2,8 °C 96 % 1012,3 hPa 0,0 mm 0,0 km/h (0 Bft) O 96 ° 0 min 0,000 mm 0,0 UV-I 0 W/m² 2,2 °C 0,0 km/h (0 Bft)
13.10.2016 23:58 2,8 °C 2,8 °C 96 % 1012,3 hPa 0,0 mm 0,0 km/h (0 Bft) O 96 ° 0 min 0,000 mm 0,0 UV-I 0 W/m² 2,2 °C 0,0 km/h (0 Bft)
13.10.2016 23:59 2,8 °C 2,8 °C 96 % 1012,3 hPa 0,0 mm 0,0 km/h (0 Bft) O 96 ° 0 min 0,000 mm 0,0 UV-I 0 W/m² 2,2 °C 0,0 km/h (0 Bft)
_ Min-Zeit 06:39 06:37 17:22 22:03 - 23:59 - - - - - - 06:39 23:59
Minimum _ -1,8 °C -1,8 °C 83 % 1011,8 hPa - 0,0 km/h (0 Bft) - - - - - - -2,4 °C 0,0 km/h (0 Bft)
_ Max-Zeit 17:06 17:07 12:06 00:04 23:59 16:06 - - 15:07 15:00 14:28 14:28 17:06 16:02
Maximum _ 7,3 °C 7,3 °C 97 % 1016,5 hPa 0,0 mm 12,1 km/h
O-NO (2 Bft)
- - 3 min 0,153 mm 2,3 UV-I 404 W/m² 4,8 °C 22,5 km/h
O (4 Bft)
Durchschnitt _ 2,2 °C 2,3 °C 94 % 1013,9 hPa #0,0 mm 2,4 km/h (1 Bft) O-NO - #1:06 h #0,610 mm 1,3 UV-I 64 W/m² 1,3 °C 4,2 km/h (1 Bft)